[[{"header":{"parameterUnit":"m.s-1","parameterCategory":1,"la1":30.6,"la2":28.766,"lo1":-90.7593,"lo2":-88.6598,"dy":0.0162,"dx":0.0183,"nx":116,"ny":114,"refTime":"2023-07-26T12:00:00:Z","depth":0,"parameterNumber":2,"parameterNumberName":"U-component_of_WINDS"},"data":[0.0,0.0,0.0,0.0,0.0,0.0,0.0,0.0,0.0,0.0,0.0,0.0,0.0,0.0,0.0,0.0,0.0,0.0,0.0,0.0,0.0,0.0,0.0,0.0,0.0,0.0,0.0,0.0,0.0,0.0,0.0,0.0,0.0,0.0,0.0,0.0,0.0,0.0,0.0,0.0,0.0,0.0,0.0,0.0,0.0,0.0,0.0,0.0,0.0,0.0,0.0,0.0,0.0,0.0,0.0,0.0,0.0,0.0,0.0,0.0,0.0,0.0,0.0,0.0,0.0,0.0,0.0,0.0,0.0,0.0,0.0,0.0,0.0,0.0,0.0,0.0,0.0,0.0,0.0,0.0,0.0,0.0,0.0,0.0,0.0,0.0,0.0,0.0,0.0,0.0,0.0,0.0,0.0,0.0,0.0,0.0,0.0,0.0,0.0,0.0,0.0,0.0,0.0,0.0,0.0,0.0,0.0,0.0,0.0,0.0,0.0,0.0,0.0,0.0,0.0,0.0,0.0,0.0,0.0,0.0,0.0,0.0,0.0,0.0,0.0,0.0,0.0,0.0,0.0,0.0,0.0,0.0,0.0,0.0,0.0,0.0,0.0,0.0,0.0,0.0,0.0,0.0,0.0,0.0,0.0,0.0,0.0,0.0,0.0,0.0,0.0,0.0,0.0,0.0,0.0,0.0,0.0,0.0,0.0,0.0,0.0,0.0,0.0,0.0,0.0,0.0,0.0,0.0,0.0,0.0,0.0,0.0,0.0,0.0,0.0,0.0,0.0,0.0,0.0,0.0,0.0,0.0,0.0,0.0,0.0,0.0,0.0,0.0,0.0,0.0,0.0,0.0,0.0,0.0,0.0,0.0,0.0,0.0,0.0,0.0,0.0,0.0,0.0,0.0,0.0,0.0,0.0,0.0,0.0,0.0,0.0,0.0,0.0,0.0,0.0,0.0,0.0,0.0,0.0,0.0,0.0,0.0,0.0,0.0,0.0,0.0,0.0,0.0,0.0,0.0,0.0,0.0,0.0,0.0,0.0,0.0,0.0,0.0,0.0,0.0,0.0,0.0,0.0,0.0,0.0,0.0,0.0,0.0,0.0,0.0,0.0,0.0,0.0,0.0,0.0,0.0,0.0,0.0,0.0,0.0,0.0,0.0,0.0,0.0,0.0,0.0,0.0,0.0,0.0,0.0,0.0,0.0,0.0,0.0,0.0,0.0,0.0,0.0,0.0,0.0,0.0,0.0,0.0,0.0,0.0,0.0,0.0,0.0,0.0,0.0,0.0,0.0,0.0,0.0,0.0,0.0,0.0,0.0,0.0,0.0,0.0,0.0,0.0,0.0,0.0,0.0,0.0,0.0,0.0,0.0,0.0,0.0,0.0,0.0,0.0,0.0,0.0,0.0,0.0,0.0,0.0,0.0,0.0,0.0,0.0,0.0,0.0,0.0,0.0,0.0,0.0,0.0,0.0,0.0,0.0,0.0,0.0,0.0,0.0,0.0,0.0,0.0,0.0,0.0,0.0,0.0,0.0,0.0,0.0,0.0,0.0,0.0,0.0,0.0,0.0,0.0,0.0,0.0,0.0,0.0,0.0,0.0,0.0,0.0,0.0,0.0,0.0,0.0,0.0,0.0,0.0,0.0,0.0,0.0,0.0,0.0,0.0,0.0,0.0,0.0,0.0,0.0,0.0,0.0,0.0,0.0,0.0,0.0,0.0,0.0,0.0,0.0,0.0,0.0,0.0,0.0,0.0,0.0,0.0,0.0,0.0,0.0,0.0,0.0,0.0,0.0,0.0,0.0,0.0,0.0,0.0,0.0,0.0,0.0,0.0,0.0,0.0,0.0,0.0,0.0,0.0,0.0,0.0,0.0,0.0,0.0,0.0,0.0,0.0,0.0,0.0,0.0,0.0,0.0,0.0,0.0,0.0,0.0,0.0,0.0,0.0,0.0,0.0,0.0,0.0,0.0,0.0,0.0,0.0,0.0,0.0,0.0,0.0,0.0,0.0,0.0,0.0,0.0,0.0,0.0,0.0,0.0,0.0,0.0,0.0,0.0,0.0,0.0,0.0,0.0,0.0,0.0,0.0,0.0,0.0,0.0,0.0,0.0,0.0,0.0,0.0,0.0,0.0,0.0,0.0,0.0,0.0,0.0,0.0,0.0,0.0,0.0,0.0,0.0,0.0,0.0,0.0,0.0,0.0,0.0,0.0,0.0,0.0,0.0,0.0,0.0,0.0,0.0,0.0,0.0,0.0,0.0,0.0,0.0,0.0,0.0,0.0,0.0,0.0,0.0,0.0,0.0,0.0,0.0,0.0,0.0,0.0,0.0,0.0,0.0,0.0,0.0,0.0,0.0,0.0,0.0,0.0,0.0,0.0,0.0,0.0,0.0,0.0,0.0,0.0,0.0,0.0,0.0,0.0,0.0,0.0,0.0,0.0,0.0,0.0,0.0,0.0,0.0,0.0,0.0,0.0,0.0,0.0,0.0,0.0,0.0,0.0,0.0,0.0,0.0,0.0,0.0,0.0,0.0,0.0,0.0,0.0,0.0,0.0,0.0,0.0,0.0,0.0,0.0,0.0,0.0,0.0,0.0,0.0,0.0,0.0,0.0,0.0,0.0,0.0,0.0,0.0,0.0,0.0,0.0,0.0,0.0,0.0,0.0,0.0,0.0,0.0,0.0,0.0,0.0,0.0,0.0,0.0,0.0,0.0,0.0,0.0,0.0,0.0,0.0,0.0,0.0,0.0,0.0,0.0,0.0,0.0,0.0,0.0,0.0,0.0,0.0,0.0,0.0,0.0,0.0,0.0,0.0,0.0,0.0,0.0,0.0,0.0,0.0,0.0,0.0,0.0,0.0,0.0,0.0,0.0,0.0,0.0,0.0,0.0,0.0,0.0,0.0,0.0,0.0,0.0,0.0,0.0,0.0,0.0,0.0,0.0,0.0,0.0,0.0,0.0,0.0,0.0,0.0,0.0,0.0,0.0,0.0,0.0,0.0,0.0,0.0,0.0,0.0,0.0,0.0,0.0,0.0,0.0,0.0,0.0,0.0,0.0,0.0,0.0,0.0,0.0,0.0,0.0,0.0,0.0,0.0,0.0,0.0,0.0,0.0,0.0,0.0,0.0,0.0,0.0,0.0,0.0,0.0,0.0,0.0,0.0,0.0,0.0,0.0,0.0,0.0,0.0,0.0,0.0,0.0,0.0,0.0,0.0,0.0,0.0,0.0,0.0,0.0,0.0,0.0,0.0,0.0,0.0,0.0,0.0,0.0,0.0,0.0,0.0,0.0,0.0,0.0,0.0,0.0,0.0,0.0,0.0,0.0,0.0,0.0,0.0,0.0,0.0,0.0,0.0,0.0,0.0,0.0,0.0,0.0,0.0,0.0,0.0,0.0,0.0,0.0,0.0,0.0,0.0,0.0,0.0,0.0,0.0,0.0,0.0,0.0,0.0,0.0,0.0,0.0,0.0,0.0,0.0,0.0,0.0,0.0,0.0,0.0,0.0,0.0,0.0,0.0,0.0,0.0,0.0,0.0,0.0,0.0,0.0,0.0,0.0,0.0,0.0,0.0,0.0,0.0,0.0,0.0,0.0,0.0,0.0,0.0,0.0,0.0,0.0,0.0,0.0,0.0,0.0,0.0,0.0,0.0,0.0,0.0,0.0,0.0,0.0,0.0,0.0,0.0,0.0,0.0,0.0,0.0,0.0,0.0,0.0,0.0,0.0,0.0,0.0,0.0,0.0,0.0,0.0,0.0,0.0,0.0,0.0,0.0,0.0,0.0,0.0,0.0,0.0,0.0,0.0,0.0,0.0,0.0,0.0,0.0,0.0,0.0,0.0,0.0,0.0,0.0,0.0,0.0,0.0,0.0,0.0,0.0,0.0,0.0,0.0,0.0,0.0,0.0,0.0,0.0,0.0,0.0,0.0,0.0,0.0,0.0,0.0,0.0,0.0,0.0,0.0,0.0,0.0,0.0,0.0,0.0,0.0,0.0,0.0,0.0,0.0,0.0,0.0,0.0,0.0,0.0,0.0,0.0,0.0,0.0,0.0,0.0,0.0,0.0,0.0,0.0,0.0,0.0,0.0,0.0,0.0,0.0,0.0,0.0,0.0,0.0,0.0,0.0,0.0,0.0,0.0,0.0,0.0,0.0,0.0,0.0,0.0,0.0,0.0,0.0,0.0,0.0,0.0,0.0,0.0,0.0,0.0,0.0,0.0,0.0,0.0,0.0,0.0,0.0,0.0,0.0,0.0,0.0,0.0,0.0,0.0,0.0,0.0,0.0,0.0,0.0,0.0,0.0,0.0,0.0,0.0,0.0,0.0,0.0,0.0,0.0,0.0,0.0,0.0,0.0,0.0,0.0,0.0,0.0,0.0,0.0,0.0,0.0,0.0,0.0,0.0,0.0,0.0,0.0,0.0,0.0,0.0,0.0,0.0,0.0,0.0,0.0,0.0,0.0,0.0,0.0,0.0,0.0,0.0,0.0,0.0,0.0,0.0,0.0,0.0,0.0,0.0,0.0,0.0,0.0,0.0,0.0,0.0,0.0,0.0,0.0,0.0,0.0,0.0,0.0,0.0,0.0,0.0,0.0,0.0,0.0,0.0,0.0,0.0,0.0,0.0,0.0,0.0,0.0,0.0,0.0,0.0,0.0,0.0,0.0,0.0,0.0,0.0,0.0,0.0,0.0,0.0,0.0,0.0,0.0,0.0,0.0,0.0,0.0,0.0,0.0,0.0,0.0,0.0,0.0,0.0,0.0,0.0,0.0,0.0,0.0,0.0,0.0,0.0,0.0,0.0,0.0,0.0,0.0,0.0,0.0,0.0,0.0,0.0,0.0,0.0,0.0,0.0,0.0,0.0,0.0,0.0,0.0,0.0,0.0,0.0,0.0,0.0,0.0,0.0,0.0,0.0,0.0,0.0,0.0,0.0,0.0,0.0,0.0,0.0,0.0,0.0,0.0,0.0,0.0,0.0,0.0,0.0,0.0,0.0,0.0,0.0,0.0,0.0,0.0,0.0,0.0,0.0,0.0,0.0,0.0,0.0,0.0,0.0,0.0,0.0,0.0,0.0,0.0,0.0,0.0,0.0,0.0,0.0,0.0,0.0,0.0,0.0,0.0,0.0,0.0,0.0,0.0,0.0,0.0,0.0,0.0,0.0,0.0,0.0,0.0,0.0,0.0,0.0,0.0,0.0,0.0,0.0,0.0,0.0,0.0,0.0,0.0,0.0,0.0,0.0,0.0,0.0,0.0,0.0,0.0,0.0,0.0,0.0,0.0,0.0,0.0,0.0,0.0,0.0,0.0,0.0,0.0,0.0,0.0,0.0,0.0,0.0,0.0,0.0,0.0,0.0,0.0,0.0,0.0,0.0,0.0,0.0,0.0,0.0,0.0,0.0,0.0,0.0,0.0,0.0,0.0,0.0,0.0,0.0,0.0,0.0,0.0,0.0,0.0,0.0,0.0,0.0,0.0,0.0,0.0,0.0,0.0,0.0,0.0,0.0,0.0,0.0,0.0,0.0,0.0,0.0,0.0,0.0,0.0,0.0,0.0,0.0,0.0,0.0,0.0,0.0,0.0,0.0,0.0,0.0,0.0,0.0,0.0,0.0,0.0,0.0,0.0,0.0,0.0,0.0,0.0,0.0,0.0,0.0,0.0,0.0,0.0,0.0,0.0,0.0,0.0,0.0,0.0,0.0,0.0,0.0,0.0,0.0,0.0,0.0,0.0,0.0,0.0,0.0,0.0,0.0,0.0,0.0,0.0,0.0,0.0,0.0,0.0,0.0,0.0,0.0,0.0,0.0,0.0,0.0,0.0,0.0,0.0,0.0,0.0,0.0,0.0,0.0,0.0,0.0,0.0,0.0,0.0,0.0,0.0,0.0,0.0,0.0,0.0,0.0,0.0,0.0,0.0,0.0,0.0,0.0,0.0,0.0,0.0,0.0,0.0,0.0,0.0,0.0,0.0,0.0,0.0,0.0,0.0,0.0,0.0,0.0,0.0,0.0,0.0,0.0,0.0,0.0,0.0,0.0,0.0,0.0,0.0,0.0,0.0,0.0,0.0,0.0,0.0,0.0,0.0,-2.6291,0.0,0.0,0.0,0.0,0.0,0.0,0.0,0.0,0.0,0.0,0.0,0.0,0.0,0.0,0.0,0.0,0.0,0.0,0.0,0.0,0.0,0.0,0.0,0.0,0.0,0.0,0.0,0.0,0.0,0.0,0.0,0.0,0.0,0.0,0.0,0.0,0.0,0.0,0.0,-3.2824,-3.3349,-3.4043,-3.3416,-3.218,-3.0511,0.0,0.0,0.0,0.0,0.0,0.0,0.0,0.0,0.0,0.0,0.0,0.0,0.0,0.0,0.0,0.0,0.0,0.0,0.0,0.0,0.0,0.0,0.0,0.0,0.0,0.0,0.0,0.0,0.0,0.0,0.0,0.0,0.0,0.0,0.0,0.0,0.0,0.0,0.0,0.0,0.0,0.0,0.0,0.0,0.0,0.0,0.0,0.0,0.0,0.0,0.0,0.0,0.0,0.0,0.0,0.0,0.0,0.0,0.0,0.0,0.0,0.0,0.0,0.0,0.0,0.0,0.0,0.0,0.0,0.0,0.0,-2.721,0.0,0.0,0.0,0.0,0.0,0.0,0.0,0.0,0.0,0.0,0.0,0.0,0.0,0.0,0.0,0.0,0.0,0.0,0.0,0.0,0.0,0.0,0.0,0.0,0.0,0.0,0.0,0.0,0.0,0.0,0.0,0.0,0.0,0.0,0.0,0.0,0.0,0.0,-3.4623,-3.5863,-3.7243,-3.7524,-3.5907,-3.2866,-3.3636,0.0,0.0,0.0,0.0,0.0,0.0,0.0,0.0,0.0,0.0,0.0,0.0,0.0,0.0,0.0,0.0,0.0,0.0,0.0,0.0,0.0,0.0,0.0,0.0,0.0,0.0,0.0,0.0,0.0,0.0,0.0,0.0,0.0,0.0,0.0,0.0,0.0,0.0,0.0,0.0,0.0,0.0,0.0,0.0,0.0,0.0,0.0,0.0,0.0,0.0,0.0,0.0,0.0,0.0,0.0,0.0,0.0,0.0,0.0,0.0,0.0,0.0,0.0,0.0,-3.4138,-3.4279,-3.3316,-3.3281,-3.3855,-3.0743,-2.9148,-2.8676,0.0,0.0,0.0,0.0,0.0,0.0,0.0,0.0,0.0,0.0,0.0,0.0,0.0,0.0,0.0,0.0,0.0,0.0,0.0,0.0,0.0,0.0,0.0,0.0,0.0,0.0,0.0,0.0,0.0,0.0,0.0,0.0,0.0,0.0,-3.3857,-3.4321,-3.5188,-3.7387,-3.8925,-3.987,-4.1934,-4.1775,-3.9664,-3.7384,-3.5901,-3.5044,0.0,0.0,0.0,0.0,0.0,0.0,0.0,0.0,0.0,0.0,0.0,0.0,0.0,0.0,0.0,0.0,0.0,0.0,0.0,0.0,0.0,0.0,0.0,0.0,0.0,0.0,0.0,0.0,0.0,0.0,0.0,0.0,0.0,0.0,0.0,0.0,0.0,0.0,0.0,0.0,0.0,-2.8315,-2.9853,0.0,0.0,0.0,0.0,0.0,0.0,0.0,0.0,0.0,0.0,0.0,0.0,0.0,0.0,-3.4941,-3.6493,-3.7659,-3.8388,-3.7756,-3.7889,-3.8615,-3.7059,-3.6415,-3.6417,-3.4561,0.0,-3.0409,-2.9538,0.0,0.0,0.0,0.0,0.0,0.0,0.0,0.0,0.0,0.0,0.0,0.0,0.0,0.0,0.0,0.0,0.0,0.0,0.0,0.0,0.0,0.0,0.0,0.0,0.0,0.0,0.0,0.0,0.0,0.0,0.0,0.0,0.0,-3.4542,-3.5914,-3.8141,-4.0168,-4.2058,-4.3825,-4.5282,-4.579,-4.5357,-4.387,-4.116,-3.7653,-3.6713,0.0,0.0,0.0,0.0,0.0,0.0,0.0,0.0,0.0,0.0,0.0,0.0,0.0,0.0,0.0,0.0,0.0,0.0,0.0,0.0,0.0,0.0,0.0,0.0,0.0,0.0,0.0,0.0,0.0,0.0,0.0,0.0,0.0,0.0,0.0,0.0,0.0,0.0,0.0,-2.8173,-2.876,-3.0044,-2.9115,-2.8363,0.0,0.0,0.0,0.0,0.0,0.0,0.0,0.0,0.0,-3.662,-3.7815,-3.887,-3.9815,-4.1036,-4.1827,-4.222,-4.1808,-4.1849,-4.2193,-4.0527,-3.9518,-3.9004,-3.7856,-3.619,-3.4075,-3.1347,-2.9798,-2.9048,0.0,0.0,0.0,0.0,0.0,-2.7088,0.0,0.0,0.0,0.0,0.0,0.0,0.0,0.0,0.0,0.0,0.0,0.0,0.0,0.0,0.0,-3.9595,0.0,0.0,0.0,0.0,0.0,0.0,0.0,0.0,-3.4305,-3.5776,-3.8038,-4.1095,-4.3055,-4.518,-4.7426,-4.8617,-4.9378,-4.9731,-4.98,-4.6502,-4.0818,-4.0148,-3.7882,-3.4594,0.0,0.0,0.0,0.0,0.0,0.0,0.0,0.0,0.0,0.0,0.0,0.0,0.0,0.0,0.0,0.0,0.0,0.0,0.0,0.0,0.0,0.0,0.0,0.0,0.0,0.0,0.0,0.0,0.0,0.0,0.0,0.0,0.0,0.0,0.0,0.0,0.0,-2.9205,-2.9629,-3.0999,-3.0216,-2.972,0.0,0.0,0.0,0.0,0.0,0.0,-3.5602,-3.6791,-3.8658,-4.1357,-4.1936,-4.2818,-4.4061,-4.4917,-4.5359,-4.534,-4.5148,-4.5049,-4.4985,-4.33,-4.2097,-4.1287,-4.0249,-3.8982,-3.7356,-3.3591,-3.1799,-3.1256,-2.9754,-2.9067,-2.8891,-2.8664,-2.8596,-2.8486,0.0,0.0,0.0,0.0,0.0,0.0,0.0,0.0,0.0,0.0,0.0,0.0,0.0,0.0,-4.1562,-4.4057,-4.5002,-4.4754,0.0,0.0,0.0,0.0,0.0,0.0,-3.5128,-3.8243,-4.1058,-4.3531,-4.6087,-4.8194,-4.988,-5.2345,-5.3031,-5.2287,-5.3662,-5.0971,-4.5258,-4.3314,-4.0164,-3.6252,-3.3824,0.0,0.0,0.0,0.0,0.0,0.0,0.0,0.0,0.0,0.0,0.0,0.0,0.0,0.0,0.0,0.0,0.0,0.0,0.0,0.0,0.0,0.0,0.0,0.0,0.0,0.0,0.0,0.0,0.0,0.0,0.0,0.0,0.0,0.0,0.0,0.0,0.0,0.0,-3.3509,-3.2306,0.0,0.0,0.0,0.0,-3.4806,-3.5763,-3.7368,-3.9949,-4.1696,-4.3047,-4.3979,-4.5675,-4.6624,-4.6721,-4.7509,-4.7913,-4.7894,-4.7144,-4.6778,-4.6721,-4.5032,-4.384,-4.298,-4.1349,-4.0153,-3.9172,-3.6542,-3.452,-3.2997,-3.2142,-3.1316,-3.0477,-2.9642,-2.9373,-2.9322,0.0,0.0,0.0,0.0,0.0,0.0,0.0,0.0,0.0,0.0,0.0,0.0,0.0,-4.2118,-4.5085,-4.7084,-4.7937,-4.7169,-4.4291,0.0,0.0,0.0,0.0,0.0,0.0,-4.093,-4.3575,-4.6007,-4.9104,-5.1192,-5.2282,-5.4245,-5.5025,-5.4786,-5.5191,-5.3566,-5.0316,-4.7184,-4.373,-4.014,-3.7131,-3.4508,0.0,0.0,0.0,0.0,0.0,0.0,0.0,0.0,0.0,0.0,0.0,0.0,0.0,0.0,0.0,0.0,0.0,0.0,0.0,0.0,0.0,0.0,0.0,0.0,0.0,0.0,0.0,0.0,0.0,0.0,0.0,0.0,0.0,0.0,0.0,0.0,0.0,-3.6061,-3.5821,0.0,0.0,-3.7521,-3.775,-3.9191,-4.0586,-4.2049,-4.3542,-4.4739,-4.6033,-4.7434,-4.8116,-4.8721,-4.9336,-4.9625,-4.949,-4.8933,-4.8086,-4.7413,-4.6855,-4.5699,-4.4427,-4.3107,-4.2506,-4.147,-4.0086,-3.8614,-3.7052,-3.55,-3.4647,-3.3817,-3.3041,-3.2776,-3.2338,-3.1688,0.0,0.0,0.0,0.0,0.0,0.0,0.0,0.0,0.0,0.0,0.0,-3.7125,-4.0772,-4.5198,-4.8553,-5.0239,-5.0837,-4.9636,-4.6137,0.0,0.0,0.0,-3.7491,0.0,0.0,-4.3754,-4.6379,-4.8898,-5.1682,-5.3455,-5.4303,-5.5655,-5.6346,-5.6427,-5.6571,-5.5772,-5.4151,-5.0991,-4.7222,-4.3086,-4.0009,-3.7202,-3.4615,0.0,0.0,0.0,0.0,0.0,0.0,0.0,0.0,0.0,0.0,0.0,0.0,0.0,0.0,0.0,0.0,0.0,0.0,0.0,0.0,0.0,0.0,0.0,0.0,0.0,0.0,0.0,0.0,0.0,0.0,0.0,0.0,0.0,0.0,0.0,-3.6593,-3.948,-3.9833,-4.0616,-4.2631,-4.2555,-4.287,-4.3978,-4.5385,-4.6439,-4.7012,-4.7888,-4.8773,-4.9629,-4.9728,-5.0037,-5.0663,-5.0414,-4.9971,-4.9394,-4.824,-4.7432,-4.6865,-4.5682,-4.4412,-4.3085,-4.2797,-4.187,-4.0515,-3.993,-3.9075,-3.8003,-3.6887,-3.6124,-3.559,-3.5069,-3.452,-3.3755,0.0,0.0,0.0,0.0,0.0,0.0,0.0,0.0,0.0,0.0,-3.486,-3.902,-4.3303,-4.823,-5.1869,-5.3556,-5.3688,-5.2172,-4.8645,-4.5203,0.0,0.0,0.0,0.0,-4.3486,-4.6669,-4.9546,-5.2068,-5.3734,-5.5012,-5.5837,-5.6722,-5.7134,-5.7171,-5.7873,-5.7602,-5.6475,-5.4576,-5.0475,-4.4964,-4.2318,-3.9379,-3.6328,0.0,0.0,0.0,0.0,0.0,0.0,0.0,0.0,0.0,0.0,0.0,0.0,0.0,0.0,0.0,0.0,0.0,0.0,0.0,0.0,0.0,0.0,0.0,0.0,0.0,0.0,0.0,0.0,0.0,0.0,0.0,0.0,0.0,-3.6305,-3.7917,-4.0395,-4.3786,-4.4197,-4.5191,-4.7712,-4.7169,-4.7379,-4.9091,-4.9939,-5.0378,-5.0378,-5.122,-5.1312,-5.0459,-5.054,-5.0593,-5.0593,-4.9808,-4.9375,-4.9336,-4.7702,-4.6885,-4.6788,-4.5086,-4.3855,-4.3047,-4.2181,-4.1316,-4.0496,-4.0496,-4.0496,-4.035,-3.8772,-3.8164,-3.7938,-3.6278,-3.5662,-3.5296,0.0,0.0,0.0,0.0,0.0,0.0,0.0,0.0,0.0,0.0,-3.4823,-3.9456,-4.4914,-4.8932,-5.1869,-5.3556,-5.312,-5.1036,-4.696,0.0,0.0,0.0,0.0,0.0,-4.6662,-4.9409,-5.1718,-5.3609,-5.5313,-5.6297,-5.6555,-5.7371,-5.7802,-5.791,-5.8019,-5.7515,-5.6548,-5.5716,-5.3291,-4.9685,-4.5994,-4.2902,-4.0293,0.0,0.0,0.0,0.0,0.0,0.0,0.0,0.0,0.0,0.0,0.0,0.0,0.0,0.0,0.0,0.0,0.0,0.0,0.0,0.0,0.0,0.0,0.0,0.0,0.0,0.0,0.0,0.0,0.0,0.0,0.0,0.0,-3.9461,-3.9618,-4.2322,-4.5308,-4.8166,-4.8548,-4.9328,-5.1238,-5.0684,-5.0646,-5.1697,-5.1983,-5.2098,-5.2098,-5.1804,-5.1534,-5.135,-5.076,-5.0478,-5.0521,-4.9729,-4.9009,-4.8375,-4.7375,-4.6567,-4.5913,-4.4816,-4.3855,-4.3047,-4.2181,-4.1316,-4.0496,-4.0496,-4.0496,-4.0458,-4.0019,-3.9487,-3.8847,-3.7751,-3.6215,-3.458,0.0,0.0,0.0,0.0,0.0,0.0,0.0,0.0,0.0,0.0,-3.4908,-3.9656,-4.4118,-4.823,-5.1054,-5.2021,-5.1338,-4.9313,-4.5695,0.0,0.0,0.0,0.0,-4.5729,-4.9385,-5.158,-5.3511,-5.5208,-5.691,-5.7579,-5.7317,-5.8125,-5.8373,-5.8111,-5.8042,-5.7629,-5.6966,-5.6285,-5.495,-5.2977,-4.9561,-4.628,-4.3275,-4.1395,-3.9213,-3.704,-3.6328,-3.5543,-3.4864,-3.4864,0.0,0.0,0.0,0.0,0.0,0.0,0.0,0.0,0.0,0.0,0.0,0.0,0.0,0.0,0.0,0.0,0.0,0.0,0.0,0.0,0.0,0.0,0.0,0.0,-4.0542,-4.3416,-4.5157,-4.6798,-4.865,-5.0964,-5.1604,-5.2386,-5.376,-5.3473,-5.3397,-5.3855,-5.3894,-5.3722,-5.3359,-5.2556,-5.1957,-5.1667,-5.083,-5.0232,-4.9931,-4.914,-4.8326,-4.7492,-4.6694,-4.6068,-4.5575,-4.4701,-4.4047,0.0,-4.2316,-4.1508,-4.1008,-4.065,-4.0496,0.0,0.0,0.0,0.0,0.0,-3.6863,-3.5206,0.0,0.0,0.0,0.0,0.0,0.0,0.0,0.0,0.0,0.0,0.0,-3.9334,-4.2109,-4.6468,-4.9248,-4.9343,-4.8604,-4.7023,0.0,0.0,0.0,-4.4637,-4.6299,-4.8621,-5.1678,-5.3335,-5.4997,-5.6703,-5.8152,-5.8553,-5.7992,-5.8707,-5.8694,-5.7997,-5.8088,-5.793,-5.7546,-5.666,-5.588,-5.5018,-5.2677,-4.9408,-4.5764,-4.4254,-4.2296,-4.0237,-3.9553,-3.8808,-3.813,-3.813,0.0,0.0,0.0,0.0,0.0,0.0,0.0,0.0,0.0,0.0,0.0,0.0,0.0,0.0,0.0,0.0,0.0,0.0,0.0,0.0,0.0,0.0,0.0,0.0,-4.3972,-4.7937,-5.1395,-5.1168,-5.1309,-5.304,-5.3842,-5.4606,-5.5434,-5.5524,-5.5498,-5.5422,-5.5479,-5.5154,-5.4295,0.0,0.0,0.0,0.0,-4.9885,-4.9119,-4.8264,-4.7491,-4.6781,-4.5908,-4.5522,-4.5566,-4.4692,-4.4297,-4.4201,-4.2624,-4.1885,-4.1731,-4.0969,-4.0593,-4.0496,-4.0496,-4.0439,-4.0169,-3.8584,-3.745,-3.6469,0.0,0.0,0.0,0.0,0.0,0.0,0.0,0.0,0.0,-3.0663,-3.3676,-3.7353,-4.192,-4.391,-4.516,-4.5805,-4.5122,-4.3731,0.0,0.0,-4.3312,-4.5388,-4.8134,-5.0769,-5.3233,-5.4905,-5.6231,-5.7243,-5.777,-5.798,-5.7839,-5.8115,-5.8143,-5.8033,-5.8694,-5.8509,-5.7781,-5.7883,-5.6941,-5.5222,-5.3798,-5.1529,-4.8821,-4.6873,-4.5049,-4.3436,-4.2795,-4.2073,-4.1397,-4.1397,-4.0324,-3.8825,-3.7933,0.0,0.0,0.0,0.0,0.0,0.0,0.0,0.0,0.0,0.0,0.0,0.0,0.0,0.0,0.0,0.0,0.0,0.0,0.0,0.0,-4.4685,-4.7915,-5.091,-5.3751,-5.4911,-5.5718,-5.6414,-5.6202,-5.6085,-5.627,-5.6338,-5.6091,-5.546,-5.5995,-5.6014,-5.5193,-5.3664,0.0,-5.2575,-5.0466,-4.9274,-4.9102,-4.7627,-4.6797,-4.6635,0.0,0.0,-4.5494,-4.4668,-4.4301,-4.4239,-4.3278,-4.245,-4.1788,-4.1623,-4.1123,-4.0496,-4.0496,-4.0092,-3.9419,-3.8373,-3.745,-3.6558,0.0,0.0,0.0,0.0,0.0,0.0,0.0,0.0,0.0,0.0,-3.2501,-3.542,-3.8338,-3.9778,-4.0707,-4.1105,-4.1158,0.0,0.0,-4.2973,-4.5057,-4.7535,-5.0149,-5.2409,-5.4255,-5.5487,-5.6539,-5.7388,-5.8002,-5.8324,-5.8414,-5.8935,-5.9208,-5.9226,-5.963,-5.9504,-5.8993,-5.9016,-5.8059,-5.6456,-5.4782,-5.3072,-5.1262,-4.872,-4.6778,-4.528,-4.4325,-4.3487,-4.2739,-4.2391,-4.177,-4.0895,-3.9736,-3.7737,-3.5453,0.0,0.0,0.0,0.0,0.0,0.0,0.0,0.0,0.0,0.0,0.0,0.0,0.0,0.0,-3.8251,0.0,0.0,-4.5057,-4.7928,-5.0654,-5.3198,-5.5478,-5.6231,-5.659,-5.6692,-5.6553,-5.6286,-5.5875,-5.5937,-5.5823,-5.5441,-5.5766,-5.5632,-5.4791,-5.3511,-5.2614,-5.2212,-5.0168,-4.8888,-4.8449,-4.7191,-4.6362,-4.5991,-4.5581,-4.541,-4.5448,-4.5035,-4.4862,-4.4803,-4.3997,-4.3152,-4.2288,-4.1487,-4.0896,-4.0496,-4.0496,-4.0246,-3.9804,-3.895,-3.8104,-3.7296,0.0,0.0,0.0,0.0,0.0,0.0,0.0,0.0,0.0,0.0,-3.1099,-3.3335,-3.4301,-3.5761,-3.6727,0.0,0.0,0.0,0.0,-4.4173,-4.6837,-4.9746,-5.2087,-5.3882,-5.5136,-5.5873,-5.6586,-5.7363,-5.8184,-5.8708,-5.8969,-5.9797,-6.0254,-6.0419,-6.0566,-6.0499,-6.0207,-5.9942,-5.906,-5.763,-5.5472,-5.4028,-5.2811,-4.9794,-4.7787,-4.6458,-4.4994,-4.3965,-4.3205,-4.2513,-4.2308,-4.2055,-4.0788,-3.92,-3.7452,-3.5578,-3.3544,0.0,0.0,0.0,0.0,0.0,0.0,0.0,0.0,0.0,-3.8187,-4.0129,-4.1176,-4.2513,-4.5015,-4.7189,-4.9166,-5.076,-5.2936,-5.4967,-5.6557,-5.6594,-5.6332,-5.5927,-5.6148,-5.6102,-5.5481,-5.5529,-5.5562,-5.5409,-5.5536,-5.5174,-5.4142,-5.3263,-5.2422,-5.1639,-4.9805,-4.8506,-4.7807,-4.6787,-4.5967,-4.5388,-4.5388,-4.5399,-4.541,-4.541,-4.54,-4.5362,-4.4557,-4.3713,-4.2783,-4.134,-4.0633,-4.05,-4.05,-4.0508,-4.04,-3.9611,-3.8854,-3.8238,0.0,0.0,0.0,0.0,0.0,0.0,0.0,0.0,0.0,0.0,0.0,0.0,0.0,0.0,0.0,0.0,0.0,0.0,-4.0748,-4.4404,-4.7774,-5.0728,-5.3586,-5.54,-5.6043,-5.672,-5.7123,-5.7213,-5.7571,-5.8112,-5.8829,-5.9181,-5.9722,-6.0438,-6.1153,-6.1062,-6.0408,-6.0576,-5.9645,-5.7792,-5.5527,-5.3925,-5.2606,-4.951,-4.7969,-4.7199,-4.5212,-4.3987,-4.3191,-4.2534,-4.2308,-4.2272,-4.2093,-4.0485,-3.8611,-3.8343,0.0,-3.29,-3.3526,-3.4133,-3.4562,-3.4651,-3.6506,-3.8451,0.0,0.0,-4.2412,-4.4764,-4.601,-4.7457,-4.9857,-5.1235,-5.248,-5.411,-5.5263,-5.6108,-5.6561,-5.69,-5.6693,-5.5601,-5.5859,-5.6166,-5.6255,-5.6319,-5.612,-5.5447,-5.6052,-5.5766,-5.418,-5.3263,-5.2422,-5.1639,-4.9232,-4.7903,-4.7788,-4.6233,-4.5383,-4.5307,-4.5307,-4.5338,-4.5399,-4.5399,-4.54,-4.5362,-4.4557,-4.3713,-4.284,-4.1939,-4.114,-4.0491,-4.0491,-4.0495,-4.04,-3.9611,-3.9246,-3.9034,0.0,0.0,0.0,0.0,0.0,0.0,0.0,0.0,0.0,0.0,0.0,0.0,0.0,0.0,0.0,0.0,0.0,0.0,-3.995,-4.419,-4.7767,-5.0361,-5.3716,-5.5555,-5.5616,-5.6825,-5.7388,-5.7332,-5.7601,-5.8379,-5.9621,-5.981,-6.0584,-6.1814,-6.2163,-6.2126,-6.1746,-6.1171,-6.0069,-5.8484,-5.5771,-5.3774,-5.2043,-4.8863,-4.6473,-4.4654,-4.3435,-4.2193,0.0,0.0,-4.0146,-4.0824,-4.0396,-3.9878,-3.9253,-3.8362,-3.6595,0.0,-3.5346,-3.6363,0.0,0.0,-4.0431,-4.2519,-4.375,-4.5271,-4.6976,-4.9018,-5.0203,-5.1207,-5.2305,-5.3598,-5.4617,0.0,-5.597,-5.6709,-5.6494,-5.5967,-5.5301,-5.4615,-5.4046,-5.402,-5.48,-5.4526,-5.4167,-5.3849,-5.4174,-5.3874,-5.2709,-5.2308,-5.1716,-5.0875,-4.9366,-4.8315,-4.7788,-4.6596,-4.5755,-4.5307,-4.5307,-4.5317,-4.5338,-4.5338,-4.5329,-4.5292,-4.444,-4.3905,-4.3532,-4.2689,-4.1902,-4.1189,-4.1189,-4.0916,-4.0457,-4.0123,-3.9708,-3.9304,0.0,0.0,0.0,0.0,0.0,0.0,0.0,0.0,0.0,0.0,0.0,0.0,0.0,0.0,0.0,0.0,0.0,0.0,0.0,-4.3503,-4.7215,-5.0005,-5.3232,-5.5177,-5.5615,-5.6695,-5.7334,-5.7455,-5.7697,-5.8505,-5.9877,-5.9999,-6.0823,-6.2144,-6.2144,-6.2144,-6.2083,-6.112,-5.9903,-5.8376,-5.5855,-5.3578,-5.132,-4.8076,-4.5023,-4.2324,-4.1315,-3.9808,0.0,0.0,-3.7327,-3.8504,-3.7969,-3.8344,-3.8719,-3.7594,-3.7006,-3.6774,-3.7006,0.0,0.0,-4.2019,-4.4178,-4.6337,-4.7925,-4.9156,-5.0448,-5.2112,-5.2709,-5.3019,-5.3393,-5.4453,0.0,-5.4653,-5.5685,-5.6357,-5.5775,-5.4722,-5.3875,-5.3534,-5.2107,-5.155,-5.2494,-5.2629,-5.2666,-5.2705,-5.2755,-5.2417,-5.1627,-5.1589,-5.12,-5.034,-4.9519,-4.8793,-4.8162,-4.7054,-4.6214,-4.5621,-4.5411,-4.5307,-4.5307,-4.5307,-4.5307,-4.5258,-4.4628,-4.4247,-4.401,-4.3378,-4.269,-4.1989,-4.1759,-4.1325,-4.0792,-4.0556,-4.0127,-3.9708,0.0,0.0,0.0,0.0,0.0,0.0,0.0,0.0,0.0,0.0,0.0,0.0,0.0,0.0,0.0,0.0,0.0,0.0,0.0,-4.2203,-4.61,-5.0018,-5.2225,-5.443,-5.6689,-5.6551,-5.6835,-5.7601,-5.7721,-5.8231,-5.9054,-5.9174,-5.9661,-6.0474,-6.0474,-6.0474,-6.045,-6.0163,-5.8889,-5.6941,-5.5571,-5.3334,-5.0495,-4.7254,-4.4176,-4.1275,-3.9226,0.0,0.0,0.0,-3.4062,-3.5329,-3.5311,-3.5864,0.0,-3.6453,-3.697,0.0,0.0,0.0,-4.3711,-4.5267,-4.7426,-4.9561,-5.1191,-5.1583,-5.2065,-5.3635,-5.2863,-5.2232,-5.3145,-5.3447,-5.3628,-5.3724,-5.4436,-5.4719,-5.3966,-5.3411,-5.2873,-5.249,-5.0468,-4.92,0.0,-5.1348,-5.2561,-5.2692,-5.2705,-5.2387,-5.1646,-5.1589,-5.12,-5.034,-4.9519,-4.9091,-4.9071,-4.736,-4.65,-4.6462,-4.566,-4.5307,-4.5307,-4.5307,-4.5307,-4.5307,-4.5269,-4.4781,-4.3987,-4.3968,-4.3493,-4.268,-4.1915,-4.1636,-4.1566,-4.0703,-4.0436,-4.0477,0.0,0.0,0.0,0.0,0.0,0.0,0.0,0.0,0.0,0.0,0.0,0.0,0.0,0.0,0.0,0.0,0.0,0.0,0.0,-3.9696,-4.3146,-4.6094,-4.8751,-5.1018,-5.2849,-5.3292,-5.3822,-5.4537,-5.4671,-5.5434,-5.6736,-5.6781,-5.7519,-5.8804,-5.8804,-5.8804,-5.8749,-5.7481,-5.6394,-5.5304,-5.2574,-5.01,-4.7664,-4.4495,-4.0993,-3.7523,0.0,0.0,0.0,-3.1785,-3.201,-3.2973,-3.3508,-3.4222,0.0,-3.6738,-3.8112,-3.9539,0.0,0.0,-4.632,-4.8407,-5.0316,-5.1958,-5.2993,-5.3242,-5.3082,-5.2582,-5.2173,-5.1358,-4.9577,-5.0266,-5.0967,-5.0525,-5.2054,-5.3233,-5.3022,-5.2466,-5.1901,-5.1463,-4.9861,0.0,0.0,0.0,0.0,-4.9863,-5.0044,-5.0272,-5.0589,-5.0657,-5.0548,-5.0243,-5.0011,-4.9633,-4.911,-4.7888,-4.7026,-4.6503,-4.5581,-4.517,-4.517,-4.517,-4.517,-4.517,-4.517,-4.5039,-4.4804,-4.4804,-4.431,-4.3578,-4.3311,-4.2556,-4.1608,-4.1301,-4.0858,-4.0447,0.0,0.0,0.0,0.0,0.0,0.0,0.0,0.0,0.0,0.0,0.0,0.0,0.0,0.0,0.0,0.0,0.0,0.0,0.0,0.0,-4.0253,-4.237,-4.4988,-4.7149,-4.8715,-4.9172,-4.9881,-5.0879,-5.102,-5.1926,-5.3508,-5.3511,-5.4231,-5.5518,-5.5518,-5.5518,-5.5423,-5.4268,-5.324,-5.2173,-4.9839,-4.7335,-4.4756,-4.2076,-3.8795,0.0,0.0,0.0,0.0,-3.0089,-3.0404,-3.1403,-3.2222,-3.3598,-3.5328,-3.7416,-3.9325,-4.1341,-4.4018,-4.6462,-4.8817,-5.1173,-5.2529,-5.3421,-5.3876,-5.3341,-5.2315,-5.0762,-4.9621,-4.8207,-4.5925,-4.6471,-4.7302,-4.7478,-4.9549,-5.1375,-5.205,-5.1777,-5.1329,-5.0796,-4.9395,0.0,0.0,0.0,0.0,-4.872,-4.9002,-4.9375,-4.9973,-5.007,-5.0089,-5.0089,-5.017,-4.994,-4.9425,-4.8234,-4.7044,-4.5886,-4.5269,-4.4967,-4.4955,-4.4955,-4.4967,-4.4979,-4.4979,-4.5038,-4.5125,-4.5125,-4.4857,-4.4406,-4.409,-4.3166,-4.2001,-4.1676,-4.1063,-4.0363,0.0,0.0,0.0,0.0,0.0,0.0,0.0,0.0,0.0,0.0,0.0,0.0,0.0,0.0,0.0,0.0,0.0,0.0,0.0,0.0,0.0,-3.8984,-4.1041,-4.2869,-4.4497,-4.4394,-4.5112,-4.6672,-4.6801,-4.7684,-4.9285,-4.9324,-4.9824,-5.0636,-5.0636,-5.0636,-5.0616,-5.0521,-4.9404,-4.766,-4.721,-4.4982,-4.1729,-3.9942,0.0,0.0,0.0,0.0,0.0,0.0,0.0,0.0,0.0,-3.4151,-3.7006,-3.8594,-4.0735,-4.3272,-4.6337,-4.8889,-5.1226,-5.3484,-5.4055,-5.4019,-5.3912,-5.2083,-4.9906,-4.8252,-4.5445,-4.3075,0.0,0.0,-4.2891,-4.466,-4.6976,-4.9147,-5.0941,-5.1266,-5.1122,0.0,0.0,0.0,0.0,0.0,0.0,-4.9174,0.0,-4.9655,-4.9821,-4.9848,-4.9885,-4.9922,-4.9971,-4.9992,-4.9992,-4.8308,-4.6575,-4.4846,-4.4789,-4.4732,-4.4667,-4.4667,-4.4706,-4.477,-4.477,-4.4846,-4.4967,-4.4979,-4.5068,-4.5105,-4.4274,-4.3477,-4.2688,-4.1877,-4.1008,-4.0291,0.0,0.0,0.0,0.0,0.0,0.0,0.0,0.0,0.0,0.0,0.0,0.0,0.0,0.0,0.0,0.0,0.0,0.0,0.0,0.0,0.0,0.0,0.0,0.0,0.0,0.0,0.0,-4.0912,-4.0943,-4.1825,-4.3445,-4.3461,-4.4216,-4.5562,-4.5562,-4.5562,-4.5525,-4.4899,-4.4265,-4.3504,0.0,-3.9625,-3.7846,0.0,0.0,0.0,0.0,0.0,0.0,0.0,0.0,0.0,0.0,-3.8273,-4.0985,-4.2019,-4.4392,-4.7127,-4.9085,-5.1333,-5.3395,-5.4598,-5.4902,-5.4456,-5.2689,-5.0459,-4.7841,-4.4503,-4.2216,-4.0235,0.0,0.0,0.0,-4.1354,-4.4119,0.0,-4.918,-5.0039,0.0,0.0,0.0,-4.8808,-4.8673,-4.8041,0.0,0.0,-4.8279,-4.873,-5.0094,-4.9681,-4.9702,-5.0406,-4.9912,-4.9646,-4.9703,-4.7943,-4.6492,-4.5397,-4.4683,-4.4336,-4.4327,-4.4327,-4.4341,-4.4369,-4.4407,-4.4522,-4.4712,-4.4764,-4.4883,-4.5019,-4.481,-4.3874,-4.2624,-4.2465,-4.1444,-4.0157,0.0,0.0,0.0,0.0,0.0,0.0,0.0,0.0,0.0,0.0,0.0,0.0,0.0,0.0,0.0,0.0,0.0,0.0,0.0,0.0,0.0,0.0,0.0,0.0,0.0,0.0,0.0,0.0,0.0,0.0,-3.8703,-3.8344,-3.8857,-4.0093,-3.9704,-3.9727,-4.0074,-3.9568,0.0,0.0,0.0,0.0,0.0,0.0,0.0,0.0,0.0,0.0,0.0,0.0,0.0,-3.7166,-3.9468,-4.2109,-4.4571,-4.5713,0.0,-5.0608,-5.2136,-5.3796,-5.5169,-5.5616,-5.4955,-5.3474,-5.0762,-4.7806,-4.4593,-4.0987,-3.8415,0.0,0.0,0.0,0.0,0.0,0.0,0.0,-4.8493,-4.9908,-5.0822,0.0,-5.029,0.0,-4.9101,-4.84,-4.7988,0.0,-4.8328,-4.8917,-4.9951,-4.965,-4.9699,-5.0235,-4.9533,-4.8998,-4.869,-4.7324,-4.6184,-4.527,-4.4405,-4.3999,-4.4017,-4.4017,-4.4033,-4.4079,0.0,-4.4229,-4.4393,-4.4458,-4.4576,-4.4745,-4.4827,-4.3891,-4.2481,-4.2588,-4.1512,-4.0026,0.0,0.0,0.0,0.0,0.0,0.0,0.0,0.0,0.0,0.0,0.0,0.0,0.0,0.0,0.0,0.0,0.0,0.0,0.0,0.0,0.0,0.0,0.0,0.0,0.0,0.0,0.0,0.0,0.0,0.0,0.0,0.0,0.0,0.0,0.0,0.0,0.0,0.0,0.0,0.0,0.0,0.0,0.0,0.0,0.0,0.0,0.0,0.0,0.0,0.0,-3.7755,-3.9843,-4.3108,-4.5731,-4.7907,-4.9353,-5.1476,-5.3679,-5.5009,-5.5955,-5.6525,-5.6418,-5.4545,-5.1894,-4.8627,-4.4753,-4.0951,-3.7791,0.0,-3.2614,-3.2721,0.0,-3.5003,-3.8241,0.0,-4.4527,-4.7946,-4.989,-5.1049,-5.1267,-5.0691,-4.9927,-4.9148,-4.8312,-4.7847,-4.7861,-4.8901,-4.9521,-4.954,-4.9673,-4.9675,-4.9583,-4.8993,-4.8307,-4.7623,-4.681,-4.5926,-4.501,-4.4182,-4.3776,-4.3754,-4.3754,-4.3786,-4.3849,0.0,0.0,-4.4064,-4.4136,-4.425,-4.4374,-4.4554,-4.3648,-4.2252,-4.2401,-4.1351,-3.9867,0.0,0.0,0.0,0.0,0.0,0.0,0.0,0.0,0.0,0.0,0.0,0.0,0.0,0.0,0.0,0.0,0.0,0.0,0.0,0.0,0.0,0.0,0.0,0.0,0.0,0.0,0.0,0.0,0.0,0.0,0.0,0.0,0.0,0.0,0.0,0.0,0.0,0.0,0.0,0.0,0.0,0.0,0.0,0.0,0.0,0.0,0.0,0.0,0.0,0.0,-3.9309,-4.2361,-4.6181,-4.9002,-5.1066,-5.1993,-5.3938,-5.5847,-5.6115,-5.6775,-5.7221,-5.6561,-5.4135,-5.0905,-4.7087,-4.268,0.0,0.0,0.0,-3.1118,-3.1778,-3.2579,0.0,-3.6609,0.0,0.0,0.0,0.0,-4.9818,0.0,0.0,0.0,0.0,0.0,0.0,0.0,0.0,0.0,-4.9257,-4.9297,-4.9045,-4.8504,-4.8399,-4.8309,-4.8162,-4.7296,-4.647,-4.5627,-4.473,-4.398,-4.3482,-4.3482,-4.3516,-4.3565,0.0,0.0,-4.3851,-4.3929,-4.4017,-4.4166,-4.4181,-4.3292,-4.1972,-4.207,-4.1023,-3.9587,0.0,0.0,0.0,0.0,0.0,0.0,0.0,0.0,0.0,0.0,0.0,0.0,0.0,0.0,0.0,0.0,0.0,0.0,0.0,0.0,0.0,0.0,0.0,0.0,0.0,0.0,0.0,0.0,0.0,0.0,0.0,0.0,0.0,0.0,0.0,0.0,0.0,0.0,0.0,0.0,0.0,0.0,0.0,0.0,0.0,0.0,0.0,0.0,0.0,0.0,-3.7862,-4.1448,-4.7015,-5.012,-5.2011,-5.3617,-5.5473,-5.7096,-5.7507,-5.7882,-5.7899,-5.6704,-5.3724,-4.9942,-4.5606,0.0,0.0,0.0,0.0,-2.9551,-3.035,0.0,0.0,0.0,0.0,0.0,0.0,0.0,0.0,0.0,0.0,0.0,0.0,0.0,0.0,0.0,0.0,0.0,-4.9044,-4.9044,-4.8502,-4.7365,-4.735,-4.7151,-4.6752,-4.591,-4.5327,-4.5001,-4.4143,-4.3561,-4.3305,-4.3305,-4.3304,-4.3358,-4.3375,0.0,-4.348,-4.3565,-4.3664,-4.3758,-4.341,-4.2593,-4.1595,-4.1278,-4.0371,-3.9298,0.0,0.0,0.0,0.0,0.0,0.0,0.0,0.0,-3.0253,-3.112,-3.1619,-3.1692,-3.1123,-3.0337,0.0,0.0,0.0,0.0,0.0,0.0,0.0,0.0,0.0,0.0,0.0,0.0,0.0,0.0,0.0,0.0,0.0,0.0,0.0,0.0,0.0,0.0,0.0,0.0,0.0,0.0,0.0,0.0,0.0,0.0,0.0,0.0,0.0,0.0,0.0,0.0,-3.5471,-3.886,-4.5066,-4.8663,-5.1105,-5.3432,-5.5374,-5.6924,-5.7886,-5.8232,-5.7947,-5.6247,-5.2969,-4.8865,-4.3999,-3.9373,0.0,0.0,-2.9668,-2.8417,-2.9233,0.0,0.0,0.0,0.0,0.0,0.0,0.0,0.0,0.0,0.0,0.0,0.0,0.0,0.0,0.0,0.0,0.0,-4.8637,-4.8475,-4.7735,-4.6287,-4.625,-4.5943,-4.5309,-4.4675,-4.4315,-4.4248,-4.3612,-4.3268,-4.3178,-4.3178,-4.3196,-4.3214,-4.3214,0.0,0.0,-4.325,-4.3339,-4.3371,-4.2662,-4.1931,-4.1213,-4.0514,-3.9731,-3.9017,0.0,0.0,0.0,0.0,0.0,0.0,0.0,0.0,-3.0274,-3.1802,-3.1369,-3.117,-3.1819,-3.1169,0.0,0.0,0.0,0.0,0.0,0.0,0.0,0.0,0.0,0.0,0.0,0.0,0.0,0.0,0.0,0.0,0.0,0.0,0.0,0.0,0.0,0.0,0.0,0.0,0.0,0.0,0.0,0.0,0.0,0.0,0.0,0.0,0.0,0.0,0.0,0.0,0.0,-3.5115,-3.8517,-4.3106,-4.7684,-4.9983,0.0,0.0,-5.5844,-5.6737,-5.6702,-5.4451,-5.1413,-4.7641,-4.2188,0.0,0.0,-3.1002,-2.9148,-2.8361,-2.9158,-2.9469,-3.0118,0.0,0.0,0.0,0.0,0.0,0.0,0.0,0.0,0.0,0.0,0.0,0.0,0.0,0.0,0.0,0.0,-4.712,-4.6323,-4.5436,-4.5417,-4.5363,-4.5291,-4.5236,-4.482,-4.4115,-4.4042,-4.3682,-4.3104,-4.3104,-4.3142,-4.3214,0.0,0.0,0.0,-4.3196,-4.3233,-4.3141,-4.2356,-4.1586,-4.0846,-4.0072,-3.9316,-3.8735,0.0,0.0,0.0,0.0,0.0,0.0,0.0,-2.8768,-3.0205,-3.129,-3.1581,-3.1628,-3.142,-3.1101,0.0,0.0,0.0,0.0,0.0,0.0,0.0,0.0,0.0,0.0,0.0,0.0,0.0,0.0,0.0,0.0,0.0,0.0,0.0,0.0,0.0,0.0,0.0,0.0,0.0,0.0,0.0,0.0,0.0,0.0,0.0,0.0,0.0,0.0,0.0,0.0,0.0,0.0,-3.3668,-3.6302,0.0,0.0,-4.8718,-5.0893,-5.2843,-5.4301,-5.484,-5.2994,-4.9829,-4.6031,-4.1486,0.0,0.0,-3.0612,-2.8991,-2.8145,-2.8507,-2.9041,-2.9601,0.0,0.0,0.0,0.0,0.0,0.0,0.0,0.0,0.0,0.0,0.0,0.0,0.0,0.0,0.0,0.0,-4.6413,-4.5906,-4.4621,-4.4584,-4.4349,-4.386,-4.386,-4.3679,-4.3371,-4.3371,-4.3227,-4.2975,-4.2975,-4.2994,-4.3031,0.0,0.0,0.0,-4.3031,-4.3068,-4.3014,-4.1722,-4.1047,-4.0694,-3.9396,-3.8755,-3.853,0.0,0.0,0.0,0.0,0.0,0.0,-2.693,-2.8453,-2.9796,-3.0544,-3.1393,-3.1685,-3.1072,-3.0996,-3.0621,-2.9673,0.0,0.0,0.0,0.0,0.0,0.0,0.0,0.0,0.0,0.0,0.0,0.0,0.0,0.0,0.0,0.0,0.0,0.0,0.0,0.0,0.0,0.0,0.0,0.0,0.0,0.0,0.0,0.0,0.0,0.0,0.0,0.0,0.0,0.0,0.0,0.0,0.0,0.0,0.0,0.0,-4.4148,-4.6384,-4.8744,-5.06,-5.1492,-4.9931,-4.7178,-4.3763,0.0,0.0,-3.2177,-2.993,-2.8616,-2.7911,-2.7996,-2.8557,-2.9091,0.0,0.0,0.0,0.0,0.0,0.0,0.0,0.0,0.0,0.0,0.0,0.0,0.0,0.0,0.0,0.0,-4.549,-4.5164,-4.3788,-4.3733,-4.3462,-4.2919,-4.2901,-4.2901,-4.2901,-4.2901,-4.2901,-4.2901,-4.2901,-4.2901,-4.2901,0.0,0.0,0.0,-4.2901,-4.2811,-4.254,-4.1179,-4.0542,-4.0212,-3.8846,-3.8336,-3.8336,0.0,0.0,0.0,0.0,0.0,0.0,0.0,-2.7536,-2.8894,-2.9713,-3.0506,-3.1015,-3.0996,-3.0996,-3.0676,-2.9875,0.0,0.0,0.0,0.0,0.0,0.0,0.0,0.0,0.0,0.0,0.0,-2.9897,-2.9897,0.0,0.0,0.0,0.0,0.0,0.0,0.0,0.0,0.0,0.0,0.0,0.0,0.0,0.0,0.0,0.0,0.0,0.0,0.0,0.0,0.0,0.0,0.0,0.0,0.0,0.0,0.0,-3.8205,-4.0533,-4.3492,-4.5397,-4.6207,-4.4656,-4.3114,-4.0731,0.0,0.0,-3.1035,-2.8699,-2.7891,-2.763,-2.7774,-2.7968,-2.8393,-2.9266,-3.0015,0.0,0.0,0.0,0.0,0.0,0.0,0.0,0.0,0.0,0.0,0.0,0.0,0.0,0.0,-4.4114,-4.3751,-4.2955,-4.29,-4.2919,-4.2901,-4.2901,-4.2901,-4.2901,-4.2901,-4.2901,-4.2901,-4.2901,-4.2901,0.0,0.0,0.0,0.0,-4.2901,-4.2429,-4.1632,-4.0818,-4.0057,-3.9332,-3.8499,-3.8209,-3.8209,0.0,0.0,0.0,0.0,0.0,0.0,0.0,0.0,-2.746,-2.8853,-2.9269,-2.9647,-3.0196,-3.0253,-3.0158,-2.9893,0.0,0.0,0.0,0.0,0.0,0.0,0.0,0.0,0.0,0.0,-2.9912,-2.9901,-2.9841,-2.9823,-2.9823,0.0,0.0,0.0,0.0,0.0,0.0,0.0,0.0,0.0,0.0,0.0,0.0,0.0,0.0,0.0,0.0,0.0,0.0,0.0,0.0,0.0,0.0,0.0,0.0,-2.9982,0.0,0.0,-3.8431,-4.0459,-4.1699,-4.0203,-3.8697,-3.6792,-3.379,-3.1339,-2.9389,-2.8305,-2.7666,-2.7402,-2.7615,-2.7868,-2.8305,-2.919,-3.0,0.0,0.0,0.0,0.0,0.0,0.0,0.0,0.0,0.0,0.0,0.0,0.0,0.0,0.0,0.0,-4.3037,-4.29,-4.2901,-4.2901,-4.2901,-4.2901,-4.2901,-4.2901,-4.2901,-4.2901,-4.2901,-4.2901,0.0,0.0,0.0,0.0,0.0,-4.2321,-4.1922,-4.156,-4.0256,-3.9912,-4.0003,-3.8681,-3.8553,-3.8934,0.0,0.0,0.0,0.0,0.0,0.0,0.0,0.0,-2.669,-2.8066,-2.8514,-2.9006,-2.9821,-2.9897,-2.9897,-2.9897,0.0,0.0,0.0,0.0,0.0,0.0,0.0,0.0,0.0,-2.9841,-2.9806,-2.978,-2.9746,-2.971,-2.9701,-2.9617,-2.9532,0.0,0.0,0.0,0.0,0.0,0.0,0.0,0.0,0.0,-2.8099,0.0,0.0,0.0,0.0,0.0,0.0,0.0,0.0,0.0,0.0,0.0,0.0,0.0,-2.9398,-3.2189,0.0,-3.5578,-3.6673,-3.5782,-3.4645,0.0,0.0,-2.9091,-2.7614,-2.6776,-2.6634,-2.6752,-2.7063,-2.7543,-2.8275,-2.952,-3.0163,0.0,0.0,0.0,0.0,0.0,0.0,0.0,0.0,0.0,0.0,0.0,0.0,0.0,0.0,0.0,-4.2668,-4.2786,-4.2824,-4.2881,-4.2901,-4.2901,-4.2901,-4.2901,-4.2901,-4.2901,-4.2901,-4.2901,0.0,0.0,0.0,0.0,0.0,-4.2012,-4.1524,-4.1144,-4.0202,-3.993,-3.9967,-3.9007,-3.897,-3.9278,0.0,0.0,0.0,0.0,0.0,0.0,0.0,0.0,0.0,0.0,0.0,-2.893,-2.9726,-2.9878,0.0,0.0,0.0,0.0,0.0,0.0,0.0,0.0,0.0,0.0,0.0,-2.9763,-2.9644,-2.958,-2.9616,-2.9624,-2.9566,-2.9551,-2.945,-2.9269,-2.9197,-2.8983,-2.8657,-2.8419,-2.8246,-2.8196,-2.8182,-2.814,0.0,0.0,0.0,0.0,0.0,0.0,0.0,0.0,0.0,0.0,0.0,0.0,0.0,0.0,0.0,0.0,0.0,-3.0958,0.0,0.0,0.0,0.0,0.0,-2.6746,0.0,-2.4559,-2.5085,-2.5895,-2.6217,-2.7113,-2.8352,-3.0112,-3.0555,0.0,0.0,0.0,0.0,0.0,0.0,0.0,0.0,0.0,0.0,0.0,0.0,0.0,0.0,0.0,-4.2589,-4.2589,-4.2706,-4.2804,-4.2881,-4.2881,-4.2881,-4.2881,-4.2881,-4.2882,-4.2882,-4.2828,0.0,0.0,0.0,0.0,0.0,-4.1922,-4.1162,-4.0492,-4.0492,-4.013,-3.955,-3.9423,-3.9423,-3.9351,0.0,0.0,0.0,0.0,0.0,0.0,0.0,0.0,0.0,0.0,0.0,-2.8085,-2.8892,-2.9537,0.0,0.0,0.0,0.0,0.0,0.0,0.0,0.0,0.0,0.0,0.0,-2.9579,-2.9493,-2.9375,-2.9943,-3.0176,-3.0132,-3.0736,-3.0641,-2.9956,-2.9844,-2.93,-2.8458,-2.8353,-2.8246,-2.8213,-2.814,-2.8025,0.0,0.0,0.0,0.0,-2.7353,-2.7322,0.0,0.0,0.0,0.0,0.0,0.0,0.0,0.0,-2.6412,-2.666,-2.7136,0.0,-2.9062,-2.8497,-2.8234,-2.767,0.0,-2.5509,-2.5162,-2.4378,0.0,0.0,-2.6092,-2.7502,-2.8986,-3.0143,-3.1469,0.0,0.0,0.0,0.0,0.0,0.0,0.0,0.0,0.0,0.0,0.0,0.0,0.0,0.0,0.0,-4.2427,-4.2506,-4.2546,-4.2588,-4.267,-4.267,-4.267,-4.267,-4.267,-4.2727,-4.2786,-4.2191,0.0,0.0,0.0,0.0,-4.1053,-4.0854,-4.0673,-4.0492,-4.0492,-4.0764,-4.0999,-3.9715,-3.9643,-3.995,0.0,0.0,0.0,0.0,0.0,0.0,0.0,0.0,0.0,0.0,0.0,0.0,0.0,0.0,0.0,0.0,0.0,0.0,0.0,0.0,0.0,0.0,0.0,0.0,-2.9463,-2.9392,-2.9485,-2.9706,-3.007,-3.0423,-3.0723,-3.1151,-3.0912,-3.0045,-2.9537,-2.8972,-2.8398,-2.8327,-2.8246,-2.8182,-2.8126,0.0,0.0,0.0,0.0,0.0,-2.7038,-2.6766,0.0,-2.674,-2.6538,-2.6235,0.0,0.0,0.0,0.0,-2.5511,-2.5311,-2.5607,-2.6535,-2.728,-2.6882,-2.6801,-2.6485,-2.5359,0.0,0.0,0.0,0.0,0.0,0.0,0.0,0.0,0.0,0.0,0.0,0.0,0.0,0.0,0.0,0.0,0.0,0.0,0.0,0.0,0.0,0.0,0.0,0.0,0.0,-4.2328,-4.2405,-4.2405,-4.2468,-4.2609,-4.2609,-4.2609,-4.2609,-4.2609,-4.2629,-4.2688,-4.2255,0.0,0.0,0.0,0.0,-4.0293,-3.9914,-3.9752,-3.9751,-4.0148,-4.0581,-4.0869,-3.9949,-3.9895,-4.0021,0.0,0.0,0.0,0.0,0.0,0.0,0.0,0.0,0.0,0.0,0.0,0.0,0.0,0.0,0.0,0.0,0.0,0.0,0.0,0.0,0.0,0.0,0.0,-2.9312,-2.923,-2.9181,-2.9476,-3.0143,-3.0228,-3.064,-3.1359,-3.1487,-3.1005,-3.0013,-2.8972,-2.8471,-2.8398,-2.8327,-2.8264,-2.8168,-2.8099,0.0,0.0,0.0,0.0,0.0,0.0,0.0,0.0,-2.6068,-2.5799,-2.5363,-2.5813,0.0,0.0,0.0,0.0,0.0,-2.4762,-2.5457,-2.6053,-2.6169,-2.6202,-2.6003,-2.5259,0.0,0.0,0.0,0.0,0.0,0.0,0.0,0.0,0.0,0.0,0.0,0.0,0.0,0.0,0.0,0.0,0.0,0.0,0.0,0.0,0.0,0.0,0.0,0.0,0.0,0.0,-4.2088,-4.2088,-4.2223,-4.249,-4.251,-4.2512,-4.2512,-4.2472,-4.2472,-4.2512,-4.2384,-4.1882,0.0,0.0,0.0,-3.9617,-3.9062,-3.8774,-3.8807,-3.9687,-4.001,-4.001,-3.9866,-3.9793,-3.956,0.0,0.0,0.0,0.0,0.0,0.0,0.0,0.0,0.0,0.0,0.0,0.0,0.0,0.0,0.0,0.0,0.0,0.0,0.0,0.0,0.0,0.0,-2.91,-2.9089,-2.8968,-2.8945,-2.9265,-2.995,-3.0628,-3.1334,-3.2059,-3.2734,-3.2262,-3.0763,-2.9199,-2.8471,-2.8398,-2.8327,-2.8219,-2.8099,-2.7922,0.0,0.0,0.0,0.0,0.0,0.0,0.0,0.0,-2.4696,-2.4413,-2.4313,-2.4348,0.0,0.0,0.0,0.0,0.0,-2.4149,-2.4713,-2.5425,-2.6036,-2.6202,-2.6003,-2.5259,0.0,0.0,0.0,0.0,0.0,0.0,0.0,0.0,0.0,0.0,0.0,0.0,0.0,0.0,0.0,0.0,0.0,0.0,0.0,0.0,0.0,0.0,0.0,0.0,0.0,0.0,-4.1182,-4.12,-4.144,-4.1931,-4.2082,-4.2166,-4.2166,-4.1998,-4.2016,-4.2148,-4.1351,-4.0641,0.0,0.0,-3.8515,-3.769,-3.8259,-3.8472,-3.8541,-3.9343,-3.9684,-3.9574,-3.872,-3.8413,-3.8252,0.0,0.0,0.0,0.0,0.0,0.0,0.0,0.0,0.0,0.0,0.0,0.0,0.0,0.0,0.0,0.0,0.0,0.0,0.0,0.0,0.0,-2.8779,-2.8822,-2.8822,-2.8779,-2.9217,-2.9786,-3.0495,-3.1297,-3.2081,-3.2832,-3.23,-3.1418,-3.0243,-2.9007,-2.838,-2.8291,-2.8205,-2.8095,-2.7922,0.0,0.0,0.0,0.0,0.0,0.0,0.0,0.0,0.0,0.0,-2.3767,-2.3518,-2.3884,0.0,0.0,0.0,0.0,0.0,-2.3209,-2.3556,-2.3984,-2.4709,-2.5553,-2.622,-2.6287,0.0,0.0,0.0,0.0,0.0,0.0,0.0,0.0,0.0,0.0,0.0,0.0,0.0,0.0,0.0,0.0,0.0,0.0,0.0,0.0,0.0,0.0,0.0,0.0,0.0,0.0,0.0,-4.012,-4.0158,-4.0344,-4.0323,-4.0576,-4.1145,-4.1442,-4.138,-4.1006,-4.0551,-3.9972,-3.9279,0.0,-3.7536,-3.6733,-3.7024,-3.7123,-3.7151,-3.8,-3.8356,-3.8283,-3.7847,-3.7342,-3.6863,0.0,0.0,0.0,0.0,0.0,0.0,0.0,0.0,0.0,0.0,0.0,0.0,0.0,0.0,0.0,0.0,0.0,0.0,0.0,0.0,-2.8687,-2.8687,-2.8625,-2.8625,-2.8687,-2.9468,-3.0241,-3.0998,-3.1785,-3.2477,-3.3041,-3.1365,-3.0237,-2.9611,-2.8712,-2.825,-2.814,-2.8042,-2.7879,-2.7701,0.0,0.0,0.0,0.0,0.0,0.0,0.0,0.0,0.0,0.0,0.0,0.0,0.0,0.0,0.0,-2.255,-2.2124,-2.1796,-2.2292,-2.2572,-2.2834,-2.3391,0.0,-2.6101,-2.6849,-2.7446,0.0,0.0,0.0,0.0,0.0,0.0,0.0,0.0,0.0,0.0,0.0,0.0,0.0,0.0,0.0,0.0,0.0,0.0,0.0,0.0,0.0,0.0,0.0,0.0,0.0,0.0,-3.8985,-3.8909,-3.8916,-3.8715,-3.9071,-3.9905,-4.0413,-4.0311,-3.9671,-3.9648,-3.9193,-3.8386,-3.7733,-3.693,-3.6131,-3.6028,-3.5924,-3.591,-3.6618,-3.6884,-3.6862,-3.6862,-3.6376,-3.5771,0.0,0.0,0.0,0.0,0.0,0.0,0.0,0.0,0.0,0.0,0.0,0.0,0.0,0.0,0.0,0.0,0.0,0.0,0.0,0.0,-2.86,-2.86,-2.86,-2.86,-2.86,-2.9404,-3.0201,-3.0998,-3.1747,-3.2105,-3.2064,-3.0395,-2.9582,-2.946,-2.8478,-2.8011,-2.8014,-2.7751,-2.7602,-2.7511,-2.723,0.0,0.0,0.0,0.0,0.0,0.0,0.0,0.0,0.0,0.0,0.0,0.0,0.0,-2.176,-2.1717,-2.1637,-2.1621,-2.167,-2.2178,-2.2703,-2.2768,-2.3934,0.0,-2.6015,-2.7443,0.0,-2.965,0.0,0.0,0.0,0.0,0.0,0.0,0.0,0.0,0.0,0.0,0.0,0.0,0.0,0.0,0.0,0.0,0.0,0.0,0.0,0.0,0.0,0.0,0.0,0.0,0.0,-3.7923,-3.8345,-3.823,-3.8345,-3.8718,-3.8597,-3.8482,-3.8431,-3.8299,-3.7786,-3.703,-3.6979,-3.6463,-3.5644,-3.5644,-3.5644,-3.5622,-3.5695,-3.5645,-3.5537,-3.5537,-3.5452,-3.5344,0.0,0.0,0.0,0.0,0.0,0.0,0.0,0.0,0.0,0.0,0.0,0.0,0.0,0.0,0.0,0.0,0.0,0.0,0.0,0.0,-2.86,-2.86,-2.86,-2.86,-2.86,-2.9391,-2.9921,-3.0193,-3.0894,-3.0934,-3.036,-2.9604,-2.8952,-2.8433,-2.7962,-2.7689,-2.755,-2.7369,-2.7197,-2.7053,-2.6858,-2.6691,0.0,0.0,0.0,0.0,0.0,0.0,0.0,0.0,-2.1812,-2.1797,0.0,0.0,-2.1663,-2.151,-2.148,-2.1464,-2.1419,-2.1614,-2.1939,-2.2394,-2.3391,0.0,0.0,-2.8163,-2.9741,-3.0995,0.0,0.0,0.0,0.0,0.0,0.0,0.0,0.0,0.0,0.0,0.0,0.0,0.0,0.0,0.0,0.0,0.0,0.0,0.0,0.0,0.0,0.0,0.0,0.0,0.0,-3.5839,-3.5859,-3.6219,-3.6375,-3.6445,-3.7445,-3.7625,-3.7114,-3.7067,-3.6892,-3.6548,-3.6024,-3.5578,-3.5297,-3.5188,-3.5165,-3.5165,-3.5165,-3.5142,-3.5095,-3.5095,-3.5071,-3.5041,0.0,0.0,0.0,0.0,0.0,0.0,0.0,0.0,0.0,0.0,0.0,0.0,0.0,0.0,0.0,0.0,0.0,0.0,0.0,-2.87,-2.8625,-2.86,-2.8574,-2.8574,-2.8574,-2.906,-2.9444,-2.9701,-3.0034,-2.9857,-2.9192,-2.8779,-2.8255,-2.7674,-2.7496,-2.734,-2.718,-2.7022,-2.6858,-2.6725,-2.6572,-2.6301,0.0,0.0,0.0,0.0,0.0,0.0,0.0,0.0,-2.1797,0.0,0.0,0.0,0.0,0.0,-2.1371,-2.1371,-2.1309,-2.1293,-2.1471,-2.2216,0.0,0.0,-2.6778,-2.8784,-3.0639,-3.2184,0.0,0.0,0.0,0.0,0.0,0.0,0.0,0.0,0.0,0.0,0.0,0.0,0.0,0.0,0.0,0.0,0.0,0.0,0.0,0.0,0.0,0.0,0.0,0.0,0.0,0.0,-3.4275,-3.486,-3.5128,-3.5058,-3.6248,-3.6496,-3.5933,-3.5933,-3.5933,-3.59,-3.5305,-3.5041,-3.5018,-3.4947,-3.4899,-3.4899,-3.4899,-3.4899,-3.4899,-3.4899,-3.4899,-3.4899,0.0,0.0,0.0,0.0,0.0,0.0,0.0,0.0,0.0,0.0,0.0,0.0,0.0,0.0,0.0,0.0,0.0,0.0,-2.8798,-2.8749,-2.8675,-2.86,-2.8518,-2.8492,-2.8492,-2.8349,-2.8744,-2.9683,-2.9287,-2.8979,-2.8751,-2.783,-2.7388,-2.7388,-2.7121,-2.7008,-2.6992,-2.6708,-2.6589,-2.6572,-2.6349,-2.5846,-2.5096,0.0,0.0,0.0,0.0,0.0,0.0,0.0,-2.1753,-2.1694,0.0,0.0,0.0,-2.1324,-2.1293,-2.1293,-2.1293,-2.1309,-2.1487,0.0,0.0,0.0,-2.6817,-2.9237,-3.155,0.0,0.0,0.0,0.0,0.0,0.0,0.0,0.0,0.0,0.0,0.0,0.0,0.0,0.0,0.0,0.0,0.0,0.0,0.0,0.0,0.0,0.0,0.0,0.0,0.0,0.0,0.0,-3.3995,-3.4572,-3.4883,-3.4883,-3.4883,-3.4883,-3.4899,-3.4899,-3.4899,-3.4899,-3.4899,-3.4899,-3.4899,-3.4899,-3.4899,-3.4899,-3.4899,-3.4899,-3.4899,-3.4899,-3.4899,-3.4899,0.0,0.0,0.0,0.0,0.0,0.0,0.0,0.0,0.0,0.0,0.0,0.0,0.0,0.0,0.0,0.0,0.0,0.0,0.0,-2.8687,-2.86,-2.8518,-2.8414,-2.8367,-2.8367,-2.8091,-2.8081,-2.8355,-2.8112,-2.7871,-2.7669,-2.7333,-2.7136,-2.704,-2.6875,-2.6708,-2.6539,-2.5899,-2.5597,-2.5478,-2.4929,-2.4547,-2.4282,0.0,0.0,0.0,0.0,0.0,0.0,0.0,0.0,0.0,0.0,0.0,0.0,-2.1324,-2.1293,-2.1293,-2.1293,-2.1681,0.0,0.0,0.0,0.0,0.0,-3.012,0.0,0.0,0.0,0.0,0.0,0.0,0.0,0.0,0.0,0.0,0.0,0.0,0.0,0.0,0.0,0.0,0.0,0.0,0.0,0.0,0.0,0.0,0.0,0.0,0.0,0.0,0.0,0.0,-3.2105,-3.2784,-3.3123,-3.3123,-3.3123,-3.3743,-3.4899,-3.4899,-3.4899,-3.4899,-3.4899,-3.4899,-3.4899,-3.4899,-3.4899,-3.4899,-3.4899,-3.4899,-3.4899,-3.4899,-3.4899,-3.4899,0.0,0.0,0.0,0.0,0.0,0.0,0.0,0.0,0.0,0.0,0.0,0.0,0.0,0.0,0.0,0.0,0.0,0.0,0.0,0.0,-2.801,-2.7947,-2.8112,-2.8122,-2.7979,-2.7701,-2.7537,-2.7494,-2.7386,-2.7246,-2.7087,-2.6989,-2.6875,-2.6792,-2.6657,-2.6353,-2.5898,-2.5379,-2.4962,-2.463,-2.4183,-2.3818,-2.3503,0.0,0.0,0.0,0.0,0.0,0.0,0.0,0.0,0.0,0.0,0.0,0.0,-2.1309,-2.1293,-2.1293,-2.1293,0.0,0.0,0.0,0.0,0.0,0.0,0.0,0.0,0.0,0.0,0.0,0.0,0.0,0.0,0.0,0.0,0.0,0.0,0.0,0.0,0.0,0.0,0.0,0.0,0.0,0.0,0.0,0.0,0.0,0.0,0.0,0.0,0.0,0.0,0.0,-3.1308,-3.2046,-3.2407,-3.2407,-3.2407,-3.2919,-3.3914,-3.4225,-3.4547,-3.4828,-3.4763,-3.4574,-3.4327,-3.4624,-3.4739,-3.4739,-3.4739,-3.4739,-3.4756,-3.4804,-3.4828,-3.4778,0.0,0.0,0.0,0.0,0.0,0.0,0.0,0.0,0.0,0.0,0.0,0.0,0.0,0.0,0.0,0.0,0.0,0.0,0.0,0.0,-2.7061,-2.7061,-2.7627,-2.7795,-2.7481,-2.7277,-2.7119,-2.6975,-2.7055,-2.7023,-2.6893,-2.6742,-2.6657,-2.6572,-2.6436,-2.5932,-2.5179,-2.4978,-2.4514,-2.3884,-2.3835,-2.3404,-2.2791,-2.2791,0.0,0.0,0.0,0.0,0.0,0.0,0.0,0.0,-2.1449,-2.1356,-2.1293,-2.1293,-2.1293,-2.1293,-2.1293,0.0,0.0,0.0,0.0,0.0,0.0,0.0,0.0,0.0,0.0,0.0,0.0,0.0,0.0,0.0,0.0,0.0,0.0,0.0,0.0,0.0,0.0,0.0,0.0,0.0,0.0,0.0,0.0,0.0,0.0,0.0,0.0,0.0,0.0,0.0,-3.0969,-3.1641,-3.2023,0.0,-3.2073,-3.2154,-3.2302,-3.3106,-3.3844,-3.4469,-3.4349,-3.3923,-3.3367,-3.4038,-3.43,-3.43,-3.43,-3.43,-3.4325,-3.4462,-3.4486,-3.4411,0.0,0.0,0.0,0.0,0.0,0.0,0.0,0.0,0.0,0.0,0.0,0.0,0.0,0.0,0.0,0.0,0.0,0.0,0.0,0.0,-2.632,-2.6764,-2.7256,-2.7417,-2.7198,-2.7087,-2.7007,-2.6926,-2.6925,-2.6875,-2.6742,-2.6657,-2.6589,-2.6503,-2.5781,-2.5346,-2.5028,-2.3868,-2.3272,-2.3089,-2.251,-2.2193,-2.2044,-2.2044,-2.1945,0.0,0.0,0.0,0.0,0.0,0.0,0.0,-2.1371,-2.1309,-2.1293,-2.1293,-2.1293,-2.1293,0.0,-2.2264,0.0,0.0,0.0,0.0,0.0,0.0,0.0,0.0,0.0,0.0,0.0,0.0,0.0,0.0,0.0,0.0,0.0,0.0,0.0,0.0,0.0,0.0,0.0,0.0,0.0,0.0,0.0,0.0,0.0,0.0,0.0,0.0,0.0,-2.8484,-2.8484,-2.863,-2.9004,0.0,-2.9556,-3.0201,-3.1414,-3.2269,-3.2725,-3.2889,-3.2849,-3.2767,-3.2636,-3.28,-3.2866,-3.2866,-3.2866,-3.2866,-3.2866,-3.2872,-3.2889,-3.2896,0.0,0.0,0.0,0.0,0.0,0.0,0.0,0.0,0.0,0.0,0.0,0.0,0.0,0.0,0.0,0.0,0.0,0.0,0.0,0.0,0.0,-2.6324,-2.6913,-2.7136,-2.7006,-2.6908,-2.6842,-2.6792,-2.6792,-2.6758,-2.6691,-2.6623,-2.6571,-2.6452,-2.558,-2.4979,-2.4497,-2.3371,-2.2692,-2.2343,-2.1947,-2.1812,-2.1812,-2.1812,-2.1812,-2.1812,-2.1812,0.0,0.0,0.0,0.0,0.0,0.0,0.0,-2.1293,-2.1293,-2.1293,-2.1293,0.0,0.0,0.0,0.0,0.0,0.0,0.0,0.0,0.0,0.0,0.0,0.0,0.0,0.0,0.0,0.0,0.0,0.0,0.0,0.0,0.0,0.0,0.0,0.0,0.0,0.0,0.0,0.0,0.0,0.0,0.0,0.0,0.0,0.0,-2.7543,-2.7705,-2.7705,-2.7705,-2.7899,-2.8271,-2.8271,-2.8881,-3.0065,-3.1593,-3.2119,-3.1785,-3.2082,-3.2027,-3.1694,-3.2076,-3.2222,-3.2222,-3.2222,-3.2222,-3.2222,-3.2292,-3.2298,-3.2266,0.0,0.0,0.0,0.0,0.0,0.0,0.0,0.0,0.0,0.0,0.0,0.0,0.0,0.0,0.0,0.0,0.0,0.0,0.0,0.0,0.0,0.0,-2.6409,-2.6738,-2.6672,-2.6572,-2.6437,-2.6319,0.0,0.0,0.0,0.0,0.0,-2.6418,-2.543,-2.463,-2.3934,-2.3073,-2.2361,-2.1812,-2.1812,-2.1812,-2.1812,-2.1812,-2.1812,-2.1812,-2.1812,-2.1812,-2.1783,-2.165,0.0,0.0,0.0,0.0,-2.1293,-2.1293,-2.1293,-2.1293,0.0,0.0,0.0,0.0,0.0,0.0,0.0,0.0,0.0,0.0,0.0,0.0,0.0,0.0,0.0,0.0,0.0,0.0,0.0,0.0,0.0,0.0,0.0,0.0,0.0,0.0,0.0,0.0,0.0,0.0,0.0,0.0,-2.6506,-2.6506,-2.7057,-2.7348,-2.7348,-2.7348,-2.7413,-2.7543,-2.764,-2.8012,-2.8697,-3.0677,-3.1339,-3.0916,-3.1426,-3.1299,-3.0759,-3.1396,-3.1639,-3.1639,-3.1616,-3.1593,-3.1616,-3.1686,-3.1693,-3.1612,0.0,0.0,0.0,0.0,0.0,0.0,0.0,0.0,0.0,0.0,0.0,0.0,0.0,0.0,0.0,0.0,0.0,0.0,-2.2957,0.0,0.0,-2.484,-2.545,-2.5777,-2.5777,-2.5761,-2.5423,-2.4795,0.0,0.0,0.0,0.0,0.0,-2.6246,0.0,-2.41,-2.3918,-2.2526,-2.1895,-2.1812,-2.1812,-2.1812,-2.1812,-2.1812,-2.1812,-2.1812,-2.1812,-2.1812,-2.1783,-2.165,-2.1604,0.0,0.0,0.0,0.0,-2.1293,-2.1293,-2.1293,0.0,0.0,0.0,0.0,0.0,0.0,0.0,0.0,0.0,0.0,0.0,0.0,0.0,0.0,0.0,0.0,0.0,0.0,0.0,0.0,0.0,0.0,0.0,0.0,0.0,0.0,0.0,0.0,0.0,0.0,0.0,-2.5678,-2.5743,-2.5743,-2.5824,-2.5872,-2.5872,-2.5872,-2.6215,-2.683,-2.7429,-2.7753,-2.7883,-2.8699,-2.9453,-3.0048,-3.0162,-3.0123,-3.0042,-3.0139,-3.0172,-3.0172,-3.0038,-3.001,-2.9971,-2.9774,-2.969,-2.9667,0.0,0.0,0.0,0.0,0.0,0.0,0.0,0.0,0.0,0.0,0.0,0.0,0.0,0.0,0.0,-2.2977,-2.2932,-2.2838,-2.2738,-2.3292,-2.3762,-2.403,-2.4638,-2.4983,-2.4983,-2.4983,-2.4814,0.0,0.0,0.0,0.0,-2.5631,-2.5964,0.0,0.0,0.0,0.0,-2.2857,-2.2193,-2.1812,-2.1812,-2.1812,-2.1797,-2.1753,0.0,0.0,0.0,0.0,0.0,0.0,0.0,-2.1388,-2.1151,0.0,0.0,0.0,0.0,0.0,-2.1294,0.0,0.0,0.0,0.0,0.0,0.0,0.0,0.0,0.0,0.0,0.0,0.0,0.0,0.0,0.0,0.0,0.0,0.0,0.0,0.0,0.0,0.0,0.0,0.0,0.0,0.0,0.0,0.0,0.0,-2.5597,-2.5597,-2.5597,-2.5597,-2.5597,-2.5597,-2.5597,-2.5597,-2.5759,-2.6102,-2.6798,-2.7292,-2.7614,-2.8201,-2.8737,-2.9183,-2.946,-2.9554,-2.957,-2.9464,-2.9457,-2.9457,-2.9389,-2.9305,-2.9236,-2.9129,-2.902,-2.8974,0.0,0.0,0.0,0.0,0.0,0.0,0.0,0.0,0.0,0.0,0.0,0.0,0.0,0.0,0.0,0.0,-2.279,-2.2725,-2.2619,-2.3069,-2.3392,-2.3522,-2.3977,-2.422,-2.4189,-2.4174,0.0,0.0,0.0,0.0,-2.458,-2.4747,-2.5128,0.0,-2.5208,-2.4629,0.0,0.0,0.0,0.0,0.0,-2.1768,-2.1738,0.0,0.0,0.0,0.0,0.0,0.0,0.0,0.0,0.0,0.0,0.0,0.0,0.0,0.0,0.0,0.0,0.0,0.0,0.0,0.0,0.0,0.0,0.0,0.0,0.0,0.0,0.0,0.0,0.0,0.0,0.0,0.0,0.0,0.0,0.0,0.0,0.0,0.0,0.0,0.0,0.0,0.0,0.0,0.0,0.0,-2.5082,-2.5082,-2.5082,-2.5082,-2.5082,-2.5163,-2.5306,-2.55,-2.5597,-2.5597,-2.6112,-2.657,-2.696,-2.7503,-2.7779,-2.7849,-2.8592,-2.9016,-2.9136,-2.8847,-2.8832,-2.899,-2.8943,-2.8873,-2.8724,-2.8693,-2.8598,-2.8463,0.0,0.0,0.0,0.0,0.0,0.0,0.0,0.0,0.0,0.0,0.0,0.0,-2.3033,-2.2906,-2.2816,-2.2803,-2.2738,-2.2699,-2.2699,-2.2617,-2.2859,-2.3559,-2.3515,0.0,-2.3356,-2.3298,0.0,0.0,0.0,0.0,-2.2945,-2.3589,-2.3834,-2.3781,-2.4558,-2.4476,-2.3686,0.0,0.0,0.0,0.0,0.0,0.0,0.0,0.0,0.0,0.0,0.0,0.0,0.0,0.0,0.0,0.0,0.0,0.0,0.0,0.0,0.0,0.0,0.0,0.0,0.0,0.0,0.0,0.0,0.0,0.0,0.0,0.0,0.0,0.0,0.0,0.0,0.0,0.0,0.0,0.0,0.0,0.0,0.0,0.0,0.0,0.0,0.0,0.0,0.0,0.0,0.0,-2.3609,-2.3609,-2.3609,-2.3609,-2.3609,-2.3917,-2.4547,-2.526,-2.5597,-2.5597,-2.5502,-2.5455,-2.5422,-2.5772,-2.5837,-2.5751,-2.7306,-2.8269,-2.8686,-2.8045,-2.8154,-2.8724,-2.8583,-2.8463,-2.8304,-2.8116,-2.7974,-2.784,0.0,0.0,0.0,0.0,0.0,0.0,0.0,0.0,0.0,0.0,0.0,0.0,0.0,-2.2829,-2.279,-2.2738,-2.2672,-2.2619,-2.2565,-2.2446,-2.2468,-2.2694,-2.2519,-2.2432,-2.2387,-2.2285,0.0,0.0,0.0,-2.2052,-2.2492,-2.2637,-2.2909,-2.329,-2.3827,-2.3635,-2.2916,-2.2704,0.0,0.0,0.0,0.0,0.0,0.0,0.0,0.0,0.0,0.0,0.0,0.0,0.0,0.0,0.0,0.0,0.0,0.0,0.0,0.0,0.0,0.0,0.0,0.0,0.0,0.0,0.0,0.0,0.0,0.0,0.0,0.0,0.0,0.0,0.0,0.0,0.0,0.0,0.0,0.0,0.0,0.0,0.0,0.0,0.0,0.0,0.0,0.0,0.0,0.0,-2.3306,-2.3358,-2.3377,-2.3377,-2.3462,-2.382,-2.4482,-2.4717,-2.5051,-2.547,-2.5282,-2.5349,-2.5629,-2.5513,-2.5555,-2.5681,-2.572,-2.6382,-2.7468,-2.7144,-2.7385,-2.7993,-2.7944,-2.7588,-2.7073,-2.699,-2.6882,-2.6703,0.0,0.0,0.0,0.0,0.0,0.0,0.0,0.0,0.0,0.0,0.0,0.0,0.0,0.0,-2.2725,-2.2632,-2.2582,-2.2484,-2.2371,-2.2248,-2.2135,-2.2077,-2.1869,-2.1749,-2.172,0.0,0.0,0.0,0.0,0.0,0.0,-2.1643,-2.1796,-2.2204,-2.2429,-2.2454,0.0,0.0,0.0,-2.1356,0.0,0.0,-2.1071,0.0,0.0,0.0,0.0,0.0,0.0,0.0,0.0,0.0,0.0,0.0,0.0,0.0,0.0,0.0,0.0,0.0,0.0,0.0,0.0,0.0,0.0,0.0,0.0,0.0,0.0,0.0,0.0,0.0,0.0,0.0,0.0,0.0,0.0,0.0,0.0,0.0,0.0,0.0,0.0,0.0,0.0,0.0,0.0,0.0,-2.2428,-2.2514,-2.2548,-2.2548,-2.2875,-2.3231,-2.3665,-2.4106,-2.4497,-2.4853,-2.4898,-2.5006,-2.5222,-2.4842,-2.4752,-2.4851,-2.4192,-2.4809,-2.6276,-2.5962,-2.6221,-2.6847,-2.7056,-2.6778,-2.6283,-2.6519,-2.6508,-2.6293,0.0,0.0,0.0,0.0,0.0,0.0,0.0,0.0,0.0,0.0,0.0,0.0,0.0,0.0,0.0,-2.2549,-2.2453,-2.2321,-2.2096,-2.1955,-2.1855,-2.1766,-2.1584,-2.1447,-2.1386,0.0,0.0,0.0,0.0,0.0,0.0,0.0,-2.0444,-2.0393,-2.0393,-2.0972,-2.1944,0.0,-2.1596,-2.0893,0.0,-2.0811,-2.0676,0.0,0.0,0.0,-2.0321,-2.0287,0.0,0.0,0.0,0.0,0.0,0.0,0.0,0.0,0.0,0.0,0.0,0.0,0.0,0.0,0.0,0.0,0.0,0.0,0.0,0.0,0.0,0.0,0.0,0.0,0.0,0.0,0.0,0.0,0.0,0.0,0.0,0.0,0.0,0.0,0.0,0.0,0.0,0.0,0.0,-2.0811,-2.0877,-2.1022,-2.1087,-2.1087,-2.1726,-2.2028,-2.1993,-2.3342,-2.3929,-2.3774,-2.4227,-2.4323,-2.4057,-2.3616,-2.329,-2.3083,-2.2822,-2.3661,-2.5171,-2.4543,-2.4661,-2.5333,-2.5918,-2.6079,-2.6027,-2.6685,-2.6855,-2.6663,0.0,0.0,0.0,0.0,0.0,0.0,0.0,0.0,0.0,0.0,0.0,0.0,0.0,-2.4583,-2.3973,-2.3226,-2.3013,-2.2555,-2.1721,-2.1539,-2.1402,-2.1229,-2.1118,-2.1055,-2.1039,0.0,0.0,0.0,0.0,0.0,0.0,0.0,0.0,0.0,-2.0113,-2.031,-2.0638,-2.0859,0.0,0.0,-2.0662,-2.0527,0.0,0.0,0.0,0.0,0.0,-2.0008,0.0,0.0,-1.9851,-1.9833,0.0,0.0,0.0,0.0,0.0,0.0,-1.9508,0.0,0.0,0.0,0.0,0.0,0.0,0.0,0.0,0.0,0.0,0.0,0.0,0.0,0.0,0.0,0.0,0.0,0.0,0.0,0.0,0.0,0.0,0.0,0.0,0.0,0.0,0.0,-2.0272,-2.0342,-2.046,-2.0693,-2.0826,-2.0876,-2.1016,-2.1281,-2.1715,-2.1965,-2.2449,-2.3216,-2.3209,-2.3309,-2.3501,-2.3179,-2.2957,-2.2799,-2.2678,-2.2893,-2.3369,-2.362,-2.4125,-2.4745,-2.4918,-2.4951,-2.493,-2.5128,-2.5437,-2.5641,0.0,0.0,0.0,0.0,0.0,0.0,0.0,0.0,0.0,0.0,0.0,0.0,0.0,0.0,-2.4541,-2.3219,-2.2983,-2.245,-2.1404,-2.1214,-2.1055,-2.0893,-2.0795,-2.0729,-2.0729,0.0,0.0,0.0,0.0,0.0,0.0,0.0,0.0,0.0,0.0,0.0,0.0,0.0,0.0,0.0,-2.0323,0.0,0.0,-1.9975,-1.9904,0.0,0.0,0.0,-1.9866,-1.9744,-1.9708,0.0,0.0,0.0,0.0,0.0,0.0,0.0,0.0,0.0,0.0,0.0,0.0,0.0,0.0,-1.8621,0.0,0.0,0.0,0.0,0.0,0.0,0.0,0.0,0.0,0.0,0.0,0.0,0.0,0.0,0.0,0.0,0.0,0.0,0.0,0.0,-1.9815,-1.9942,-2.0166,-2.0321,-2.0424,-2.046,-2.0375,-2.0491,-2.0804,-2.0917,-2.1262,-2.1839,-2.1982,-2.225,-2.2659,-2.2438,-2.2411,-2.2572,-2.2486,-2.2417,-2.2468,-2.2814,-2.3255,-2.3722,-2.3993,-2.4265,-2.4537,-2.4794,-2.5269,-2.5628,0.0,0.0,0.0,0.0,0.0,0.0,0.0,0.0,0.0,0.0,0.0,0.0,0.0,0.0,0.0,0.0,-2.2703,-2.22,-2.1135,-2.0909,0.0,0.0,0.0,0.0,0.0,0.0,0.0,0.0,0.0,0.0,0.0,0.0,0.0,0.0,0.0,0.0,0.0,0.0,0.0,-2.0063,-1.999,-1.9902,0.0,0.0,-1.9708,0.0,-1.9708,-1.9708,-1.9708,-1.9708,-1.9669,0.0,0.0,0.0,0.0,0.0,-1.9195,0.0,0.0,0.0,0.0,0.0,0.0,0.0,-1.8592,-1.8386,-1.8406,0.0,0.0,0.0,0.0,0.0,0.0,0.0,0.0,0.0,0.0,0.0,0.0,0.0,0.0,0.0,0.0,0.0,-1.9221,-1.9339,-1.9417,-1.9584,-1.9884,-1.9935,-1.9935,-1.9935,-1.9803,-1.9696,-1.9636,-2.0109,-2.0264,-2.0138,-2.0666,-2.1187,-2.165,-2.1445,-2.1719,-2.2271,-2.2156,-2.2137,-2.2208,-2.2208,-2.2347,-2.2612,-2.3145,-2.3816,-2.4515,-2.5046,-2.5688,-2.6174,0.0,0.0,0.0,0.0,0.0,0.0,0.0,0.0,0.0,0.0,0.0,0.0,0.0,0.0,0.0,0.0,-2.3185,-2.2433,-2.0888,-2.0594,0.0,0.0,0.0,0.0,0.0,0.0,0.0,0.0,0.0,0.0,0.0,0.0,0.0,0.0,0.0,0.0,0.0,0.0,0.0,-1.978,-1.9815,0.0,-1.9726,-1.9708,-1.9708,-1.9708,-1.9708,-1.9708,-1.9708,0.0,-1.969,-1.9672,0.0,0.0,0.0,0.0,0.0,0.0,0.0,0.0,0.0,0.0,0.0,0.0,-1.7702,-1.7179,-1.6991,0.0,0.0,0.0,0.0,0.0,0.0,0.0,0.0,0.0,0.0,0.0,0.0,0.0,0.0,0.0,0.0,0.0,-1.9003,-1.8917,-1.9082,-1.9236,-1.935,-1.9453,-1.9523,-1.9523,-1.9402,-1.9277,-1.9232,-1.9265,-1.9445,-1.9715,-1.9843,-2.018,-2.0677,-2.0633,-2.0936,-2.1507,-2.1485,-2.1744,-2.2208,-2.2208,-2.2231,-2.2292,-2.2405,-2.3152,-2.4182,-2.4295,-2.5043,-2.589,0.0,0.0,0.0,0.0,0.0,0.0,0.0,0.0,0.0,0.0,0.0,0.0,0.0,0.0,0.0,0.0,0.0,0.0,0.0,0.0,0.0,0.0,0.0,0.0,0.0,0.0,0.0,0.0,0.0,0.0,0.0,0.0,0.0,0.0,0.0,0.0,0.0,0.0,-1.9708,-1.9708,-1.9744,0.0,-1.9708,-1.9708,-1.9708,-1.9708,-1.9708,-1.9708,-1.9708,-1.9708,-1.9708,0.0,0.0,-1.9523,-1.9395,0.0,-1.9228,-1.9101,0.0,0.0,0.0,-1.9101,0.0,0.0,0.0,-1.7512,-1.7401,0.0,0.0,0.0,0.0,0.0,0.0,0.0,0.0,0.0,0.0,0.0,0.0,0.0,0.0,0.0,0.0,0.0,-1.875,-1.8755,-1.8851,-1.8931,-1.8997,-1.9049,-1.9101,-1.9101,-1.9007,-1.8931,-1.8908,-1.8807,-1.8848,-1.9061,-1.9061,-1.9345,-1.9901,-1.9901,-2.0414,-2.1316,-2.1316,-2.1631,-2.2208,-2.2208,-2.2208,-2.2208,-2.2208,-2.2981,-2.4092,-2.4092,-2.4669,-2.5428,0.0,0.0,0.0,0.0,0.0,0.0,0.0,0.0,0.0,0.0,0.0,0.0,0.0,0.0,0.0,0.0,0.0,0.0,0.0,0.0,0.0,0.0,0.0,-2.0304,0.0,0.0,0.0,0.0,0.0,0.0,0.0,0.0,0.0,0.0,0.0,0.0,0.0,0.0,0.0,-1.9708,0.0,-1.9708,-1.9708,-1.9708,-1.9708,-1.9708,-1.9708,-1.9708,-1.9708,-1.9708,0.0,-1.9708,-1.9708,-1.9563,0.0,0.0,0.0,0.0,0.0,0.0,0.0,0.0,0.0,-1.8941,0.0,0.0,0.0,-1.8201,0.0,0.0,0.0,0.0,0.0,0.0,0.0,0.0,0.0,0.0,0.0,0.0,0.0,0.0,0.0,0.0,-1.8537,-1.8653,-1.8653,-1.8692,-1.8741,-1.8741,-1.8741,-1.8741,-1.8678,-1.8653,-1.8653,-1.8556,-1.8498,-1.8498,-1.8498,-1.8764,-1.9242,-1.9242,-1.9915,-2.1125,-2.1125,-2.1533,-2.2208,-2.2208,-2.2208,-2.2208,-2.2208,-2.2981,-2.4078,-2.3952,-2.4374,-2.4978,-2.4599,-2.4827,0.0,0.0,0.0,0.0,0.0,0.0,0.0,0.0,0.0,0.0,0.0,0.0,0.0,0.0,0.0,0.0,-2.1494,0.0,0.0,0.0,0.0,0.0,-2.0304,0.0,0.0,0.0,0.0,0.0,0.0,0.0,0.0,0.0,-1.9708,0.0,0.0,0.0,-1.9708,0.0,-1.9708,-1.9708,0.0,-1.9708,-1.9708,-1.9708,-1.9708,-1.9708,-1.9708,0.0,-1.9708,-1.9708,0.0,-1.9563,0.0,0.0,0.0,0.0,0.0,0.0,0.0,0.0,-1.9101,0.0,0.0,0.0,-1.8201,-1.8201,0.0,0.0,0.0,0.0,0.0,0.0,0.0,0.0,0.0,0.0,0.0,0.0,0.0,0.0,0.0,0.0,0.0,-1.8517,-1.8517,-1.8537,-1.8537,-1.8523,-1.8523,-1.8523,-1.8537,-1.8517,-1.8517,-1.8517,-1.8498,-1.8498,-1.8498,-1.854,-1.8596,-1.8596,-1.9284,-2.0498,-2.0498,-2.1167,-2.2208,-2.2208,-2.2208,-2.2208,-2.2208,-2.2981,-2.4022,-2.3445,-2.398,-2.4922,-2.3891,-2.4307,0.0,0.0,0.0,0.0,0.0,0.0,0.0,0.0,0.0,0.0,0.0,0.0,0.0,0.0,0.0,-2.3963,0.0,0.0,0.0,0.0,0.0,0.0,0.0,0.0,0.0,0.0,-2.0111,0.0,0.0,0.0,0.0,0.0,-1.9708,0.0,-1.9708,0.0,0.0,0.0,0.0,0.0,0.0,-1.9708,-1.9708,-1.9708,-1.9708,-1.9708,-1.9708,0.0,-1.9708,0.0,0.0,0.0,0.0,0.0,0.0,0.0,0.0,0.0,0.0,0.0,0.0,0.0,0.0,0.0,-1.8724,0.0,0.0,0.0,0.0,0.0,0.0,0.0,0.0,0.0,0.0,0.0,0.0,0.0,0.0,0.0,0.0,0.0,0.0,0.0,0.0,-1.8498,-1.8498,-1.8498,-1.8498,-1.8498,-1.8498,-1.8498,-1.8498,-1.8498,-1.8498,-1.8498,-1.8498,-1.8498,-1.8512,-1.8863,-1.9522,-2.0414,-2.0773,-2.1406,-2.2208,-2.2208,-2.2161,-2.2091,-2.2091,-2.2836,-2.3856,-2.3213,-2.3459,-2.3998,-2.2748,0.0,0.0,0.0,0.0,0.0,0.0,0.0,0.0,0.0,0.0,0.0,-2.5657,-2.5654,0.0,0.0,0.0,-2.4804,0.0,0.0,-2.2255,0.0,0.0,0.0,0.0,0.0,0.0,0.0,0.0,0.0,0.0,0.0,0.0,0.0,0.0,-1.9708,-1.9708,0.0,0.0,-1.9708,-1.9708,-1.9708,-1.9708,-1.9708,-1.9708,-1.9708,-1.9708,-1.9708,-1.9708,-1.9708,-1.9708,0.0,-1.9672,0.0,0.0,0.0,0.0,0.0,-1.9026,0.0,0.0,0.0,0.0,0.0,0.0,0.0,0.0,0.0,0.0,0.0,0.0,0.0,0.0,0.0,0.0,0.0,0.0,0.0,0.0,0.0,0.0,0.0,0.0,0.0,0.0,0.0,-1.8425,0.0,-1.8445,-1.8478,-1.8498,-1.8498,-1.8498,-1.8498,-1.8498,-1.8498,-1.8498,-1.8498,-1.8464,-1.8529,-1.8705,-1.9091,-1.9712,-2.05,-2.0896,-2.1425,-2.1996,-2.1996,-2.1926,-2.1817,-2.1793,-2.2407,-2.321,-2.2691,-2.2839,-2.3182,-2.1373,-2.2132,0.0,0.0,0.0,0.0,0.0,0.0,0.0,0.0,0.0,0.0,0.0,0.0,0.0,0.0,0.0,-2.5004,-2.4317,0.0,-2.2963,0.0,0.0,-2.1257,0.0,0.0,0.0,0.0,0.0,0.0,0.0,0.0,0.0,0.0,0.0,-1.9708,-1.9708,-1.9708,-1.9708,-1.9708,-1.9708,-1.9708,-1.9708,0.0,-1.9708,-1.9708,-1.9708,0.0,0.0,-1.9708,-1.9708,0.0,0.0,0.0,0.0,0.0,0.0,0.0,0.0,0.0,0.0,-1.8803,0.0,0.0,0.0,0.0,-1.8803,0.0,0.0,0.0,0.0,0.0,0.0,0.0,0.0,0.0,0.0,0.0,0.0,0.0,0.0,0.0,0.0,0.0,0.0,-1.8222,-1.8274,-1.8319,-1.8319,-1.8425,-1.8498,-1.8498,-1.8498,-1.8498,-1.8498,-1.8498,-1.8498,-1.8498,-1.8372,-1.8619,-1.9176,-1.8996,-1.9576,-2.0685,-2.0574,-2.088,-2.1423,-2.1423,-2.1423,-2.1423,-2.1277,-2.1531,-2.1923,-2.1569,-2.2108,-2.2815,0.0,0.0,0.0,0.0,0.0,0.0,0.0,-2.4932,0.0,0.0,0.0,0.0,0.0,0.0,-2.8211,0.0,0.0,-2.6688,-2.5066,-2.4333,0.0,0.0,0.0,-2.1304,0.0,0.0,0.0,0.0,0.0,0.0,0.0,0.0,0.0,0.0,0.0,-1.9708,0.0,0.0,0.0,0.0,0.0,-1.9708,-1.9708,0.0,0.0,-1.9708,-1.9708,-1.9708,0.0,-1.9708,-1.9672,-1.9596,-1.9487,-1.9358,-1.9157,-1.8969,-1.8851,0.0,0.0,0.0,-1.8581,-1.8495,0.0,0.0,0.0,0.0,0.0,0.0,0.0,0.0,0.0,0.0,0.0,0.0,0.0,0.0,0.0,0.0,0.0,0.0,0.0,0.0,0.0,0.0,0.0,-1.8003,-1.8062,-1.8088,0.0,-1.8279,-1.8352,-1.8301,-1.8333,-1.8299,-1.8161,-1.8161,-1.8135,-1.8103,-1.8433,-1.8638,-1.8764,-1.9476,-2.0011,-2.0318,-2.0684,-2.0941,-2.1129,-2.1129,-2.108,-2.0981,-2.0871,-2.1026,-2.1342,-2.1008,-2.1234,-2.1603,-2.0662,0.0,0.0,0.0,0.0,0.0,0.0,0.0,0.0,0.0,-2.7196,0.0,-2.9027,0.0,-2.9479,0.0,-2.855,-2.7734,-2.6164,-2.5158,0.0,-2.4025,-2.2717,0.0,0.0,0.0,0.0,0.0,0.0,-1.9884,0.0,0.0,0.0,0.0,0.0,0.0,0.0,0.0,-1.9708,0.0,0.0,-1.969,0.0,0.0,-1.9672,-1.9708,0.0,-1.9654,-1.9669,-1.9599,-1.9541,-1.9465,-1.9317,-1.9097,-1.8893,-1.8644,-1.8489,-1.8333,-1.8141,-1.8101,0.0,-1.8101,-1.8141,0.0,-1.8228,0.0,0.0,0.0,0.0,0.0,0.0,0.0,0.0,0.0,0.0,0.0,0.0,-1.722,0.0,0.0,0.0,0.0,0.0,0.0,-1.7468,-1.757,-1.7659,-1.776,0.0,0.0,-1.8082,-1.8089,-1.8095,-1.8008,-1.7888,-1.7848,-1.7801,-1.7767,-1.8284,-1.8553,-1.8662,-1.9552,-1.9998,-2.0085,-2.044,-2.0572,-2.0572,-2.0572,-2.0522,-2.0421,-2.0308,-2.0386,-2.0563,-2.0374,-2.0386,-2.0432,0.0,0.0,0.0,0.0,-2.263,0.0,0.0,0.0,-2.6081,0.0,-2.8473,-2.9012,-3.0309,-3.0479,-3.0217,-2.9494,-2.8873,0.0,-2.7442,-2.6096,0.0,0.0,-2.4005,-2.3282,-2.3282,0.0,0.0,0.0,0.0,0.0,0.0,0.0,0.0,0.0,-1.9708,0.0,-1.9708,-1.9708,-1.969,-1.969,-1.969,-1.965,-1.9574,-1.9574,0.0,-1.9654,-1.9611,-1.9574,-1.9556,-1.9413,-1.9339,-1.9228,-1.9017,-1.8774,-1.8514,-1.8248,-1.7975,-1.776,-1.77,-1.7578,-1.7516,-1.7639,0.0,0.0,0.0,0.0,-1.7639,0.0,0.0,0.0,0.0,0.0,0.0,0.0,0.0,0.0,0.0,0.0,0.0,0.0,0.0,0.0,0.0,-1.6876,-1.6905,-1.6972,-1.7102,0.0,0.0,0.0,-1.7733,-1.7862,-1.7754,-1.7679,-1.7659,-1.7537,-1.7455,-1.7468,-1.7924,-1.8415,-1.8878,-1.9155,-1.9546,-1.9965,-1.985,-1.9773,-1.9773,-1.9773,-1.9773,-1.9773,-1.963,-1.9552,-1.9552,-1.9734,-1.9604,-1.9394,-2.1153,-2.204,-2.2817,0.0,-2.313,-2.3768,0.0,0.0,0.0,0.0,-2.9273,-3.0202,-3.1043,-3.1582,-3.1428,-3.0248,-2.9986,0.0,0.0,0.0,0.0,-2.5256,-2.3756,-2.2925,-2.2925,-2.1472,0.0,-2.0639,0.0,0.0,-1.9647,0.0,0.0,0.0,0.0,0.0,-1.9708,-1.965,-1.9574,-1.9487,-1.9487,-1.9431,0.0,0.0,-1.9157,-1.9049,-1.9288,-1.9321,-1.9195,-1.9064,-1.8917,-1.8741,-1.8484,-1.8214,-1.7948,-1.7679,-1.757,-1.7455,-1.724,-1.724,-1.7261,-1.7199,-1.7261,-1.7344,0.0,0.0,0.0,0.0,0.0,0.0,0.0,0.0,0.0,0.0,0.0,0.0,0.0,0.0,0.0,0.0,0.0,0.0,0.0,0.0,-1.6565,-1.6616,-1.6765,0.0,0.0,0.0,0.0,-1.7378,-1.7344,-1.7261,-1.7115,-1.6976,-1.6871,-1.6757,-1.7339,-1.7832,-1.8262,-1.8719,-1.9145,-1.9539,-1.9512,-1.9486,-1.9486,-1.9486,-1.9486,-1.9486,-1.9251,-1.904,-1.8907,-1.9237,-1.9237,-1.9093,-2.1793,0.0,0.0,-2.4071,0.0,0.0,-2.5626,0.0,0.0,-2.8673,-2.974,0.0,-3.1347,-3.1747,-3.1536,-3.0494,-3.0125,0.0,0.0,0.0,0.0,-2.5469,-2.399,-2.3098,-2.3029,-2.1534,0.0,-2.072,0.0,0.0,-1.9376,0.0,0.0,0.0,0.0,-1.9487,0.0,-1.9487,-1.9358,-1.9176,-1.9176,0.0,0.0,-1.9159,-1.9097,-1.9119,-1.9242,-1.9064,-1.8726,-1.8625,-1.8436,-1.822,-1.8036,-1.7794,-1.7496,-1.7303,-1.7157,-1.7065,-1.6897,-1.6876,-1.6884,-1.6876,-1.6918,-1.6981,-1.6981,-1.6918,-1.6854,0.0,0.0,0.0,0.0,0.0,0.0,0.0,0.0,0.0,0.0,0.0,0.0,0.0,0.0,0.0,0.0,0.0,0.0,0.0,0.0,0.0,0.0,0.0,0.0,-1.6892,-1.6863,-1.6799,-1.6684,-1.6543,-1.6436,-1.6383,-1.6953,-1.7444,-1.7847,-1.8314,-1.8751,-1.9131,-1.9078,-1.904,-1.904,-1.904,-1.904,-1.904,-1.8881,-1.8721,-1.864,-1.8839,-1.8893,-1.8827,0.0,0.0,0.0,0.0,0.0,0.0,0.0,-2.7072,0.0,-2.9218,0.0,-3.0566,-3.1332,-3.1305,-3.1028,-3.0422,0.0,-2.8974,-2.807,-2.6825,-2.594,-2.5589,-2.4209,-2.3326,-2.3032,-2.1633,0.0,0.0,0.0,0.0,0.0,0.0,0.0,0.0,0.0,0.0,0.0,-1.9195,-1.9088,0.0,-1.8879,-1.9052,-1.9294,-1.9169,-1.9244,-1.9382,-1.927,-1.8822,-1.8291,-1.8219,-1.7983,-1.772,-1.7618,-1.7372,-1.7115,-1.6981,-1.6812,-1.6675,-1.6675,-1.6599,-1.6522,-1.6654,-1.6675,-1.6675,-1.6675,-1.6675,-1.6654,-1.65,-1.65,-1.6479,0.0,0.0,0.0,0.0,0.0,0.0,0.0,0.0,0.0,0.0,0.0,0.0,0.0,0.0,0.0,0.0,0.0,0.0,0.0,0.0,0.0,-1.6457,-1.6392,0.0,-1.6318,0.0,-1.6134,-1.6113,-1.6651,-1.713,-1.7533,-1.7965,-1.8364,-1.8771,-1.864,-1.8587,-1.8587,-1.8587,-1.8587,-1.856,-1.856,-1.856,-1.8533,-1.8533,-1.8533,-1.8533,0.0,0.0,0.0,0.0,0.0,-2.7257,-2.795,-2.7673,-2.7888,-2.9218,-2.9494,0.0,-3.1285,-3.0905,-3.0483,-3.0256,-2.9628,0.0,0.0,0.0,0.0,-2.4433,-2.3356,-2.2425,-2.1687,-2.0796,-2.0091,0.0,0.0,0.0,0.0,0.0,0.0,0.0,0.0,0.0,-1.8726,-1.8669,0.0,-1.8975,-1.8872,-1.8998,-1.9301,-1.9217,-1.9082,-1.8898,-1.8842,-1.8578,-1.8299,-1.8214,-1.779,-1.7282,-1.7094,-1.6918,-1.6761,-1.6629,-1.6565,-1.6543,-1.6543,-1.6522,-1.65,-1.6522,-1.6543,-1.6543,-1.6543,-1.6543,-1.65,-1.6436,-1.6414,-1.6371,-1.6275,0.0,0.0,0.0,0.0,0.0,0.0,0.0,0.0,0.0,0.0,0.0,0.0,0.0,0.0,0.0,0.0,0.0,0.0,0.0,0.0,0.0,0.0,0.0,0.0,0.0,-1.5726,-1.5637,-1.6113,-1.6622,-1.7117,-1.7637,-1.8156,-1.864,-1.8614,-1.8587,-1.8587,-1.8587,-1.8545,-1.8449,-1.8449,-1.8329,-1.8193,-1.8193,-1.8193,-1.822,0.0,0.0,0.0,0.0,0.0,0.0,0.0,-2.9066,0.0,-2.9833,-3.0228,-3.0674,-3.1347,-3.0744,-3.0241,-3.0094,-2.9037,-2.7821,-2.6568,-2.5632,-2.4736,-2.382,-2.2883,0.0,-2.1472,-2.0467,-1.9773,-1.9398,0.0,0.0,0.0,0.0,0.0,0.0,0.0,-1.8285,0.0,0.0,0.0,-1.87,-1.8846,-1.9127,-1.9438,-1.9298,-1.9313,-1.9425,-1.9315,-1.9006,-1.8583,-1.8102,-1.751,-1.6918,-1.6825,-1.6705,-1.6577,-1.6522,-1.65,-1.65,-1.65,-1.65,-1.65,-1.65,-1.65,-1.65,-1.65,-1.6479,-1.6436,-1.6414,-1.634,-1.6253,-1.611,-1.6035,0.0,0.0,0.0,0.0,0.0,0.0,0.0,0.0,0.0,0.0,0.0,0.0,0.0,0.0,0.0,0.0,0.0,0.0,0.0,0.0,0.0,0.0,0.0,0.0,0.0,-1.588,-1.6373,-1.6901,-1.7431,-1.7601,-1.7985,-1.8491,-1.8383,-1.8356,-1.8356,-1.8356,-1.8302,-1.8247,-1.8247,-1.8193,-1.8084,-1.8084,-1.8084,-1.8111,0.0,-2.8042,0.0,0.0,-2.9156,0.0,0.0,-3.0323,-3.0304,-3.0313,-3.0753,-3.1148,-3.1232,-3.0395,-2.9837,-2.9815,-2.8214,-2.6842,-2.5893,-2.495,-2.4023,-2.3121,-2.239,-2.1762,-2.1281,-2.0278,-1.9647,0.0,0.0,0.0,0.0,0.0,0.0,0.0,0.0,0.0,0.0,0.0,-1.8653,-1.8613,-1.8911,-1.9281,-1.9617,-1.9481,-1.9648,-1.9926,-1.9837,-1.9397,-1.8719,-1.8048,-1.7375,-1.684,-1.6692,-1.6599,-1.65,-1.65,-1.65,-1.65,-1.65,-1.65,-1.65,-1.6479,-1.6479,-1.6479,-1.6436,-1.6392,-1.6362,-1.6328,-1.621,-1.6035,-1.5935,-1.578,0.0,0.0,0.0,0.0,0.0,0.0,0.0,0.0,0.0,0.0,0.0,0.0,0.0,0.0,0.0,0.0,0.0,0.0,0.0,0.0,0.0,-1.5491,-1.5446,0.0,-1.6162,0.0,-1.6793,-1.7321,-1.7718,-1.7717,-1.7931,-1.834,-1.8166,-1.8169,-1.8272,-1.8217,-1.8274,-1.8377,-1.8293,-1.8225,-1.8162,-1.8134,-1.8134,-1.8162,0.0,0.0,0.0,0.0,0.0,0.0,0.0,-3.0779,-3.0498,-3.0084,-3.008,-3.0285,-3.0712,-2.9507,-2.8797,-2.9163,-2.7213,-2.56,-2.4722,-2.3706,-2.2756,-2.1808,-2.1474,-2.0925,-2.0178,-2.0022,-1.9694,0.0,0.0,0.0,0.0,0.0,0.0,0.0,0.0,0.0,0.0,-1.8728,-1.8913,-1.9222,-1.9176,-1.942,-1.9787,-1.9749,-1.9786,-1.9837,-1.9798,-1.9145,-1.8267,-1.819,-1.7788,-1.7234,-1.6685,-1.6522,-1.65,-1.65,-1.65,-1.65,-1.65,-1.65,-1.65,-1.6414,-1.6414,-1.6371,-1.6253,-1.6222,-1.6188,-1.6066,-1.5881,-1.5703,-1.558,-1.5435,-1.5278,0.0,0.0,0.0,0.0,0.0,0.0,0.0,0.0,0.0,0.0,0.0,0.0,0.0,0.0,0.0,0.0,0.0,0.0,-1.5513,0.0,-1.5424,-1.5335,-1.5835,0.0,-1.5935,-1.6903,-1.7387,-1.7445,-1.7863,-1.8066,-1.8139,-1.8111,-1.8375,-1.8799,-1.8618,-1.8833,-1.924,-1.8955,-1.8636,-1.8378,-1.8247,-1.8275,-1.8367,0.0,0.0,0.0,0.0,0.0,0.0,0.0,-3.0717,-3.044,-3.0119,-3.0248,-3.0391,-3.0449,-2.9067,-2.8145,-2.8152,-2.6347,-2.4855,-2.407,-2.3078,-2.2185,-2.1402,-2.118,-2.0915,-2.0556,-2.0175,-1.9848,0.0,0.0,0.0,0.0,0.0,0.0,0.0,0.0,-1.8706,-1.8686,-1.8889,-1.9098,-1.9254,-1.9484,-1.9661,-1.9798,-1.9798,-1.9798,-1.9798,-1.9798,-1.9321,-1.8619,-1.8317,-1.7601,-1.6823,-1.6584,-1.65,-1.65,-1.65,-1.65,-1.65,-1.6457,-1.6436,-1.6414,-1.6318,-1.6275,-1.6275,-1.6222,-1.6144,-1.6066,-1.601,-1.5703,-1.539,-1.5187,-1.4926,-1.4697,0.0,0.0,0.0,0.0,0.0,0.0,0.0,0.0,0.0,0.0,0.0,0.0,0.0,0.0,0.0,0.0,0.0,0.0,-1.496,0.0,-1.5262,-1.5308,-1.6086,-1.6531,-1.6692,-1.7296,-1.7614,-1.7695,-1.7736,-1.7661,-1.7573,-1.7873,-1.8107,-1.8318,-1.853,-1.8662,-1.8726,-1.8585,-1.8406,-1.8181,-1.783,-1.7994,-1.8308,-3.1228,0.0,-3.1225,0.0,-3.0991,-3.0541,-3.0645,-3.0434,-3.0192,-2.9976,-2.9842,-2.9793,-2.9869,-2.8475,-2.7432,-2.7198,-2.5392,-2.4033,-2.3542,-2.2446,-2.1599,-2.1122,-2.0972,0.0,-2.0838,-2.0417,-2.0169,-2.0048,-1.9606,0.0,0.0,0.0,0.0,0.0,-1.8982,-1.8934,-1.8899,-1.9256,-1.9371,-1.9396,-1.9673,-1.971,-1.9547,-1.9547,-1.9472,-1.9334,-1.9334,-1.8995,-1.8456,-1.8091,-1.7303,-1.6479,-1.65,-1.65,-1.6479,-1.6479,-1.6436,-1.6392,-1.6362,-1.634,-1.6318,-1.6166,-1.6144,-1.6122,-1.6078,-1.6001,-1.5935,-1.5913,-1.5513,-1.5119,-1.4846,-1.4512,-1.421,-1.4012,0.0,0.0,0.0,0.0,0.0,0.0,0.0,-1.3382,-1.3678,0.0,0.0,0.0,0.0,0.0,0.0,0.0,0.0,0.0,0.0,0.0,0.0,-1.6081,-1.6707,-1.693,-1.7367,-1.7656,-1.7846,-1.772,-1.7585,-1.7482,-1.7798,-1.8054,-1.8175,-1.8489,-1.8581,-1.8532,-1.8396,-1.8228,-1.7968,-1.7563,-1.7759,-1.8185,-3.1724,-3.1595,-3.1451,-3.1336,-3.0866,-3.0464,-3.0342,-3.0038,-2.9761,-2.9634,-2.8521,-2.8032,-2.8817,-2.7538,-2.6566,-2.6437,-2.4314,-2.3016,-2.3003,-2.17,-2.0901,0.0,0.0,-2.0699,-2.0699,-2.0699,-2.0699,-2.0699,0.0,0.0,-2.0473,0.0,-2.0105,-1.9991,-1.9991,-1.9901,-1.9773,-1.9786,-1.9798,-1.9798,-1.9798,-1.9497,-1.9008,-1.9008,-1.8669,-1.8229,-1.8229,-1.7865,-1.7423,-1.741,-1.6967,-1.6414,-1.6479,-1.6457,-1.6392,-1.6392,-1.6318,-1.62,-1.62,-1.62,-1.6166,-1.6044,-1.5988,-1.5979,-1.5836,-1.5792,-1.577,-1.5715,-1.5289,-1.4846,-1.4639,-1.4278,-1.3868,-1.3467,0.0,0.0,0.0,0.0,0.0,0.0,-1.2978,-1.292,-1.3007,0.0,0.0,0.0,0.0,0.0,0.0,0.0,0.0,-1.4001,-1.4397,0.0,-1.4602,-1.5753,-1.6305,-1.6316,-1.6917,-1.7383,-1.7704,-1.7967,-1.8098,-1.8098,-1.8098,-1.8352,-1.8786,-1.8659,-1.8781,-1.9054,-1.8667,-1.8204,-1.7768,-1.7575,-1.7738,-1.8092,-3.1117,-3.0866,-3.0643,-3.0523,-3.0054,-2.9608,-2.9341,-2.898,-2.8739,-2.8587,-2.7497,-2.6837,-2.7101,-2.6245,-2.5547,0.0,-2.3742,-2.2724,0.0,-2.1495,-2.0762,-2.0762,-2.0712,-2.0662,-2.0562,-2.0562,-2.0511,-2.0359,0.0,0.0,0.0,-2.0144,-2.0042,-1.999,-1.9901,-1.9837,-1.9798,-1.9798,-1.9798,-1.9773,-1.9384,-1.9146,-1.8958,-1.8581,-1.8355,-1.8204,-1.8204,-1.7793,-1.7272,-1.7272,-1.6821,-1.6275,-1.6297,-1.6275,-1.6253,-1.6253,-1.6244,-1.6178,-1.61,-1.6066,-1.6022,-1.5836,-1.5792,-1.577,-1.5637,-1.5525,-1.539,-1.5198,-1.4846,-1.4466,-1.4127,-1.3739,-1.3396,-1.3234,-1.3113,0.0,0.0,0.0,0.0,0.0,0.0,-1.2676,0.0,-1.2603,0.0,0.0,0.0,0.0,0.0,0.0,0.0,0.0,-1.4036,0.0,-1.4861,-1.5631,-1.6291,-1.6785,-1.695,-1.7136,-1.7308,-1.7286,-1.7201,-1.7096,-1.7406,-1.7638,-1.7788,-1.8075,-1.8174,-1.8114,-1.8012,-1.7809,-1.7562,-1.7163,-1.7363,-1.7801,-3.0538,-3.0221,-2.9884,-2.973,-2.9279,-2.8853,-2.8643,-2.8398,-2.8183,-2.8112,-2.704,-2.6263,-2.6233,-2.5418,0.0,-2.4635,-2.3319,-2.2523,-2.2536,-2.1367,-2.0687,-2.0637,-2.0612,-2.0562,-2.0398,0.0,0.0,-2.0207,-2.0156,-2.0105,-2.0042,-1.9952,-1.9926,-1.9926,-1.9837,-1.9798,-1.9798,-1.9798,-1.9798,-1.9761,-1.9208,-1.8882,-1.8632,-1.8103,-1.7741,-1.753,-1.753,-1.7215,-1.6826,-1.6769,-1.6436,-1.6047,-1.6025,-1.5981,-1.5947,-1.6025,-1.6025,-1.5969,-1.5846,-1.5812,-1.578,-1.5592,-1.5559,-1.5503,-1.5334,-1.5153,-1.4983,-1.4754,-1.4443,-1.4069,-1.3716,-1.3382,-1.3128,-1.3051,-1.2905,-1.2808,-1.27,0.0,0.0,0.0,0.0,0.0,0.0,-1.2348,0.0,0.0,0.0,0.0,0.0,0.0,0.0,-1.3343,-1.3886,0.0,-1.4963,-1.5566,-1.6178,-1.6769,-1.6939,-1.7025,-1.7071,-1.7119,-1.7067,-1.6946,-1.7258,-1.7374,-1.7393,-1.7697,-1.7691,-1.7501,-1.7501,-1.7407,-1.7226,-1.693,-1.7122,-1.7472,-3.0068,-2.9591,0.0,0.0,-2.8592,0.0,-2.8254,-2.8164,-2.8033,-2.7993,-2.6982,-2.6188,-2.6038,-2.4978,-2.4292,-2.4263,0.0,0.0,0.0,-2.1315,-2.0624,-2.0486,-2.0486,-2.0385,-2.0182,-2.0182,-2.0182,-2.0182,-2.0042,-1.9926,-1.9798,-1.9798,-1.9798,-1.9798,-1.9798,-1.9798,-1.9798,-1.9798,-1.9798,-1.9748,-1.9171,-1.8632,-1.8118,-1.7528,-1.692,-1.6371,-1.6349,-1.6275,-1.6144,-1.6001,-1.5869,-1.5748,-1.5659,-1.557,-1.5491,-1.5703,-1.5726,-1.5649,-1.5491,-1.5468,-1.5424,-1.5289,-1.5244,-1.5165,-1.4915,-1.4697,-1.45,-1.4373,-1.4022,-1.3692,-1.342,-1.3234,-1.3036,-1.2905,-1.2783,-1.27,-1.2676,0.0,0.0,0.0,0.0,0.0,0.0,-1.2175,-1.211,0.0,0.0,0.0,0.0,0.0,-1.3171,-1.3171,-1.3912,-1.4496,-1.4901,-1.5506,-1.6028,-1.6431,-1.6819,-1.703,-1.7078,-1.7353,-1.7527,-1.7555,-1.7555,-1.7536,-1.7508,-1.7508,-1.7376,-1.7166,-1.7166,-1.7091,-1.6945,-1.6945,-1.7068,-1.725,0.0,0.0,-2.8514,-2.8495,-2.817,-2.7908,-2.7908,-2.7756,-2.7512,-2.7111,-2.6382,-2.5747,-2.5301,-2.459,-2.4112,-2.3995,-2.3039,-2.236,-2.2238,-2.1173,-2.0448,-2.0296,-2.0258,-2.0195,-2.0042,-2.0042,-2.0003,-1.9875,-1.9862,-1.9824,-1.9798,-1.9798,-1.9798,-1.9798,-1.9798,-1.9798,-1.9798,-1.9798,-1.9798,-1.9723,-1.8659,-1.8149,-1.7925,-1.6774,-1.6242,-1.6088,-1.5979,-1.5881,-1.5804,-1.5669,-1.5536,-1.5368,-1.5164,-1.5074,-1.5096,-1.5345,-1.5402,-1.5345,-1.5119,-1.5051,-1.5006,-1.48,-1.4616,-1.4408,-1.4258,-1.4106,-1.3962,-1.381,-1.3563,-1.33,-1.3186,-1.3051,-1.2905,-1.2783,-1.2725,-1.2627,-1.2431,-1.2382,0.0,0.0,-1.2175,-1.215,-1.215,-1.2126,-1.2229,0.0,0.0,0.0,0.0,-1.3516,-1.371,-1.371,-1.418,-1.4641,-1.5038,-1.5601,-1.6171,-1.6727,-1.7,-1.7323,-1.7617,-1.7524,-1.7675,-1.7944,-1.7944,-1.7769,-1.75,-1.75,-1.7289,-1.6968,-1.6968,-1.7127,-1.7358,-1.7358,-1.7595,-1.7908,-2.7947,-2.7818,-2.7672,-2.7672,-2.767,-2.7656,-2.7656,-2.7367,-2.7027,-2.6745,-2.5879,-2.5179,-2.4897,-2.4274,-2.3848,-2.376,-2.2857,-2.2251,-2.2061,-2.1004,-2.0296,-2.0118,-2.0105,-2.0054,-1.9926,-1.9901,-1.9862,-1.9798,-1.9798,-1.9798,-1.9798,-1.9798,-1.9798,-1.9798,-1.9798,-1.9773,-1.9708,-1.9708,-1.9656,-1.9427,-1.8265,-1.7738,-1.7496,-1.6289,-1.5724,-1.5568,-1.5513,-1.5379,-1.5232,-1.5108,-1.5006,-1.4834,-1.464,-1.4536,-1.4513,-1.4581,-1.4754,-1.4846,-1.464,-1.4536,-1.4444,-1.4291,-1.4022,-1.3823,-1.3742,-1.3624,-1.3491,-1.3392,-1.3272,-1.3104,-1.2954,-1.2856,-1.2759,-1.2627,-1.2554,-1.248,-1.2323,-1.2258,0.0,-1.2349,-1.2367,-1.245,-1.2643,-1.2661,-1.2753,-1.2964,0.0,0.0,-1.3837,-1.4396,-1.4543,-1.4185,-1.457,-1.5065,-1.5652,-1.6112,-1.6618,-1.7129,-1.7274,-1.7537,-1.7944,-1.7825,-1.7908,-1.8091,-1.8091,-1.799,-1.7779,-1.7779,-1.766,-1.7458,-1.7458,-1.7596,-1.7779,-1.7779,-1.7843,-1.797,-2.6509,-2.6631,-2.669,-2.669,-2.6948,-2.7163,-2.7163,-2.6792,-2.6453,-2.6393,-2.5363,-2.4637,-2.4546,-2.397,-2.3599,-2.3569,-2.2781,-2.2164,-2.1884,-2.0808,-2.0105,-1.999,-1.9965,-1.9926,-1.9798,-1.9798,-1.9798,-1.9798,-1.9798,-1.9798,-1.9798,-1.9798,-1.9798,-1.9773,-1.9773,-1.9682,-1.9539,-1.9512,-1.9333,-1.8953,-1.7884,-1.7267,-1.6894,-1.5821,-1.5232,-1.4994,-1.4949,-1.4789,-1.4571,-1.4523,-1.4407,-1.428,-1.4129,-1.4001,-1.3884,-1.3763,-1.3928,-1.4186,-1.4106,-1.3978,-1.3836,-1.3716,-1.3525,-1.3348,-1.3324,-1.3252,-1.3142,-1.3075,-1.3051,-1.2978,-1.2735,-1.2676,-1.2627,-1.2505,-1.2372,-1.2298,-1.2274,0.0,-1.2312,-1.2652,-1.2744,-1.2946,-1.3341,-1.3387,-1.3433,-1.3561,-1.4212,-1.4625,0.0,-1.5322,-1.5414,-1.4808,-1.5111,-1.5643,-1.6361,-1.6798,-1.7165,-1.7495,-1.7559,-1.7807,-1.8173,-1.8173,-1.821,-1.8264,-1.8264,-1.8228,-1.8145,-1.8145,-1.8108,-1.8016,-1.8016,-1.8043,-1.8089,-1.8034,-1.7931,-1.7855,-2.6184,-2.5984,-2.581,-2.581,-2.5703,-2.5659,-2.5659,-2.5582,-2.5351,-2.4906,-2.4656,-2.4343,-2.3838,-2.368,-2.3539,-2.3433,-2.2894,-2.2308,-2.1784,-2.065,-1.9978,-1.9837,-1.9824,-1.9837,-1.9798,-1.9798,-1.9798,-1.9798,-1.9798,-1.9798,-1.9798,-1.9798,-1.9734,-1.963,-1.963,-1.95,-1.9265,-1.9146,-1.876,-1.8175,-1.7157,-1.6483,-1.5983,-1.4979,-1.4558,-1.4489,-1.4258,-1.4131,-1.4095,-1.3975,-1.3915,-1.3858,-1.361,-1.3505,-1.3457,-1.3338,-1.3286,-1.333,-1.3467,-1.3433,-1.3314,-1.3234,-1.3172,-1.3123,-1.3002,-1.2968,-1.2944,-1.2929,-1.2832,-1.2759,-1.271,-1.2603,-1.248,-1.2348,-1.2298,-1.2249,-1.215,0.0,-1.2625,-1.2689,-1.301,-1.3351,-1.3782,-1.3819,-1.4075,-1.4763,-1.4937,-1.5157,-1.5487,-1.5625,-1.5799,-1.5995,-1.6092,-1.6349,-1.6807,-1.7211,-1.744,-1.7495,-1.7853,-1.8238,-1.8623,-1.8623,-1.8806,-1.9118,-1.9118,-1.8818,-1.8364,-1.8364,-1.8051,-1.7596,-1.7596,-1.7792,-1.8041,-1.7712,-1.7801,-1.8038,-2.4762,-2.4887,-2.5014,-2.5014,-2.5165,-2.5294,-2.5294,-2.5038,-2.4787,-2.4518,-2.4144,-2.3803,-2.3518,-2.339,-2.3318,-2.3228,-2.2753,-2.2198,-2.163,-2.0835,-2.019,-1.9811,-1.9798,-1.9798,-1.9798,-1.9798,-1.9798,-1.9798,-1.9734,-1.9682,-1.9682,-1.954,-1.9436,-1.937,-1.9225,-1.9066,-1.8869,-1.8629,-1.8084,-1.7324,-1.6491,-1.5772,-1.5125,-1.437,-1.3999,-1.3847,-1.3718,-1.3624,-1.3552,-1.3515,-1.3454,-1.3402,-1.3272,-1.3176,-1.3128,-1.3055,-1.3065,-1.3099,-1.3128,-1.3079,-1.3031,-1.3002,-1.3155,-1.3298,-1.3248,-1.3338,-1.3452,-1.3452,-1.3167,-1.2887,-1.2827,-1.2761,-1.2676,-1.2549,-1.2693,0.0,0.0,-1.2919,-1.3194,-1.3607,-1.3827,-1.4185,-1.4799,-1.4854,-1.501,-1.5386,-1.5625,-1.5927,-1.6321,-1.6349,-1.6532,-1.6936,-1.6743,-1.6826,-1.722,-1.7403,-1.7715,-1.8155,-1.831,-1.865,-1.9026,-1.9026,-1.9058,-1.9152,-1.9152,-1.8933,-1.8544,-1.8544,-1.8398,-1.816,-1.816,-1.8133,-1.8071,-1.7894,-1.7861,-1.7951,-2.3599,-2.3944,-2.4239,-2.4239,-2.4566,-2.4784,-2.4784,-2.4446,-2.4165,-2.4165,-2.3687,-2.333,-2.333,-2.3198,-2.3108,-2.3108,-2.2689,-2.2163,-2.1447,-2.0982,-2.0459,-1.9836,-1.9798,-1.9798,-1.9759,-1.9759,-1.9734,-1.9708,-1.9617,-1.9539,-1.95,-1.9265,-1.9107,-1.8963,-1.8747,-1.8506,-1.8251,-1.7968,-1.7348,-1.6523,-1.5834,-1.5131,-1.4426,-1.3855,-1.3512,-1.3334,-1.3286,-1.3204,-1.3132,-1.3132,-1.3104,-1.3051,-1.3051,-1.2978,-1.2905,-1.2905,-1.2978,-1.3027,-1.2929,-1.2983,-1.3027,-1.3027,-1.3315,-1.3601,-1.3601,-1.3722,-1.3846,-1.3846,-1.3508,-1.3159,-1.3055,-1.3019,-1.2967,-1.2862,0.0,0.0,0.0,-1.3516,-1.3846,-1.4561,-1.4735,-1.5065,-1.5762,-1.5835,-1.5909,-1.6092,-1.6404,-1.6762,-1.7165,-1.7183,-1.733,-1.7633,-1.7257,-1.7193,-1.7495,-1.7688,-1.8091,-1.8715,-1.8806,-1.8969,-1.9231,-1.9231,-1.9112,-1.8922,-1.8922,-1.8812,-1.8612,-1.8523,-1.8439,-1.8439,-1.8439,-1.8245,-1.7972,-1.7972,-1.7865,-1.7718,-2.3599,-2.3548,-2.3484,-2.3484,-2.3359,-2.3251,-2.3251,-2.3226,-2.3201,-2.3201,-2.3163,-2.3108,-2.3108,-2.3108,-2.3108,-2.3108,-2.2962,-2.2357,-2.1205,-2.0925,-2.0505,-1.9823,-1.9798,-1.9734,-1.9604,-1.9617,-1.9539,-1.942,-1.942,-1.9356,-1.9239,-1.9093,-1.8762,-1.836,-1.8213,-1.7831,-1.7301,-1.7151,-1.6609,-1.5815,-1.5136,-1.4579,-1.4052,-1.3405,-1.3123,-1.3109,-1.2978,-1.292,-1.2929,-1.2929,-1.2929,-1.2905,-1.2905,-1.2905,-1.2905,-1.2905,-1.2905,-1.2905,-1.2905,-1.3164,-1.3467,-1.3467,-1.3665,-1.3869,-1.3869,-1.38,-1.3703,-1.3703,-1.3576,-1.3467,-1.3467,-1.3358,-1.3277,-1.325,0.0,0.0,-1.3782,-1.4176,-1.4579,-1.5001,-1.5377,-1.578,-1.6196,-1.6276,-1.6578,-1.7312,-1.7385,-1.7596,-1.7972,-1.7999,-1.8017,-1.8036,-1.7669,-1.7468,-1.7495,-1.8247,-1.865,-1.8715,-1.9081,-1.9155,-1.9002,-1.9002,-1.8922,-1.874,-1.874,-1.8612,-1.8376,-1.8027,-1.7761,-1.7587,-1.7587,-1.757,-1.7544,-1.7544,-1.7544,-1.7514,-2.3288,-2.3258,-2.3198,-2.3198,-2.3138,-2.3108,-2.3108,-2.3108,-2.3108,-2.3108,-2.3017,-2.3,-2.3,-2.2775,-2.2653,-2.2653,-2.2427,-2.1825,-2.0733,-2.0488,-2.0065,-1.934,-1.9291,-1.9251,-1.9105,-1.9105,-1.9052,-1.8907,-1.8774,-1.8655,-1.8498,-1.8224,-1.7897,-1.7595,-1.729,-1.7039,-1.6797,-1.6531,-1.6063,-1.5399,-1.5066,-1.46,-1.4076,-1.3824,-1.3572,-1.3347,-1.3297,-1.3105,-1.2905,-1.2905,-1.2905,-1.2905,-1.2905,-1.2905,-1.2954,-1.3193,-1.3212,-1.3194,-1.3455,-1.3455,-1.3436,-1.3697,-1.3949,-1.4155,-1.4155,-1.4242,-1.4316,-1.4316,-1.4035,-1.3829,-1.4059,-1.4076,-1.413,-1.4378,0.0,-1.4836,-1.4983,-1.5139,-1.5395,-1.5808,-1.5982,-1.6331,-1.6991,-1.7046,-1.7275,-1.7844,-1.7761,-1.7869,-1.8248,-1.8038,-1.7731,-1.7296,-1.7404,-1.7636,-1.8031,-1.8253,-1.8455,-1.8707,-1.885,-1.8882,-1.8812,-1.8812,-1.8692,-1.8523,-1.8523,-1.8362,-1.8126,-1.7747,-1.7553,-1.7505,-1.7505,-1.7291,-1.6957,-1.7234,-1.7122,-1.6886,-2.3108,-2.3108,-2.3108,-2.3108,-2.3108,-2.3108,-2.3108,-2.3108,-2.3078,-2.3047,-2.2909,-2.2787,-2.2696,-2.2408,-2.2192,-2.2099,-2.1827,-2.1162,-2.0036,-1.9402,-1.8992,-1.8783,-1.8774,-1.8694,-1.8518,-1.8518,-1.8452,-1.8306,-1.817,-1.7995,-1.7804,-1.7484,-1.719,-1.6909,-1.657,-1.641,-1.6296,-1.6066,-1.5703,-1.5233,-1.503,-1.4692,-1.4299,-1.4163,-1.3929,-1.3685,-1.3685,-1.3437,-1.3076,-1.3076,-1.2988,-1.2905,-1.2905,-1.2969,-1.3085,-1.3367,-1.3423,-1.3511,-1.3932,-1.38,-1.363,-1.3943,-1.4326,-1.4618,-1.4618,-1.4818,-1.5006,-1.5006,-1.4733,-1.4543,-1.4827,-1.4882,-1.4974,-1.5239,-1.5515,-1.5735,-1.5863,-1.589,-1.605,-1.6531,-1.6585,-1.6815,-1.7442,-1.7506,-1.7678,-1.8087,-1.7925,-1.7905,-1.8188,-1.7843,-1.7448,-1.6865,-1.706,-1.7352,-1.7764,-1.7961,-1.8219,-1.8491,-1.8614,-1.8524,-1.8299,-1.8452,-1.8354,-1.7991,-1.808,-1.8,-1.7772,-1.7352,-1.7201,-1.7192,-1.7114,-1.6838,-1.6508,-1.684,-1.6741,-1.6461,-2.3108,-2.3108,-2.3108,-2.3108,-2.3108,-2.3108,-2.3095,-2.3095,-2.3047,-2.2909,-2.2769,-2.2555,-2.2228,-2.1994,-2.1753,-2.142,-2.1187,-2.0481,-1.9085,-1.7618,-1.7245,-1.8251,-1.8278,-1.817,-1.7897,-1.7881,-1.7815,-1.7694,-1.7694,-1.7529,-1.719,-1.7039,-1.6729,-1.6296,-1.6142,-1.5951,-1.5701,-1.5701,-1.5575,-1.5381,-1.4961,-1.4785,-1.4746,-1.428,-1.4114,-1.4114,-1.4114,-1.3841,-1.3516,-1.3516,-1.3232,-1.2905,-1.2905,-1.3099,-1.3301,-1.3311,-1.3513,-1.3797,-1.4185,-1.4204,-1.4147,-1.427,-1.4803,-1.5287,-1.5297,-1.5508,-1.5689,-1.5689,-1.5689,-1.5689,-1.5689,-1.5689,-1.5698,-1.5698,-1.5698,-1.5845,-1.6266,-1.6297,-1.6522,-1.7126,-1.7189,-1.7278,-1.7486,-1.7492,-1.7643,-1.8062,-1.7912,-1.7764,-1.7683,-1.748,-1.7277,-1.6992,-1.678,-1.6583,-1.6394,-1.7465,-1.8,-1.8,-1.8408,-1.8152,-1.7408,-1.7929,-1.7805,-1.7098,-1.731,-1.7392,-1.7367,-1.6725,-1.6491,-1.6452,-1.6285,-1.6206,-1.6206,-1.6351,-1.6394,-1.6312,-2.3108,-2.3108,-2.3078,-2.3,-2.2969,-2.2866,-2.2622,-2.2592,-2.25,-2.223,-2.1963,-2.1651,-2.1316,-2.0912,-2.0549,-2.0291,-2.0031,-1.9329,-1.8151,-1.7369,-1.6888,-1.6768,-1.7067,-1.7162,-1.6994,-1.6994,-1.6909,-1.6729,-1.6729,-1.6627,-1.6428,-1.6304,-1.6104,-1.5875,-1.5681,-1.5555,-1.5478,-1.5478,-1.5449,-1.54,-1.5273,-1.5225,-1.5215,-1.5078,-1.4844,-1.459,-1.459,-1.4289,-1.3919,-1.3919,-1.3636,-1.3295,-1.3219,-1.3355,-1.3651,-1.3909,-1.4006,-1.4082,-1.4484,-1.4693,-1.4826,-1.4986,-1.5071,-1.5237,-1.5514,-1.5638,-1.5689,-1.5689,-1.5689,-1.578,-1.6074,-1.6129,-1.6221,-1.6496,-1.643,-1.6365,-1.6491,-1.6649,-1.6741,-1.6756,-1.6982,-1.7139,-1.7231,-1.7226,-1.7341,-1.7569,-1.7242,-1.6758,-1.6131,-1.6049,-1.5801,-1.5394,-1.5352,-1.5269,-1.5193,-1.618,-1.6673,-1.6673,-1.698,-1.6923,-1.6484,-1.6862,-1.6873,-1.6599,-1.6681,-1.6689,-1.6657,-1.6221,-1.592,-1.5808,-1.5728,-1.5601,-1.5518,-1.5647,-1.5477,-1.5151,-2.3017,-2.3017,-2.2957,-2.2726,-2.2665,-2.2543,-2.2254,-2.2099,-2.1901,-2.1628,-2.125,-2.088,-2.0495,-2.0074,-1.9671,-1.9419,-1.8911,-1.8352,-1.7715,-1.7184,-1.6658,-1.6136,-1.6379,-1.6453,-1.6335,-1.6324,-1.6278,-1.6134,-1.6134,-1.6066,-1.5951,-1.5855,-1.5749,-1.5575,-1.5449,-1.541,-1.541,-1.541,-1.541,-1.541,-1.541,-1.541,-1.541,-1.541,-1.5254,-1.5039,-1.5039,-1.4728,-1.4303,-1.4303,-1.3978,-1.3561,-1.3473,-1.3635,-1.3913,-1.4157,-1.4231,-1.4338,-1.4766,-1.497,-1.5216,-1.5601,-1.5643,-1.5643,-1.5881,-1.599,-1.6066,-1.6066,-1.6117,-1.624,-1.6493,-1.6674,-1.6864,-1.7099,-1.6938,-1.6785,-1.6785,-1.6771,-1.6721,-1.6689,-1.6704,-1.6757,-1.6813,-1.6645,-1.6516,-1.6478,-1.6124,-1.5688,-1.5198,-1.5085,-1.4873,-1.4448,-1.4448,-1.4352,-1.4195,-1.4768,-1.5228,-1.5567,-1.5933,-1.5911,-1.5443,-1.594,-1.5989,-1.5733,-1.5824,-1.5906,-1.585,-1.5509,-1.5264,-1.5068,-1.4986,-1.4856,-1.4755,-1.474,-1.4566,-1.4279,-2.2878,-2.2818,-2.2696,-2.2359,-2.2173,-2.2018,-2.1753,-2.1471,-2.1198,-2.0965,-2.0549,-2.0128,-1.9748,-1.9408,-1.9088,-1.8774,-1.8068,-1.7622,-1.7582,-1.7066,-1.6572,-1.6114,-1.6095,-1.6019,-1.5866,-1.5856,-1.5856,-1.5856,-1.5856,-1.5798,-1.5672,-1.5672,-1.5575,-1.541,-1.541,-1.541,-1.541,-1.541,-1.541,-1.541,-1.541,-1.541,-1.541,-1.5381,-1.5391,-1.5391,-1.5381,-1.5051,-1.4637,-1.4599,-1.422,-1.378,-1.3751,-1.3932,-1.4146,-1.4146,-1.4318,-1.4643,-1.5001,-1.5157,-1.5386,-1.6096,-1.6334,-1.6379,-1.6343,-1.649,-1.6622,-1.6622,-1.6768,-1.6899,-1.6854,-1.7153,-1.7371,-1.7371,-1.7157,-1.6997,-1.6951,-1.6645,-1.6489,-1.6632,-1.6301,-1.6132,-1.6278,-1.591,-1.546,-1.5098,-1.4811,-1.4682,-1.474,-1.4549,-1.4338,-1.4062,-1.4062,-1.3852,-1.3431,-1.3425,-1.3838,-1.4614,-1.5168,-1.5053,-1.4368,-1.5094,-1.512,-1.4608,-1.4873,-1.4957,-1.4964,-1.4699,-1.4482,-1.4314,-1.4097,-1.4055,-1.4013,-1.373,-1.3652,-1.361,-2.2512,-2.2304,-2.2013,-2.1683,-2.138,-2.1019,-2.0549,-2.0291,-2.0031,-1.9726,-1.9507,-1.9231,-1.8841,-1.863,-1.8428,-1.8178,-1.8021,-1.7792,-1.7458,-1.7328,-1.6885,-1.6124,-1.6095,-1.5919,-1.5517,-1.5507,-1.5507,-1.5507,-1.5507,-1.5507,-1.5478,-1.5478,-1.5449,-1.541,-1.541,-1.541,-1.541,-1.541,-1.541,-1.541,-1.541,-1.541,-1.5381,-1.5284,-1.5235,-1.5235,-1.5117,-1.5002,-1.4868,-1.4478,-1.4411,-1.4428,-1.411,-1.4191,-1.4407,-1.4407,-1.4692,-1.4992,-1.5084,-1.557,-1.6026,-1.6057,-1.6538,-1.6918,-1.6627,-1.6801,-1.6983,-1.6659,-1.67,-1.6773,-1.6614,-1.6539,-1.6493,-1.6493,-1.6294,-1.6087,-1.588,-1.5927,-1.5858,-1.5585,-1.5708,-1.5673,-1.5397,-1.5177,-1.497,-1.4654,-1.4573,-1.4428,-1.4097,-1.4065,-1.3924,-1.3648,-1.3648,-1.3579,-1.3479,-1.3473,-1.3629,-1.402,-1.4143,-1.4093,-1.3933,-1.4106,-1.41,-1.3899,-1.399,-1.399,-1.399,-1.3948,-1.3815,-1.3603,-1.3561,-1.3561,-1.3519,-1.3307,-1.3228,-1.3179,-2.1839,-2.1588,-2.1293,-2.0848,-2.0495,-2.015,-1.977,-1.9485,-1.9253,-1.9088,-1.8865,-1.864,-1.8438,-1.8245,-1.811,-1.8008,-1.8008,-1.792,-1.7695,-1.7686,-1.7295,-1.6416,-1.6387,-1.6084,-1.542,-1.541,-1.541,-1.541,-1.541,-1.541,-1.541,-1.541,-1.541,-1.541,-1.541,-1.541,-1.541,-1.5332,-1.5313,-1.5313,-1.5225,-1.5225,-1.5196,-1.5117,-1.5098,-1.5098,-1.5039,-1.4941,-1.4815,-1.4492,-1.4499,-1.4579,-1.4366,-1.439,-1.4522,-1.4605,-1.4774,-1.5019,-1.5295,-1.571,-1.6057,-1.6227,-1.659,-1.6874,-1.6661,-1.6737,-1.675,-1.6341,-1.6294,-1.6262,-1.6076,-1.6094,-1.6134,-1.6134,-1.5976,-1.5777,-1.5602,-1.5521,-1.5349,-1.4981,-1.5062,-1.4955,-1.4557,-1.4462,-1.4327,-1.405,-1.3999,-1.3915,-1.3701,-1.3701,-1.3595,-1.3332,-1.3447,-1.3459,-1.3332,-1.3453,-1.3643,-1.3845,-1.3721,-1.3591,-1.3467,-1.3467,-1.3448,-1.3398,-1.3398,-1.3398,-1.3398,-1.3398,-1.3264,-1.3052,-1.3052,-1.3052,-1.3052,-1.296,-1.2924,-1.2875,-2.1028,-2.0752,-2.0474,-2.0009,-1.9627,-1.933,-1.9144,-1.8865,-1.864,-1.864,-1.8405,-1.8236,-1.8236,-1.811,-1.8008,-1.8008,-1.8008,-1.8008,-1.8008,-1.8008,-1.7594,-1.6736,-1.6697,-1.6287,-1.543,-1.541,-1.541,-1.541,-1.541,-1.541,-1.541,-1.5391,-1.5362,-1.5352,-1.5332,-1.5332,-1.5332,-1.5205,-1.5156,-1.5156,-1.5039,-1.5,-1.5,-1.497,-1.4941,-1.4941,-1.4911,-1.4784,-1.4597,-1.4506,-1.4446,-1.4417,-1.4417,-1.4471,-1.455,-1.4683,-1.48,-1.5019,-1.5462,-1.5667,-1.5861,-1.6291,-1.6476,-1.6496,-1.6431,-1.6464,-1.6376,-1.5915,-1.5795,-1.5669,-1.5451,-1.5669,-1.5865,-1.5925,-1.5774,-1.5587,-1.5562,-1.5282,-1.4944,-1.464,-1.4526,-1.4326,-1.3977,-1.3948,-1.3881,-1.3652,-1.3646,-1.3646,-1.3646,-1.3604,-1.3483,-1.3221,-1.3471,-1.3477,-1.326,-1.3519,-1.3755,-1.3972,-1.3707,-1.3441,-1.3188,-1.3101,-1.3088,-1.3083,-1.3083,-1.3083,-1.3083,-1.3034,-1.2881,-1.2705,-1.2705,-1.2705,-1.2705,-1.2705,-1.2705,-1.2705,-2.0258,-1.9868,-1.9441,-1.9264,-1.8908,-1.8617,-1.8472,-1.8236,-1.811,-1.811,-1.8076,-1.8042,-1.8042,-1.8008,-1.8008,-1.8008,-1.8008,-1.8008,-1.8008,-1.8008,-1.7594,-1.6736,-1.6697,-1.6287,-1.543,-1.541,-1.541,-1.541,-1.541,-1.541,-1.541,-1.5284,-1.5235,-1.5215,-1.5117,-1.5059,-1.5059,-1.5029,-1.5039,-1.5039,-1.5009,-1.5,-1.497,-1.4804,-1.4745,-1.4715,-1.4625,-1.4476,-1.4357,-1.4327,-1.4207,-1.407,-1.407,-1.4319,-1.4542,-1.4399,-1.4848,-1.5364,-1.507,-1.5475,-1.5889,-1.5643,-1.5869,-1.6094,-1.574,-1.6055,-1.6245,-1.5651,-1.5516,-1.5369,-1.5184,-1.5005,-1.4993,-1.5262,-1.5304,-1.5187,-1.5018,-1.4963,-1.4747,-1.4308,-1.4234,-1.4232,-1.4177,-1.4198,-1.4243,-1.4189,-1.4189,-1.4189,-1.4189,-1.3978,-1.3839,-1.3803,-1.3833,-1.3839,-1.3803,-1.4057,-1.4208,-1.4244,-1.3978,-1.3719,-1.3453,-1.323,-1.3103,-1.3111,-1.3111,-1.3111,-1.3092,-1.285,-1.2747,-1.2705,-1.2705,-1.2705,-1.2705,-1.2705,-1.2705,-1.2705,-1.9419,-1.9088,-1.8798,-1.8674,-1.8405,-1.8212,-1.8144,-1.8076,-1.8008,-1.8008,-1.8008,-1.8105,-1.8295,-1.8325,-1.8325,-1.8325,-1.8144,-1.8008,-1.8008,-1.8008,-1.7734,-1.7119,-1.6983,-1.6619,-1.5959,-1.5657,-1.5512,-1.5512,-1.537,-1.5254,-1.5167,-1.5117,-1.5098,-1.5098,-1.5039,-1.5,-1.5,-1.4872,-1.4843,-1.4843,-1.4743,-1.4714,-1.4714,-1.4616,-1.4586,-1.4586,-1.4446,-1.4357,-1.4267,-1.4079,-1.41,-1.4153,-1.4052,-1.4196,-1.4453,-1.4461,-1.4547,-1.4681,-1.4799,-1.4992,-1.517,-1.5288,-1.545,-1.5526,-1.5323,-1.5353,-1.5386,-1.5107,-1.4926,-1.4776,-1.4587,-1.4549,-1.4577,-1.4569,-1.473,-1.4803,-1.4533,-1.4514,-1.4437,-1.4224,-1.4118,-1.4101,-1.4253,-1.4273,-1.4298,-1.4298,-1.4298,-1.4232,-1.4087,-1.3833,-1.3622,-1.3471,-1.361,-1.3688,-1.3688,-1.4093,-1.4298,-1.4292,-1.4032,-1.3845,-1.3725,-1.3465,-1.3344,-1.3338,-1.3188,-1.3083,-1.3103,-1.2819,-1.2705,-1.2705,-1.2705,-1.2705,-1.2705,-1.2705,-1.2705,-1.2705]},{"header":{"parameterUnit":"m.s-1","parameterCategory":1,"la1":30.6,"la2":28.766,"lo1":-90.7593,"lo2":-88.6598,"dy":0.0162,"dx":0.0183,"nx":116,"ny":114,"refTime":"2023-07-26T12:00:00:Z","depth":0,"parameterNumber":3,"parameterNumberName":"V-component_of_WINDS"},"data":[0.0,0.0,0.0,0.0,0.0,0.0,0.0,0.0,0.0,0.0,0.0,0.0,0.0,0.0,0.0,0.0,0.0,0.0,0.0,0.0,0.0,0.0,0.0,0.0,0.0,0.0,0.0,0.0,0.0,0.0,0.0,0.0,0.0,0.0,0.0,0.0,0.0,0.0,0.0,0.0,0.0,0.0,0.0,0.0,0.0,0.0,0.0,0.0,0.0,0.0,0.0,0.0,0.0,0.0,0.0,0.0,0.0,0.0,0.0,0.0,0.0,0.0,0.0,0.0,0.0,0.0,0.0,0.0,0.0,0.0,0.0,0.0,0.0,0.0,0.0,0.0,0.0,0.0,0.0,0.0,0.0,0.0,0.0,0.0,0.0,0.0,0.0,0.0,0.0,0.0,0.0,0.0,0.0,0.0,0.0,0.0,0.0,0.0,0.0,0.0,0.0,0.0,0.0,0.0,0.0,0.0,0.0,0.0,0.0,0.0,0.0,0.0,0.0,0.0,0.0,0.0,0.0,0.0,0.0,0.0,0.0,0.0,0.0,0.0,0.0,0.0,0.0,0.0,0.0,0.0,0.0,0.0,0.0,0.0,0.0,0.0,0.0,0.0,0.0,0.0,0.0,0.0,0.0,0.0,0.0,0.0,0.0,0.0,0.0,0.0,0.0,0.0,0.0,0.0,0.0,0.0,0.0,0.0,0.0,0.0,0.0,0.0,0.0,0.0,0.0,0.0,0.0,0.0,0.0,0.0,0.0,0.0,0.0,0.0,0.0,0.0,0.0,0.0,0.0,0.0,0.0,0.0,0.0,0.0,0.0,0.0,0.0,0.0,0.0,0.0,0.0,0.0,0.0,0.0,0.0,0.0,0.0,0.0,0.0,0.0,0.0,0.0,0.0,0.0,0.0,0.0,0.0,0.0,0.0,0.0,0.0,0.0,0.0,0.0,0.0,0.0,0.0,0.0,0.0,0.0,0.0,0.0,0.0,0.0,0.0,0.0,0.0,0.0,0.0,0.0,0.0,0.0,0.0,0.0,0.0,0.0,0.0,0.0,0.0,0.0,0.0,0.0,0.0,0.0,0.0,0.0,0.0,0.0,0.0,0.0,0.0,0.0,0.0,0.0,0.0,0.0,0.0,0.0,0.0,0.0,0.0,0.0,0.0,0.0,0.0,0.0,0.0,0.0,0.0,0.0,0.0,0.0,0.0,0.0,0.0,0.0,0.0,0.0,0.0,0.0,0.0,0.0,0.0,0.0,0.0,0.0,0.0,0.0,0.0,0.0,0.0,0.0,0.0,0.0,0.0,0.0,0.0,0.0,0.0,0.0,0.0,0.0,0.0,0.0,0.0,0.0,0.0,0.0,0.0,0.0,0.0,0.0,0.0,0.0,0.0,0.0,0.0,0.0,0.0,0.0,0.0,0.0,0.0,0.0,0.0,0.0,0.0,0.0,0.0,0.0,0.0,0.0,0.0,0.0,0.0,0.0,0.0,0.0,0.0,0.0,0.0,0.0,0.0,0.0,0.0,0.0,0.0,0.0,0.0,0.0,0.0,0.0,0.0,0.0,0.0,0.0,0.0,0.0,0.0,0.0,0.0,0.0,0.0,0.0,0.0,0.0,0.0,0.0,0.0,0.0,0.0,0.0,0.0,0.0,0.0,0.0,0.0,0.0,0.0,0.0,0.0,0.0,0.0,0.0,0.0,0.0,0.0,0.0,0.0,0.0,0.0,0.0,0.0,0.0,0.0,0.0,0.0,0.0,0.0,0.0,0.0,0.0,0.0,0.0,0.0,0.0,0.0,0.0,0.0,0.0,0.0,0.0,0.0,0.0,0.0,0.0,0.0,0.0,0.0,0.0,0.0,0.0,0.0,0.0,0.0,0.0,0.0,0.0,0.0,0.0,0.0,0.0,0.0,0.0,0.0,0.0,0.0,0.0,0.0,0.0,0.0,0.0,0.0,0.0,0.0,0.0,0.0,0.0,0.0,0.0,0.0,0.0,0.0,0.0,0.0,0.0,0.0,0.0,0.0,0.0,0.0,0.0,0.0,0.0,0.0,0.0,0.0,0.0,0.0,0.0,0.0,0.0,0.0,0.0,0.0,0.0,0.0,0.0,0.0,0.0,0.0,0.0,0.0,0.0,0.0,0.0,0.0,0.0,0.0,0.0,0.0,0.0,0.0,0.0,0.0,0.0,0.0,0.0,0.0,0.0,0.0,0.0,0.0,0.0,0.0,0.0,0.0,0.0,0.0,0.0,0.0,0.0,0.0,0.0,0.0,0.0,0.0,0.0,0.0,0.0,0.0,0.0,0.0,0.0,0.0,0.0,0.0,0.0,0.0,0.0,0.0,0.0,0.0,0.0,0.0,0.0,0.0,0.0,0.0,0.0,0.0,0.0,0.0,0.0,0.0,0.0,0.0,0.0,0.0,0.0,0.0,0.0,0.0,0.0,0.0,0.0,0.0,0.0,0.0,0.0,0.0,0.0,0.0,0.0,0.0,0.0,0.0,0.0,0.0,0.0,0.0,0.0,0.0,0.0,0.0,0.0,0.0,0.0,0.0,0.0,0.0,0.0,0.0,0.0,0.0,0.0,0.0,0.0,0.0,0.0,0.0,0.0,0.0,0.0,0.0,0.0,0.0,0.0,0.0,0.0,0.0,0.0,0.0,0.0,0.0,0.0,0.0,0.0,0.0,0.0,0.0,0.0,0.0,0.0,0.0,0.0,0.0,0.0,0.0,0.0,0.0,0.0,0.0,0.0,0.0,0.0,0.0,0.0,0.0,0.0,0.0,0.0,0.0,0.0,0.0,0.0,0.0,0.0,0.0,0.0,0.0,0.0,0.0,0.0,0.0,0.0,0.0,0.0,0.0,0.0,0.0,0.0,0.0,0.0,0.0,0.0,0.0,0.0,0.0,0.0,0.0,0.0,0.0,0.0,0.0,0.0,0.0,0.0,0.0,0.0,0.0,0.0,0.0,0.0,0.0,0.0,0.0,0.0,0.0,0.0,0.0,0.0,0.0,0.0,0.0,0.0,0.0,0.0,0.0,0.0,0.0,0.0,0.0,0.0,0.0,0.0,0.0,0.0,0.0,0.0,0.0,0.0,0.0,0.0,0.0,0.0,0.0,0.0,0.0,0.0,0.0,0.0,0.0,0.0,0.0,0.0,0.0,0.0,0.0,0.0,0.0,0.0,0.0,0.0,0.0,0.0,0.0,0.0,0.0,0.0,0.0,0.0,0.0,0.0,0.0,0.0,0.0,0.0,0.0,0.0,0.0,0.0,0.0,0.0,0.0,0.0,0.0,0.0,0.0,0.0,0.0,0.0,0.0,0.0,0.0,0.0,0.0,0.0,0.0,0.0,0.0,0.0,0.0,0.0,0.0,0.0,0.0,0.0,0.0,0.0,0.0,0.0,0.0,0.0,0.0,0.0,0.0,0.0,0.0,0.0,0.0,0.0,0.0,0.0,0.0,0.0,0.0,0.0,0.0,0.0,0.0,0.0,0.0,0.0,0.0,0.0,0.0,0.0,0.0,0.0,0.0,0.0,0.0,0.0,0.0,0.0,0.0,0.0,0.0,0.0,0.0,0.0,0.0,0.0,0.0,0.0,0.0,0.0,0.0,0.0,0.0,0.0,0.0,0.0,0.0,0.0,0.0,0.0,0.0,0.0,0.0,0.0,0.0,0.0,0.0,0.0,0.0,0.0,0.0,0.0,0.0,0.0,0.0,0.0,0.0,0.0,0.0,0.0,0.0,0.0,0.0,0.0,0.0,0.0,0.0,0.0,0.0,0.0,0.0,0.0,0.0,0.0,0.0,0.0,0.0,0.0,0.0,0.0,0.0,0.0,0.0,0.0,0.0,0.0,0.0,0.0,0.0,0.0,0.0,0.0,0.0,0.0,0.0,0.0,0.0,0.0,0.0,0.0,0.0,0.0,0.0,0.0,0.0,0.0,0.0,0.0,0.0,0.0,0.0,0.0,0.0,0.0,0.0,0.0,0.0,0.0,0.0,0.0,0.0,0.0,0.0,0.0,0.0,0.0,0.0,0.0,0.0,0.0,0.0,0.0,0.0,0.0,0.0,0.0,0.0,0.0,0.0,0.0,0.0,0.0,0.0,0.0,0.0,0.0,0.0,0.0,0.0,0.0,0.0,0.0,0.0,0.0,0.0,0.0,0.0,0.0,0.0,0.0,0.0,0.0,0.0,0.0,0.0,0.0,0.0,0.0,0.0,0.0,0.0,0.0,0.0,0.0,0.0,0.0,0.0,0.0,0.0,0.0,0.0,0.0,0.0,0.0,0.0,0.0,0.0,0.0,0.0,0.0,0.0,0.0,0.0,0.0,0.0,0.0,0.0,0.0,0.0,0.0,0.0,0.0,0.0,0.0,0.0,0.0,0.0,0.0,0.0,0.0,0.0,0.0,0.0,0.0,0.0,0.0,0.0,0.0,0.0,0.0,0.0,0.0,0.0,0.0,0.0,0.0,0.0,0.0,0.0,0.0,0.0,0.0,0.0,0.0,0.0,0.0,0.0,0.0,0.0,0.0,0.0,0.0,0.0,0.0,0.0,0.0,0.0,0.0,0.0,0.0,0.0,0.0,0.0,0.0,0.0,0.0,0.0,0.0,0.0,0.0,0.0,0.0,0.0,0.0,0.0,0.0,0.0,0.0,0.0,0.0,0.0,0.0,0.0,0.0,0.0,0.0,0.0,0.0,0.0,0.0,0.0,0.0,0.0,0.0,0.0,0.0,0.0,0.0,0.0,0.0,0.0,0.0,0.0,0.0,0.0,0.0,0.0,0.0,0.0,0.0,0.0,0.0,0.0,0.0,0.0,0.0,0.0,0.0,0.0,0.0,0.0,0.0,0.0,0.0,0.0,0.0,0.0,0.0,0.0,0.0,0.0,0.0,0.0,0.0,0.0,0.0,0.0,0.0,0.0,0.0,0.0,0.0,0.0,0.0,0.0,0.0,0.0,0.0,0.0,0.0,0.0,0.0,0.0,0.0,0.0,0.0,0.0,0.0,0.0,0.0,0.0,0.0,0.0,0.0,0.0,0.0,0.0,0.0,0.0,0.0,0.0,0.0,0.0,0.0,0.0,0.0,0.0,0.0,0.0,0.0,0.0,0.0,0.0,0.0,0.0,0.0,0.0,0.0,0.0,0.0,0.0,0.0,0.0,0.0,0.0,0.0,0.0,0.0,0.0,0.0,0.0,0.0,0.0,0.0,0.0,0.0,0.0,0.0,0.0,0.0,0.0,0.0,0.0,0.0,0.0,0.0,0.0,0.0,0.0,0.0,0.0,0.0,0.0,0.0,0.0,0.0,0.0,0.0,0.0,0.0,0.0,0.0,0.0,0.0,0.0,0.0,0.0,0.0,0.0,0.0,0.0,0.0,0.0,0.0,0.0,0.0,0.0,0.0,0.0,0.0,0.0,0.0,0.0,0.0,0.0,0.0,0.0,0.0,0.0,0.0,0.0,0.0,0.0,0.0,0.0,0.0,0.0,0.0,0.0,0.0,0.0,0.0,0.0,0.0,0.0,0.0,0.0,0.0,0.0,0.0,0.0,0.0,0.0,0.0,0.0,0.0,0.0,0.0,0.0,0.0,0.0,0.0,0.0,0.0,0.0,0.0,0.0,0.0,0.0,0.0,0.0,0.0,0.0,0.0,0.0,0.0,0.0,0.0,0.0,0.0,0.0,0.0,0.0,0.0,0.0,0.0,0.0,0.0,0.0,0.0,0.0,0.0,0.0,0.0,0.0,0.0,0.0,0.0,0.0,0.0,0.0,0.0,0.0,0.0,0.0,0.0,0.0,0.0,0.0,0.0,0.0,0.0,0.0,0.0,0.0,0.0,0.0,0.0,0.0,0.0,0.0,0.0,0.0,0.0,0.0,0.0,0.0,0.0,0.0,0.0,0.0,0.0,0.0,0.0,0.0,0.0,0.0,0.0,0.0,0.0,0.0,0.0,0.0,0.0,0.0,0.0,0.0,0.0,0.0,0.0,0.0,0.0,0.0,0.0,0.0,0.0,0.0,0.0,0.0,0.0,0.0,0.0,0.0,0.0,0.0,0.0,0.0,0.0,0.0,0.0,0.0,0.0,0.0947,0.0,0.0,0.0,0.0,0.0,0.0,0.0,0.0,0.0,0.0,0.0,0.0,0.0,0.0,0.0,0.0,0.0,0.0,0.0,0.0,0.0,0.0,0.0,0.0,0.0,0.0,0.0,0.0,0.0,0.0,0.0,0.0,0.0,0.0,0.0,0.0,0.0,0.0,0.0,1.0468,1.0876,1.1391,1.1833,1.2032,1.2019,0.0,0.0,0.0,0.0,0.0,0.0,0.0,0.0,0.0,0.0,0.0,0.0,0.0,0.0,0.0,0.0,0.0,0.0,0.0,0.0,0.0,0.0,0.0,0.0,0.0,0.0,0.0,0.0,0.0,0.0,0.0,0.0,0.0,0.0,0.0,0.0,0.0,0.0,0.0,0.0,0.0,0.0,0.0,0.0,0.0,0.0,0.0,0.0,0.0,0.0,0.0,0.0,0.0,0.0,0.0,0.0,0.0,0.0,0.0,0.0,0.0,0.0,0.0,0.0,0.0,0.0,0.0,0.0,0.0,0.0,0.0,0.095,0.0,0.0,0.0,0.0,0.0,0.0,0.0,0.0,0.0,0.0,0.0,0.0,0.0,0.0,0.0,0.0,0.0,0.0,0.0,0.0,0.0,0.0,0.0,0.0,0.0,0.0,0.0,0.0,0.0,0.0,0.0,0.0,0.0,0.0,0.0,0.0,0.0,0.0,1.1,1.1609,1.2416,1.3104,1.3158,1.2699,1.3462,0.0,0.0,0.0,0.0,0.0,0.0,0.0,0.0,0.0,0.0,0.0,0.0,0.0,0.0,0.0,0.0,0.0,0.0,0.0,0.0,0.0,0.0,0.0,0.0,0.0,0.0,0.0,0.0,0.0,0.0,0.0,0.0,0.0,0.0,0.0,0.0,0.0,0.0,0.0,0.0,0.0,0.0,0.0,0.0,0.0,0.0,0.0,0.0,0.0,0.0,0.0,0.0,0.0,0.0,0.0,0.0,0.0,0.0,0.0,0.0,0.0,0.0,0.0,0.0,0.4192,0.383,0.3465,0.3021,0.2479,0.188,0.1368,0.0939,0.0,0.0,0.0,0.0,0.0,0.0,0.0,0.0,0.0,0.0,0.0,0.0,0.0,0.0,0.0,0.0,0.0,0.0,0.0,0.0,0.0,0.0,0.0,0.0,0.0,0.0,0.0,0.0,0.0,0.0,0.0,0.0,0.0,0.0,1.1083,1.111,1.1348,1.2103,1.2741,1.3244,1.4031,1.4435,1.4486,1.482,1.4687,1.4203,0.0,0.0,0.0,0.0,0.0,0.0,0.0,0.0,0.0,0.0,0.0,0.0,0.0,0.0,0.0,0.0,0.0,0.0,0.0,0.0,0.0,0.0,0.0,0.0,0.0,0.0,0.0,0.0,0.0,0.0,0.0,0.0,0.0,0.0,0.0,0.0,0.0,0.0,0.0,0.0,0.0,0.6375,0.638,0.0,0.0,0.0,0.0,0.0,0.0,0.0,0.0,0.0,0.0,0.0,0.0,0.0,0.0,0.5105,0.5291,0.5418,0.5566,0.5432,0.5325,0.5212,0.4756,0.4229,0.3667,0.3176,0.0,0.156,0.1387,0.0,0.0,0.0,0.0,0.0,0.0,0.0,0.0,0.0,0.0,0.0,0.0,0.0,0.0,0.0,0.0,0.0,0.0,0.0,0.0,0.0,0.0,0.0,0.0,0.0,0.0,0.0,0.0,0.0,0.0,0.0,0.0,0.0,1.1684,1.2017,1.2623,1.3148,1.3716,1.4345,1.5041,1.5432,1.5673,1.6402,1.6213,1.5356,1.5631,0.0,0.0,0.0,0.0,0.0,0.0,0.0,0.0,0.0,0.0,0.0,0.0,0.0,0.0,0.0,0.0,0.0,0.0,0.0,0.0,0.0,0.0,0.0,0.0,0.0,0.0,0.0,0.0,0.0,0.0,0.0,0.0,0.0,0.0,0.0,0.0,0.0,0.0,0.0,0.6894,0.6442,0.642,0.6189,0.6061,0.0,0.0,0.0,0.0,0.0,0.0,0.0,0.0,0.0,0.6128,0.6201,0.6287,0.644,0.6591,0.6718,0.6734,0.6715,0.6581,0.64,0.5921,0.5378,0.4789,0.4522,0.3963,0.3131,0.2226,0.1659,0.1395,0.0,0.0,0.0,0.0,0.0,0.0266,0.0,0.0,0.0,0.0,0.0,0.0,0.0,0.0,0.0,0.0,0.0,0.0,0.0,0.0,0.0,1.1635,0.0,0.0,0.0,0.0,0.0,0.0,0.0,0.0,1.1896,1.2362,1.3051,1.395,1.4249,1.4789,1.5524,1.609,1.6402,1.664,1.7757,1.756,1.644,1.6887,1.6423,1.5267,0.0,0.0,0.0,0.0,0.0,0.0,0.0,0.0,0.0,0.0,0.0,0.0,0.0,0.0,0.0,0.0,0.0,0.0,0.0,0.0,0.0,0.0,0.0,0.0,0.0,0.0,0.0,0.0,0.0,0.0,0.0,0.0,0.0,0.0,0.0,0.0,0.0,0.6944,0.667,0.6624,0.6457,0.6351,0.0,0.0,0.0,0.0,0.0,0.0,0.6719,0.6736,0.6947,0.7385,0.7253,0.7309,0.7571,0.7668,0.7743,0.774,0.7707,0.7589,0.7377,0.6907,0.6385,0.5848,0.5657,0.5262,0.4587,0.3271,0.2468,0.2117,0.2048,0.1778,0.1419,0.1251,0.0999,0.0746,0.0,0.0,0.0,0.0,0.0,0.0,0.0,0.0,0.0,0.0,0.0,0.0,0.0,0.0,1.1722,1.2374,1.2692,1.278,0.0,0.0,0.0,0.0,0.0,0.0,1.2439,1.3355,1.4238,1.5095,1.5588,1.6125,1.675,1.7197,1.7423,1.7495,1.8608,1.8426,1.726,1.7665,1.7049,1.5716,1.4883,0.0,0.0,0.0,0.0,0.0,0.0,0.0,0.0,0.0,0.0,0.0,0.0,0.0,0.0,0.0,0.0,0.0,0.0,0.0,0.0,0.0,0.0,0.0,0.0,0.0,0.0,0.0,0.0,0.0,0.0,0.0,0.0,0.0,0.0,0.0,0.0,0.0,0.0,0.7123,0.6867,0.0,0.0,0.0,0.0,0.7121,0.7317,0.756,0.7901,0.7916,0.8027,0.825,0.8208,0.8221,0.8238,0.8377,0.8448,0.8445,0.8313,0.8248,0.8238,0.7687,0.7238,0.6807,0.6364,0.5911,0.5462,0.4487,0.3781,0.3323,0.3237,0.2843,0.2332,0.2235,0.1893,0.1408,0.0,0.0,0.0,0.0,0.0,0.0,0.0,0.0,0.0,0.0,0.0,0.0,0.0,1.0941,1.1712,1.2177,1.2621,1.2694,1.2335,0.0,0.0,0.0,0.0,0.0,0.0,1.4544,1.5324,1.6179,1.6968,1.7502,1.7938,1.8414,1.8545,1.8398,1.9206,1.9232,1.8625,1.8825,1.8394,1.7401,1.6338,1.5364,0.0,0.0,0.0,0.0,0.0,0.0,0.0,0.0,0.0,0.0,0.0,0.0,0.0,0.0,0.0,0.0,0.0,0.0,0.0,0.0,0.0,0.0,0.0,0.0,0.0,0.0,0.0,0.0,0.0,0.0,0.0,0.0,0.0,0.0,0.0,0.0,0.0,0.7706,0.7614,0.0,0.0,0.7975,0.8024,0.8196,0.8396,0.8555,0.876,0.8747,0.874,0.8898,0.8864,0.881,0.8699,0.875,0.8726,0.8628,0.8479,0.836,0.8262,0.7955,0.7634,0.7359,0.7161,0.6847,0.6349,0.59,0.5249,0.4477,0.4369,0.4077,0.3655,0.3373,0.3043,0.2633,0.0,0.0,0.0,0.0,0.0,0.0,0.0,0.0,0.0,0.0,0.0,0.9256,1.0213,1.1269,1.2106,1.2526,1.2793,1.2837,1.247,0.0,0.0,0.0,1.3138,0.0,0.0,1.5925,1.6709,1.7436,1.8175,1.8667,1.8964,1.9299,1.9333,1.9154,1.9756,2.0024,1.991,2.0086,1.956,1.8511,1.7604,1.6563,1.5411,0.0,0.0,0.0,0.0,0.0,0.0,0.0,0.0,0.0,0.0,0.0,0.0,0.0,0.0,0.0,0.0,0.0,0.0,0.0,0.0,0.0,0.0,0.0,0.0,0.0,0.0,0.0,0.0,0.0,0.0,0.0,0.0,0.0,0.0,0.0,0.8196,0.8437,0.8467,0.8633,0.911,0.9094,0.9112,0.9348,0.9492,0.9606,0.9725,0.9634,0.9591,0.9591,0.9385,0.9217,0.9047,0.8889,0.8811,0.871,0.8506,0.8364,0.8316,0.8055,0.7831,0.7597,0.7546,0.7289,0.6871,0.6816,0.6364,0.5764,0.5431,0.5117,0.4844,0.4461,0.4124,0.3771,0.0,0.0,0.0,0.0,0.0,0.0,0.0,0.0,0.0,0.0,0.8571,0.9729,1.0797,1.2025,1.2932,1.3353,1.3386,1.325,1.2921,1.2483,0.0,0.0,0.0,0.0,1.6259,1.7449,1.834,1.8951,1.9226,1.9481,1.9842,1.9739,1.9743,1.9755,2.0352,2.0823,2.1115,2.1429,2.0586,1.9086,1.8565,1.7533,1.6174,0.0,0.0,0.0,0.0,0.0,0.0,0.0,0.0,0.0,0.0,0.0,0.0,0.0,0.0,0.0,0.0,0.0,0.0,0.0,0.0,0.0,0.0,0.0,0.0,0.0,0.0,0.0,0.0,0.0,0.0,0.0,0.0,0.0,0.9389,0.9059,0.9094,0.9407,0.9445,0.9657,1.0196,1.0026,1.0071,1.0379,1.0615,1.0708,1.0708,1.0596,1.044,1.0323,0.971,0.9434,0.9434,0.8951,0.8706,0.8699,0.8411,0.832,0.8303,0.795,0.7733,0.759,0.7438,0.7285,0.7095,0.7095,0.7095,0.7024,0.6401,0.6002,0.5797,0.5543,0.5171,0.4686,0.0,0.0,0.0,0.0,0.0,0.0,0.0,0.0,0.0,0.0,0.8642,0.9838,1.1198,1.22,1.2932,1.3353,1.3244,1.2961,1.2418,0.0,0.0,0.0,0.0,0.0,1.7853,1.8596,1.9337,1.9911,2.0201,2.0352,2.0445,2.0598,2.0611,2.0365,2.0759,2.1005,2.1142,2.1947,2.2006,2.141,2.0298,1.927,1.8309,0.0,0.0,0.0,0.0,0.0,0.0,0.0,0.0,0.0,0.0,0.0,0.0,0.0,0.0,0.0,0.0,0.0,0.0,0.0,0.0,0.0,0.0,0.0,0.0,0.0,0.0,0.0,0.0,0.0,0.0,0.0,0.0,1.2017,1.0616,1.0454,1.0564,1.0678,1.0485,1.0485,1.0891,1.0773,1.0765,1.0988,1.1049,1.1074,1.1074,1.0952,1.0719,1.0447,1.0212,0.9926,0.9706,0.9273,0.8973,0.8857,0.846,0.8211,0.8096,0.7902,0.7733,0.759,0.7438,0.7285,0.7095,0.7095,0.7095,0.7088,0.6877,0.6741,0.6544,0.6233,0.5695,0.5014,0.0,0.0,0.0,0.0,0.0,0.0,0.0,0.0,0.0,0.0,0.8703,0.9842,1.1,1.2025,1.2729,1.297,1.28,1.2524,1.2084,0.0,0.0,0.0,0.0,1.7668,1.9205,1.9864,2.034,2.071,2.1066,2.1171,2.0862,2.1156,2.1102,2.0792,2.0982,2.126,2.1583,2.2313,2.2902,2.3242,2.2131,2.1091,2.0007,1.881,1.7664,1.6685,1.6222,1.5825,1.5477,1.5477,0.0,0.0,0.0,0.0,0.0,0.0,0.0,0.0,0.0,0.0,0.0,0.0,0.0,0.0,0.0,0.0,0.0,0.0,0.0,0.0,0.0,0.0,0.0,0.0,1.4059,1.3897,1.3215,1.2266,1.1624,1.1415,1.1322,1.1314,1.1427,1.1366,1.135,1.1447,1.1455,1.1419,1.1342,1.1171,1.0985,1.0747,1.0457,1.0163,0.9875,0.9441,0.912,0.8802,0.8496,0.8227,0.7985,0.7882,0.7767,0.0,0.7461,0.7319,0.7231,0.7122,0.7095,0.0,0.0,0.0,0.0,0.0,0.621,0.5694,0.0,0.0,0.0,0.0,0.0,0.0,0.0,0.0,0.0,0.0,0.0,0.9762,1.0499,1.1586,1.2222,1.2245,1.2062,1.1942,0.0,0.0,0.0,1.6412,1.7599,1.8908,2.0421,2.1009,2.1318,2.1341,2.1815,2.1747,2.1179,2.144,2.1363,2.1109,2.1142,2.1515,2.209,2.2533,2.3361,2.4424,2.3868,2.2843,2.1462,2.0401,1.9331,1.8337,1.7765,1.7278,1.6927,1.6927,0.0,0.0,0.0,0.0,0.0,0.0,0.0,0.0,0.0,0.0,0.0,0.0,0.0,0.0,0.0,0.0,0.0,0.0,0.0,0.0,0.0,0.0,0.0,0.0,1.5842,1.6156,1.639,1.4431,1.2674,1.2063,1.206,1.2043,1.1909,1.1865,1.1797,1.178,1.1792,1.1723,1.1541,0.0,0.0,0.0,0.0,1.0206,1.0049,0.9546,0.9124,0.8776,0.856,0.8283,0.8035,0.7931,0.7811,0.7794,0.7516,0.7433,0.7405,0.7224,0.7112,0.7095,0.7095,0.7085,0.7038,0.6803,0.6603,0.643,0.0,0.0,0.0,0.0,0.0,0.0,0.0,0.0,0.0,0.7645,0.8396,0.9313,1.0452,1.0948,1.126,1.142,1.125,1.1411,0.0,0.0,1.5072,1.697,1.8597,2.0063,2.1373,2.1766,2.2079,2.2333,2.1887,2.1606,2.1481,2.1296,2.1162,2.1122,2.1363,2.1585,2.1747,2.2947,2.3658,2.4154,2.4517,2.4165,2.3221,2.1671,2.0589,1.9795,1.9222,1.8732,1.8377,1.8377,1.7954,1.7337,1.6938,0.0,0.0,0.0,0.0,0.0,0.0,0.0,0.0,0.0,0.0,0.0,0.0,0.0,0.0,0.0,0.0,0.0,0.0,0.0,0.0,1.7602,1.7796,1.7841,1.7985,1.6592,1.5125,1.4,1.304,1.2498,1.2475,1.2168,1.1922,1.1788,1.1902,1.1906,1.1732,1.1407,0.0,1.1175,1.0669,1.0361,1.0325,0.9744,0.9415,0.9329,0.0,0.0,0.8329,0.8178,0.8011,0.7801,0.7631,0.7485,0.7415,0.7339,0.7251,0.7095,0.7095,0.7024,0.6906,0.6766,0.6603,0.6487,0.0,0.0,0.0,0.0,0.0,0.0,0.0,0.0,0.0,0.0,0.8103,0.8831,0.9559,0.9918,1.0149,1.0249,1.0357,0.0,0.0,1.3549,1.5404,1.736,1.9125,2.0644,2.192,2.2207,2.2414,2.2606,2.2265,2.2024,2.184,2.1669,2.155,2.1557,2.1704,2.1878,2.213,2.3321,2.4123,2.4548,2.5182,2.5243,2.4726,2.2978,2.1875,2.1114,2.02,1.9589,1.9252,1.8929,1.8597,1.8208,1.7691,1.6802,1.5785,0.0,0.0,0.0,0.0,0.0,0.0,0.0,0.0,0.0,0.0,0.0,0.0,0.0,0.0,1.5649,0.0,0.0,1.8147,1.9121,1.9444,1.956,1.951,1.8067,1.6427,1.4728,1.3512,1.2672,1.2451,1.2081,1.1866,1.1784,1.1853,1.1825,1.1646,1.1374,1.1183,1.1098,1.0664,1.0391,1.0298,0.9923,0.9591,0.9357,0.9118,0.8878,0.8577,0.855,0.8416,0.8304,0.8154,0.7998,0.7838,0.7549,0.7303,0.7095,0.7095,0.7051,0.6974,0.6868,0.6719,0.6576,0.0,0.0,0.0,0.0,0.0,0.0,0.0,0.0,0.0,0.0,0.7754,0.8311,0.8552,0.8916,0.9157,0.0,0.0,0.0,0.0,1.3505,1.5501,1.7616,1.941,2.0953,2.2137,2.2503,2.2719,2.2668,2.2553,2.2389,2.2194,2.1986,2.1931,2.1991,2.2044,2.217,2.251,2.3687,2.4463,2.4984,2.5646,2.5915,2.5829,2.4085,2.2985,2.2097,2.0802,2.0094,1.969,1.9039,1.8781,1.8724,1.816,1.7453,1.6675,1.584,1.4935,0.0,0.0,0.0,0.0,0.0,0.0,0.0,0.0,0.0,1.6604,1.6931,1.7214,1.7609,1.8302,1.9126,1.9864,2.0508,2.0852,2.0962,2.0725,1.9211,1.729,1.5248,1.3934,1.2952,1.2427,1.212,1.1873,1.1841,1.1805,1.1727,1.1508,1.1321,1.1143,1.0976,1.0586,1.031,1.0216,0.9945,0.9666,0.9286,0.9286,0.9133,0.8878,0.8878,0.8825,0.8817,0.8661,0.8497,0.8268,0.7802,0.7439,0.7187,0.7187,0.7143,0.7078,0.694,0.6851,0.6742,0.0,0.0,0.0,0.0,0.0,0.0,0.0,0.0,0.0,0.0,0.0,0.0,0.0,0.0,0.0,0.0,0.0,0.0,1.1444,1.3417,1.5465,1.7591,1.9636,2.1197,2.2076,2.2701,2.3007,2.3043,2.246,2.2307,2.2509,2.1906,2.1737,2.1997,2.2258,2.2225,2.2136,2.3785,2.4478,2.4606,2.5525,2.6083,2.6157,2.4618,2.3461,2.2449,2.0843,2.0046,1.9626,1.8993,1.8781,1.8765,1.8686,1.8025,1.7191,1.7122,0.0,1.4605,1.4927,1.5197,1.5433,1.5473,1.6254,1.7119,0.0,0.0,1.8496,1.9406,1.9471,1.9657,2.0651,2.0895,2.1203,2.1862,2.1978,2.1749,2.1218,1.994,1.8352,1.6536,1.4902,1.3614,1.2987,1.2615,1.2249,1.1849,1.1914,1.1853,1.1516,1.1321,1.1143,1.0976,1.0465,1.0237,1.0212,0.9827,0.9595,0.9579,0.9579,0.943,0.9133,0.9133,0.9031,0.8817,0.8661,0.8497,0.8279,0.8105,0.7811,0.7459,0.7459,0.7323,0.7078,0.694,0.6876,0.6839,0.0,0.0,0.0,0.0,0.0,0.0,0.0,0.0,0.0,0.0,0.0,0.0,0.0,0.0,0.0,0.0,0.0,0.0,1.1032,1.3247,1.5233,1.6851,1.922,2.084,2.1558,2.2169,2.2606,2.2801,2.2111,2.2045,2.2514,2.2065,2.2051,2.2498,2.2625,2.2612,2.2627,2.3711,2.4422,2.4825,2.5416,2.5721,2.5665,2.4296,2.2918,2.1478,2.0312,1.9507,0.0,0.0,1.7874,1.8176,1.7985,1.7755,1.7528,1.708,1.6293,0.0,1.5737,1.619,0.0,0.0,1.8001,1.8931,1.9479,2.0097,2.0731,2.1377,2.1439,2.1473,2.1732,2.1928,2.2067,0.0,2.2471,2.241,2.1615,2.0232,1.8705,1.7024,1.5306,1.3908,1.303,1.24,1.1947,1.1753,1.1639,1.1451,1.1204,1.1118,1.0992,1.0814,1.0493,1.027,1.0212,0.9904,0.9726,0.9579,0.9579,0.9529,0.943,0.943,0.9377,0.9266,0.9142,0.8933,0.8708,0.854,0.8192,0.7867,0.7867,0.7629,0.7316,0.7075,0.6957,0.6886,0.0,0.0,0.0,0.0,0.0,0.0,0.0,0.0,0.0,0.0,0.0,0.0,0.0,0.0,0.0,0.0,0.0,0.0,0.0,1.2886,1.4774,1.6247,1.8655,2.0288,2.1071,2.1692,2.2152,2.2487,2.1859,2.1874,2.2387,2.206,2.2138,2.2619,2.2619,2.2619,2.2673,2.3462,2.405,2.4629,2.5088,2.5269,2.51,2.3905,2.2325,2.0643,1.9541,1.8615,0.0,0.0,1.6619,1.7193,1.6954,1.7072,1.7239,1.6738,1.6476,1.6373,1.6476,0.0,0.0,1.8708,1.9669,2.0631,2.1338,2.1886,2.2395,2.293,2.2782,2.2505,2.2321,2.2416,0.0,2.2081,2.2498,2.2555,2.169,2.0392,1.8946,1.7394,1.5744,1.4296,1.3332,1.2453,1.1857,1.1684,1.1454,1.1261,1.1033,1.1024,1.0883,1.07,1.0526,1.0371,1.0237,1.0002,0.9823,0.9697,0.9652,0.9579,0.9579,0.9579,0.9579,0.962,0.9486,0.9304,0.9104,0.8973,0.8637,0.8257,0.8212,0.7986,0.7652,0.7425,0.7166,0.6957,0.0,0.0,0.0,0.0,0.0,0.0,0.0,0.0,0.0,0.0,0.0,0.0,0.0,0.0,0.0,0.0,0.0,0.0,0.0,1.2251,1.4149,1.5951,1.7983,1.9542,2.0703,2.1355,2.1817,2.2111,2.1796,2.1772,2.2079,2.1757,2.1789,2.2011,2.2011,2.2011,2.2077,2.2794,2.3271,2.3658,2.4524,2.487,2.4696,2.3496,2.1965,2.0298,1.8658,0.0,0.0,0.0,1.5165,1.5776,1.5768,1.5968,0.0,1.623,1.646,0.0,0.0,0.0,1.9519,2.0154,2.1115,2.2131,2.2791,2.2966,2.3181,2.388,2.326,2.2508,2.2559,2.2344,2.2008,2.1774,2.1993,2.1969,2.1326,2.0436,1.931,1.769,1.6276,1.5101,0.0,1.316,1.2316,1.1742,1.1684,1.1494,1.1037,1.1024,1.0883,1.07,1.0526,1.0379,1.0375,1.0067,0.9884,0.9876,0.9705,0.9579,0.9579,0.9579,0.9579,0.9579,0.9571,0.9518,0.94,0.9396,0.9096,0.8683,0.8528,0.8329,0.808,0.7912,0.754,0.7092,0.0,0.0,0.0,0.0,0.0,0.0,0.0,0.0,0.0,0.0,0.0,0.0,0.0,0.0,0.0,0.0,0.0,0.0,0.0,1.157,1.3191,1.4368,1.643,1.8004,1.8975,1.9529,2.0123,2.0662,2.0305,2.0382,2.0861,2.0737,2.0935,2.1403,2.1403,2.1403,2.1383,2.1491,2.193,2.2555,2.2452,2.2503,2.2607,2.1223,1.9717,1.8099,0.0,0.0,0.0,1.4276,1.4252,1.4681,1.4919,1.5237,0.0,1.6357,1.6969,1.7604,0.0,0.0,2.0623,2.1552,2.2402,2.3133,2.3594,2.3705,2.3634,2.3411,2.2889,2.2265,2.1364,2.1143,2.0981,2.067,2.1163,2.1373,2.0953,2.0337,1.9405,1.8035,1.6804,0.0,0.0,0.0,0.0,1.2259,1.1841,1.1549,1.1389,1.1173,1.1033,1.0966,1.0744,1.055,1.0383,1.0398,1.0318,1.015,1.0157,1.0117,1.0117,1.0117,1.0117,1.0117,1.0117,0.9985,0.9779,0.9779,0.957,0.9163,0.9107,0.8803,0.8371,0.8309,0.8035,0.7588,0.0,0.0,0.0,0.0,0.0,0.0,0.0,0.0,0.0,0.0,0.0,0.0,0.0,0.0,0.0,0.0,0.0,0.0,0.0,0.0,1.2163,1.3055,1.4998,1.6465,1.7251,1.7715,1.8279,1.896,1.8633,1.8771,1.9277,1.9212,1.9404,1.9865,1.9865,1.9865,1.9899,1.9819,2.0171,2.0815,2.0644,2.0643,2.0573,1.962,1.8245,0.0,0.0,0.0,0.0,1.3475,1.3537,1.3982,1.4304,1.4959,1.5729,1.6659,1.7509,1.8406,1.9598,2.0686,2.1735,2.2784,2.3387,2.3785,2.4058,2.3819,2.3292,2.2601,2.1898,2.1086,1.9969,1.9786,1.9775,1.9606,2.0271,2.0757,2.07,2.033,1.9703,1.8677,1.7613,0.0,0.0,0.0,0.0,1.3169,1.2559,1.2196,1.2055,1.1732,1.1564,1.1564,1.1295,1.1071,1.0957,1.0914,1.0861,1.0752,1.0816,1.09,1.0949,1.0949,1.09,1.085,1.085,1.0605,1.0314,1.0314,0.9996,0.9591,0.9573,0.9224,0.8688,0.8621,0.8401,0.812,0.0,0.0,0.0,0.0,0.0,0.0,0.0,0.0,0.0,0.0,0.0,0.0,0.0,0.0,0.0,0.0,0.0,0.0,0.0,0.0,0.0,1.2105,1.3682,1.4918,1.5648,1.5994,1.642,1.7045,1.6746,1.6944,1.7513,1.7285,1.7277,1.7559,1.7559,1.7559,1.7614,1.7828,1.8104,1.8414,1.9074,1.9094,1.8688,1.8466,0.0,0.0,0.0,0.0,0.0,0.0,0.0,0.0,0.0,1.5205,1.6476,1.7183,1.8136,1.9209,2.0631,2.1767,2.2807,2.3883,2.4137,2.4121,2.4074,2.3189,2.222,2.142,2.0234,1.9122,0.0,0.0,1.8372,1.8499,1.9338,2.0169,2.0581,2.0453,2.0073,0.0,0.0,0.0,0.0,0.0,0.0,1.4508,0.0,1.3305,1.3059,1.2718,1.2495,1.2505,1.2228,1.206,1.206,1.1709,1.1559,1.1702,1.1688,1.1829,1.2073,1.2073,1.1927,1.1683,1.1683,1.1389,1.09,1.085,1.056,1.0051,0.9917,0.9539,0.9122,0.8901,0.8763,0.8564,0.0,0.0,0.0,0.0,0.0,0.0,0.0,0.0,0.0,0.0,0.0,0.0,0.0,0.0,0.0,0.0,0.0,0.0,0.0,0.0,0.0,0.0,0.0,0.0,0.0,0.0,0.0,1.4538,1.4449,1.4708,1.5225,1.5177,1.5387,1.5855,1.5855,1.5855,1.5842,1.568,1.5893,1.6265,0.0,1.6261,1.6309,0.0,0.0,0.0,0.0,0.0,0.0,0.0,0.0,0.0,0.0,1.699,1.8247,1.8708,1.9765,2.0921,2.1854,2.2855,2.3843,2.4309,2.4444,2.4245,2.3459,2.2466,2.1238,1.9756,1.8796,1.7914,0.0,0.0,0.0,1.7394,1.8275,0.0,1.9933,2.0154,0.0,0.0,0.0,1.8858,1.8501,1.7962,0.0,0.0,1.5745,1.4898,1.4839,1.4304,1.4017,1.4038,1.3549,1.3186,1.297,1.2902,1.2948,1.3017,1.3024,1.3028,1.313,1.313,1.3082,1.2985,1.2786,1.2452,1.198,1.1785,1.1243,1.06,1.0551,1.0179,0.9596,0.9414,0.9235,0.9087,0.0,0.0,0.0,0.0,0.0,0.0,0.0,0.0,0.0,0.0,0.0,0.0,0.0,0.0,0.0,0.0,0.0,0.0,0.0,0.0,0.0,0.0,0.0,0.0,0.0,0.0,0.0,0.0,0.0,0.0,1.3279,1.3063,1.319,1.3561,1.343,1.3485,1.3555,1.3528,0.0,0.0,0.0,0.0,0.0,0.0,0.0,0.0,0.0,0.0,0.0,0.0,0.0,1.6596,1.7572,1.8748,1.9844,2.0353,0.0,2.2466,2.3213,2.3951,2.4563,2.4762,2.4468,2.3808,2.2601,2.1222,1.9796,1.8195,1.7104,0.0,0.0,0.0,0.0,0.0,0.0,0.0,1.9654,2.0164,2.0405,0.0,2.0,0.0,1.9341,1.8883,1.8541,0.0,1.7173,1.6427,1.6411,1.6012,1.573,1.5719,1.5144,1.4688,1.4423,1.4355,1.4341,1.4382,1.4267,1.419,1.4196,1.4196,1.4148,1.4004,0.0,1.3522,1.3044,1.2748,1.2257,1.1624,1.1385,1.0943,1.0297,0.993,0.9727,0.9563,0.0,0.0,0.0,0.0,0.0,0.0,0.0,0.0,0.0,0.0,0.0,0.0,0.0,0.0,0.0,0.0,0.0,0.0,0.0,0.0,0.0,0.0,0.0,0.0,0.0,0.0,0.0,0.0,0.0,0.0,0.0,0.0,0.0,0.0,0.0,0.0,0.0,0.0,0.0,0.0,0.0,0.0,0.0,0.0,0.0,0.0,0.0,0.0,0.0,0.0,1.681,1.7739,1.9193,2.0361,2.133,2.1973,2.2919,2.3829,2.4492,2.4913,2.5167,2.5119,2.4285,2.3037,2.1587,1.9867,1.8179,1.6776,0.0,1.4478,1.4526,0.0,1.5402,1.6281,0.0,1.8615,1.9493,2.0157,2.0625,2.0713,2.0416,2.0172,1.9857,1.958,1.9271,1.8974,1.8283,1.7841,1.7787,1.7529,1.7408,1.7315,1.675,1.6339,1.6108,1.589,1.5758,1.5718,1.5483,1.5341,1.5226,1.5226,1.5077,1.4831,0.0,0.0,1.4052,1.3757,1.3318,1.2829,1.2408,1.1798,1.1124,1.0621,1.031,1.0125,0.0,0.0,0.0,0.0,0.0,0.0,0.0,0.0,0.0,0.0,0.0,0.0,0.0,0.0,0.0,0.0,0.0,0.0,0.0,0.0,0.0,0.0,0.0,0.0,0.0,0.0,0.0,0.0,0.0,0.0,0.0,0.0,0.0,0.0,0.0,0.0,0.0,0.0,0.0,0.0,0.0,0.0,0.0,0.0,0.0,0.0,0.0,0.0,0.0,0.0,1.745,1.8805,2.0501,2.1753,2.2736,2.3149,2.4015,2.4865,2.4984,2.5278,2.5477,2.5183,2.4102,2.2664,2.0964,1.9002,0.0,0.0,0.0,1.3854,1.4148,1.4462,0.0,1.5776,0.0,0.0,0.0,0.0,2.0128,0.0,0.0,0.0,0.0,0.0,0.0,0.0,0.0,0.0,1.8723,1.8616,1.8398,1.7894,1.7556,1.7345,1.7292,1.7273,1.7086,1.6833,1.6779,1.6498,1.5987,1.5987,1.5838,1.5588,0.0,0.0,1.4885,1.4592,1.4196,1.3661,1.3613,1.2978,1.2135,1.1865,1.1473,1.1025,0.0,0.0,0.0,0.0,0.0,0.0,0.0,0.0,0.0,0.0,0.0,0.0,0.0,0.0,0.0,0.0,0.0,0.0,0.0,0.0,0.0,0.0,0.0,0.0,0.0,0.0,0.0,0.0,0.0,0.0,0.0,0.0,0.0,0.0,0.0,0.0,0.0,0.0,0.0,0.0,0.0,0.0,0.0,0.0,0.0,0.0,0.0,0.0,0.0,0.0,1.6857,1.8454,2.0933,2.2315,2.3157,2.3872,2.4698,2.5421,2.5604,2.5771,2.5778,2.5246,2.392,2.2235,2.0305,0.0,0.0,0.0,0.0,1.3196,1.3513,0.0,0.0,0.0,0.0,0.0,0.0,0.0,0.0,0.0,0.0,0.0,0.0,0.0,0.0,0.0,0.0,0.0,1.9381,1.9381,1.9105,1.8419,1.8295,1.8159,1.7946,1.7796,1.757,1.7274,1.7111,1.6831,1.6407,1.6407,1.6353,1.6211,1.6109,0.0,1.5879,1.5588,1.5248,1.4854,1.442,1.3839,1.3115,1.262,1.2246,1.2015,0.0,0.0,0.0,0.0,0.0,0.0,0.0,0.0,0.7753,0.8448,0.8843,0.9087,0.9293,0.9058,0.0,0.0,0.0,0.0,0.0,0.0,0.0,0.0,0.0,0.0,0.0,0.0,0.0,0.0,0.0,0.0,0.0,0.0,0.0,0.0,0.0,0.0,0.0,0.0,0.0,0.0,0.0,0.0,0.0,0.0,0.0,0.0,0.0,0.0,0.0,0.0,1.5793,1.7352,2.0124,2.1793,2.2887,2.3999,2.4871,2.5568,2.6,2.6231,2.6103,2.5264,2.3791,2.2012,1.9878,1.7736,0.0,0.0,1.3364,1.2764,1.3092,0.0,0.0,0.0,0.0,0.0,0.0,0.0,0.0,0.0,0.0,0.0,0.0,0.0,0.0,0.0,0.0,0.0,1.9713,1.9647,1.9286,1.8701,1.8686,1.8562,1.8306,1.805,1.7792,1.7486,1.7289,1.6989,1.6683,1.6683,1.6636,1.6588,1.6588,0.0,0.0,1.6386,1.615,1.5893,1.5212,1.4643,1.409,1.3409,1.3101,1.296,0.0,0.0,0.0,0.0,0.0,0.0,0.0,0.0,0.8431,0.9269,0.9218,0.927,0.969,0.9344,0.0,0.0,0.0,0.0,0.0,0.0,0.0,0.0,0.0,0.0,0.0,0.0,0.0,0.0,0.0,0.0,0.0,0.0,0.0,0.0,0.0,0.0,0.0,0.0,0.0,0.0,0.0,0.0,0.0,0.0,0.0,0.0,0.0,0.0,0.0,0.0,0.0,1.568,1.7401,1.9531,2.1731,2.3043,0.0,0.0,2.5818,2.6306,2.629,2.5247,2.3906,2.2152,1.9841,0.0,0.0,1.4622,1.3515,1.2888,1.3211,1.3236,1.341,0.0,0.0,0.0,0.0,0.0,0.0,0.0,0.0,0.0,0.0,0.0,0.0,0.0,0.0,0.0,0.0,1.9038,1.8716,1.8357,1.835,1.8328,1.8299,1.8277,1.8108,1.7768,1.7738,1.7483,1.6979,1.6979,1.6831,1.6588,0.0,0.0,0.0,1.6581,1.6541,1.6506,1.61,1.5652,1.512,1.4734,1.4358,1.3955,0.0,0.0,0.0,0.0,0.0,0.0,0.0,0.7641,0.8164,0.8714,0.8832,0.8883,0.8898,0.8735,0.0,0.0,0.0,0.0,0.0,0.0,0.0,0.0,0.0,0.0,0.0,0.0,0.0,0.0,0.0,0.0,0.0,0.0,0.0,0.0,0.0,0.0,0.0,0.0,0.0,0.0,0.0,0.0,0.0,0.0,0.0,0.0,0.0,0.0,0.0,0.0,0.0,0.0,1.5745,1.7121,0.0,0.0,2.3302,2.4548,2.563,2.6338,2.6525,2.5632,2.4102,2.2265,2.0178,0.0,0.0,1.4848,1.3712,1.2938,1.2992,1.3044,1.3179,0.0,0.0,0.0,0.0,0.0,0.0,0.0,0.0,0.0,0.0,0.0,0.0,0.0,0.0,0.0,0.0,1.8752,1.8547,1.8028,1.8013,1.7918,1.7721,1.7721,1.7647,1.7523,1.7523,1.741,1.72,1.72,1.7099,1.7005,0.0,0.0,0.0,1.7005,1.6965,1.6781,1.6225,1.5859,1.5468,1.4926,1.4634,1.4454,0.0,0.0,0.0,0.0,0.0,0.0,0.7027,0.7458,0.7879,0.8184,0.8412,0.8527,0.8326,0.8305,0.842,0.8684,0.0,0.0,0.0,0.0,0.0,0.0,0.0,0.0,0.0,0.0,0.0,0.0,0.0,0.0,0.0,0.0,0.0,0.0,0.0,0.0,0.0,0.0,0.0,0.0,0.0,0.0,0.0,0.0,0.0,0.0,0.0,0.0,0.0,0.0,0.0,0.0,0.0,0.0,0.0,0.0,2.1891,2.3316,2.4836,2.5712,2.6025,2.5304,2.3909,2.2178,0.0,0.0,1.6395,1.5127,1.3996,1.3164,1.2981,1.2977,1.3028,0.0,0.0,0.0,0.0,0.0,0.0,0.0,0.0,0.0,0.0,0.0,0.0,0.0,0.0,0.0,0.0,1.8379,1.8247,1.7691,1.7669,1.756,1.7286,1.7279,1.7279,1.7279,1.7279,1.7279,1.7279,1.7279,1.7279,1.7279,0.0,0.0,0.0,1.7279,1.7188,1.6918,1.6325,1.597,1.5688,1.5106,1.4908,1.4908,0.0,0.0,0.0,0.0,0.0,0.0,0.0,0.741,0.7776,0.7962,0.8174,0.831,0.8305,0.8305,0.822,0.804,0.0,0.0,0.0,0.0,0.0,0.0,0.0,0.0,0.0,0.0,0.0,0.7489,0.7489,0.0,0.0,0.0,0.0,0.0,0.0,0.0,0.0,0.0,0.0,0.0,0.0,0.0,0.0,0.0,0.0,0.0,0.0,0.0,0.0,0.0,0.0,0.0,0.0,0.0,0.0,0.0,1.9835,2.1325,2.3125,2.4202,2.4633,2.3932,2.3045,2.1828,0.0,0.0,1.6763,1.5542,1.448,1.37,1.3359,1.3042,1.2865,1.3068,1.3403,0.0,0.0,0.0,0.0,0.0,0.0,0.0,0.0,0.0,0.0,0.0,0.0,0.0,0.0,1.7823,1.7677,1.7301,1.7333,1.7286,1.7279,1.7279,1.7279,1.7279,1.7279,1.7279,1.7279,1.7279,1.7279,0.0,0.0,0.0,0.0,1.7279,1.7143,1.6873,1.6543,1.6184,1.5841,1.5506,1.5389,1.5389,0.0,0.0,0.0,0.0,0.0,0.0,0.0,0.0,0.7006,0.7395,0.7501,0.7598,0.7739,0.7753,0.7729,0.7661,0.0,0.0,0.0,0.0,0.0,0.0,0.0,0.0,0.0,0.0,0.7666,0.7629,0.7787,0.7852,0.7852,0.0,0.0,0.0,0.0,0.0,0.0,0.0,0.0,0.0,0.0,0.0,0.0,0.0,0.0,0.0,0.0,0.0,0.0,0.0,0.0,0.0,0.0,0.0,0.0,1.6534,0.0,0.0,2.191,2.3007,2.3592,2.2746,2.1838,2.0763,1.9166,1.7866,1.6712,1.5811,1.4905,1.4151,1.3731,1.3255,1.3011,1.3188,1.3435,0.0,0.0,0.0,0.0,0.0,0.0,0.0,0.0,0.0,0.0,0.0,0.0,0.0,0.0,0.0,1.7772,1.7333,1.7279,1.7279,1.7279,1.7279,1.7279,1.7279,1.7279,1.7279,1.7279,1.7279,0.0,0.0,0.0,0.0,0.0,1.7099,1.6991,1.6844,1.6265,1.6126,1.6162,1.5628,1.5528,1.5731,0.0,0.0,0.0,0.0,0.0,0.0,0.0,0.0,0.6624,0.6998,0.7142,0.7266,0.747,0.7489,0.7489,0.7489,0.0,0.0,0.0,0.0,0.0,0.0,0.0,0.0,0.0,0.7787,0.7917,0.8014,0.8214,0.8344,0.8376,0.8528,0.8818,0.0,0.0,0.0,0.0,0.0,0.0,0.0,0.0,0.0,1.2805,0.0,0.0,0.0,0.0,0.0,0.0,0.0,0.0,0.0,0.0,0.0,0.0,0.0,1.736,1.9008,0.0,2.1219,2.171,2.1183,2.0458,0.0,0.0,1.7264,1.6347,1.5498,1.4878,1.4337,1.3827,1.3434,1.326,1.3453,1.3548,0.0,0.0,0.0,0.0,0.0,0.0,0.0,0.0,0.0,0.0,0.0,0.0,0.0,0.0,0.0,1.7947,1.7613,1.752,1.738,1.7279,1.7279,1.7279,1.7279,1.7279,1.7279,1.7279,1.7279,0.0,0.0,0.0,0.0,0.0,1.7027,1.6829,1.6675,1.6243,1.6133,1.6148,1.576,1.5695,1.587,0.0,0.0,0.0,0.0,0.0,0.0,0.0,0.0,0.0,0.0,0.0,0.7247,0.7446,0.7484,0.0,0.0,0.0,0.0,0.0,0.0,0.0,0.0,0.0,0.0,0.0,0.8079,0.8361,0.8587,0.8808,0.8986,0.911,0.9353,0.9604,0.99,1.0232,1.0764,1.1397,1.2027,1.2428,1.259,1.2621,1.2713,0.0,0.0,0.0,0.0,0.0,0.0,0.0,0.0,0.0,0.0,0.0,0.0,0.0,0.0,0.0,0.0,0.0,1.8971,0.0,0.0,0.0,0.0,0.0,1.635,0.0,1.472,1.452,1.4317,1.372,1.3555,1.3599,1.3802,1.3724,0.0,0.0,0.0,0.0,0.0,0.0,0.0,0.0,0.0,0.0,0.0,0.0,0.0,0.0,0.0,1.8133,1.8133,1.7908,1.7621,1.738,1.738,1.738,1.738,1.738,1.7326,1.7326,1.7304,0.0,0.0,0.0,0.0,0.0,1.6991,1.6683,1.6411,1.6411,1.6213,1.5979,1.5928,1.5928,1.5899,0.0,0.0,0.0,0.0,0.0,0.0,0.0,0.0,0.0,0.0,0.0,0.7002,0.7237,0.7399,0.0,0.0,0.0,0.0,0.0,0.0,0.0,0.0,0.0,0.0,0.0,0.8727,0.8947,0.9262,0.9729,1.0023,1.0155,1.0621,1.0775,1.0719,1.1084,1.1468,1.1934,1.2182,1.2428,1.2598,1.2713,1.292,0.0,0.0,0.0,0.0,1.4201,1.4261,0.0,0.0,0.0,0.0,0.0,0.0,0.0,0.0,1.6185,1.6378,1.6833,0.0,1.8028,1.7678,1.7472,1.7122,0.0,1.5863,1.5571,1.4756,0.0,0.0,1.3873,1.3825,1.3903,1.4016,1.4217,0.0,0.0,0.0,0.0,0.0,0.0,0.0,0.0,0.0,0.0,0.0,0.0,0.0,0.0,0.0,1.8558,1.8427,1.8334,1.8187,1.7893,1.7893,1.7893,1.7893,1.7893,1.7807,1.7613,1.7314,0.0,0.0,0.0,0.0,1.6587,1.6558,1.6485,1.6411,1.6411,1.6521,1.6617,1.6248,1.6269,1.6446,0.0,0.0,0.0,0.0,0.0,0.0,0.0,0.0,0.0,0.0,0.0,0.0,0.0,0.0,0.0,0.0,0.0,0.0,0.0,0.0,0.0,0.0,0.0,0.0,0.9113,0.9338,0.9687,1.0192,1.0574,1.0923,1.1182,1.1492,1.1519,1.1383,1.1561,1.1816,1.2127,1.2243,1.2428,1.2621,1.2744,0.0,0.0,0.0,0.0,0.0,1.4834,1.476,0.0,1.5167,1.5245,1.5185,0.0,0.0,0.0,0.0,1.5748,1.5663,1.6001,1.6581,1.7046,1.6798,1.6707,1.655,1.5846,0.0,0.0,0.0,0.0,0.0,0.0,0.0,0.0,0.0,0.0,0.0,0.0,0.0,0.0,0.0,0.0,0.0,0.0,0.0,0.0,0.0,0.0,0.0,0.0,0.0,1.8735,1.8658,1.8658,1.8465,1.8087,1.8087,1.8087,1.8087,1.8087,1.804,1.79,1.7719,0.0,0.0,0.0,0.0,1.6844,1.6686,1.6669,1.6771,1.6835,1.6965,1.7085,1.6855,1.6883,1.6936,0.0,0.0,0.0,0.0,0.0,0.0,0.0,0.0,0.0,0.0,0.0,0.0,0.0,0.0,0.0,0.0,0.0,0.0,0.0,0.0,0.0,0.0,0.0,0.9524,0.9709,0.9977,1.0438,1.112,1.1339,1.1685,1.2156,1.2205,1.2096,1.1898,1.1816,1.1903,1.2127,1.2243,1.2436,1.2652,1.2805,0.0,0.0,0.0,0.0,0.0,0.0,0.0,0.0,1.5393,1.5311,1.5089,1.5741,0.0,0.0,0.0,0.0,0.0,1.5473,1.5946,1.6319,1.6392,1.6413,1.6288,1.5822,0.0,0.0,0.0,0.0,0.0,0.0,0.0,0.0,0.0,0.0,0.0,0.0,0.0,0.0,0.0,0.0,0.0,0.0,0.0,0.0,0.0,0.0,0.0,0.0,0.0,0.0,1.8794,1.8794,1.8634,1.8365,1.8319,1.8265,1.8265,1.8357,1.8357,1.8265,1.8265,1.8048,0.0,0.0,0.0,1.738,1.7137,1.7162,1.7329,1.7463,1.7553,1.7553,1.7541,1.7561,1.751,0.0,0.0,0.0,0.0,0.0,0.0,0.0,0.0,0.0,0.0,0.0,0.0,0.0,0.0,0.0,0.0,0.0,0.0,0.0,0.0,0.0,0.0,1.0269,1.0301,1.0579,1.0643,1.1015,1.1684,1.1988,1.2382,1.2831,1.3142,1.2953,1.239,1.1983,1.1903,1.2127,1.2243,1.249,1.2805,1.3094,0.0,0.0,0.0,0.0,0.0,0.0,0.0,0.0,1.4986,1.4887,1.4863,1.5104,0.0,0.0,0.0,0.0,0.0,1.509,1.5442,1.5887,1.6309,1.6413,1.6288,1.5822,0.0,0.0,0.0,0.0,0.0,0.0,0.0,0.0,0.0,0.0,0.0,0.0,0.0,0.0,0.0,0.0,0.0,0.0,0.0,0.0,0.0,0.0,0.0,0.0,0.0,0.0,1.8713,1.8722,1.8995,1.9608,1.9234,1.905,1.905,1.9417,1.9425,1.9042,1.8954,1.8628,0.0,0.0,1.7501,1.7425,1.7638,1.7736,1.7819,1.8085,1.8137,1.8191,1.8313,1.8322,1.8296,0.0,0.0,0.0,0.0,0.0,0.0,0.0,0.0,0.0,0.0,0.0,0.0,0.0,0.0,0.0,0.0,0.0,0.0,0.0,0.0,0.0,1.1083,1.1028,1.1028,1.1083,1.1252,1.1621,1.2166,1.2526,1.288,1.3265,1.3173,1.2853,1.2373,1.2089,1.212,1.2375,1.2521,1.2767,1.3094,0.0,0.0,0.0,0.0,0.0,0.0,0.0,0.0,0.0,0.0,1.4743,1.4589,1.4888,0.0,0.0,0.0,0.0,0.0,1.475,1.5007,1.5279,1.5741,1.6123,1.6384,1.6386,0.0,0.0,0.0,0.0,0.0,0.0,0.0,0.0,0.0,0.0,0.0,0.0,0.0,0.0,0.0,0.0,0.0,0.0,0.0,0.0,0.0,0.0,0.0,0.0,0.0,0.0,0.0,1.8869,1.9154,1.9623,1.9667,1.9681,1.9625,2.0045,2.0127,1.9779,1.9778,1.9495,1.8999,0.0,1.8562,1.8465,1.8712,1.8864,1.898,1.9206,1.9281,1.9296,1.9336,1.9335,1.9241,0.0,0.0,0.0,0.0,0.0,0.0,0.0,0.0,0.0,0.0,0.0,0.0,0.0,0.0,0.0,0.0,0.0,0.0,0.0,0.0,1.1373,1.1373,1.1529,1.1529,1.1373,1.1682,1.2065,1.2485,1.2882,1.3204,1.3475,1.3032,1.2641,1.2417,1.2336,1.2467,1.2713,1.2928,1.3186,1.3511,0.0,0.0,0.0,0.0,0.0,0.0,0.0,0.0,0.0,0.0,0.0,0.0,0.0,0.0,0.0,1.4331,1.4128,1.3952,1.4408,1.4623,1.4793,1.5154,0.0,1.6389,1.6777,1.6778,0.0,0.0,0.0,0.0,0.0,0.0,0.0,0.0,0.0,0.0,0.0,0.0,0.0,0.0,0.0,0.0,0.0,0.0,0.0,0.0,0.0,0.0,0.0,0.0,0.0,0.0,1.9067,1.9399,1.9775,2.0208,2.0285,2.0114,2.0536,2.0651,2.0487,2.053,2.0348,2.0036,1.9852,1.974,1.9618,1.9766,1.9913,2.0059,2.0193,2.0235,2.0276,2.0276,2.0267,2.0187,0.0,0.0,0.0,0.0,0.0,0.0,0.0,0.0,0.0,0.0,0.0,0.0,0.0,0.0,0.0,0.0,0.0,0.0,0.0,0.0,1.1591,1.1591,1.1591,1.1591,1.1591,1.1843,1.2164,1.2485,1.3028,1.3339,1.3487,1.302,1.2786,1.2771,1.2866,1.295,1.2989,1.3498,1.3799,1.398,1.4478,0.0,0.0,0.0,0.0,0.0,0.0,0.0,0.0,0.0,0.0,0.0,0.0,0.0,1.3863,1.4002,1.4018,1.4007,1.4039,1.4368,1.4708,1.4751,1.5358,0.0,1.6454,1.6858,0.0,1.7509,0.0,0.0,0.0,0.0,0.0,0.0,0.0,0.0,0.0,0.0,0.0,0.0,0.0,0.0,0.0,0.0,0.0,0.0,0.0,0.0,0.0,0.0,0.0,0.0,0.0,1.9952,2.0983,2.1191,2.0983,2.0371,2.0847,2.1058,2.1029,2.1229,2.1107,2.0738,2.0709,2.063,2.0527,2.0527,2.0527,2.0566,2.0557,2.0683,2.0829,2.0829,2.0935,2.1079,0.0,0.0,0.0,0.0,0.0,0.0,0.0,0.0,0.0,0.0,0.0,0.0,0.0,0.0,0.0,0.0,0.0,0.0,0.0,0.0,1.1591,1.1591,1.1591,1.1591,1.1591,1.1875,1.2127,1.2391,1.2995,1.325,1.3201,1.3219,1.3194,1.3108,1.3375,1.358,1.3773,1.4172,1.4499,1.4765,1.5157,1.5449,0.0,0.0,0.0,0.0,0.0,0.0,0.0,0.0,1.3597,1.3621,0.0,0.0,1.3834,1.4069,1.4116,1.414,1.4244,1.4374,1.459,1.4893,1.5263,0.0,0.0,1.7216,1.7738,1.8303,0.0,0.0,0.0,0.0,0.0,0.0,0.0,0.0,0.0,0.0,0.0,0.0,0.0,0.0,0.0,0.0,0.0,0.0,0.0,0.0,0.0,0.0,0.0,0.0,0.0,1.9866,2.0547,2.1017,2.1214,2.1094,2.151,2.1668,2.1536,2.1617,2.1569,2.1421,2.1273,2.1219,2.1156,2.13,2.1339,2.1339,2.1339,2.1377,2.1454,2.1454,2.1492,2.1578,0.0,0.0,0.0,0.0,0.0,0.0,0.0,0.0,0.0,0.0,0.0,0.0,0.0,0.0,0.0,0.0,0.0,0.0,0.0,1.1341,1.1529,1.1591,1.1654,1.1654,1.1654,1.1963,1.2158,1.2303,1.302,1.3371,1.3419,1.3612,1.3667,1.361,1.401,1.427,1.449,1.4863,1.5157,1.5391,1.5691,1.5803,0.0,0.0,0.0,0.0,0.0,0.0,0.0,0.0,1.3621,0.0,0.0,0.0,0.0,0.0,1.4246,1.428,1.4373,1.4396,1.4517,1.4985,0.0,0.0,1.6855,1.751,1.8138,1.8863,0.0,0.0,0.0,0.0,0.0,0.0,0.0,0.0,0.0,0.0,0.0,0.0,0.0,0.0,0.0,0.0,0.0,0.0,0.0,0.0,0.0,0.0,0.0,0.0,0.0,0.0,2.0392,2.105,2.1474,2.1589,2.1888,2.1929,2.1805,2.1805,2.1805,2.1784,2.1635,2.1578,2.1617,2.1731,2.1807,2.1807,2.1807,2.1807,2.1807,2.1807,2.1807,2.1807,0.0,0.0,0.0,0.0,0.0,0.0,0.0,0.0,0.0,0.0,0.0,0.0,0.0,0.0,0.0,0.0,0.0,0.0,1.109,1.1216,1.1404,1.1591,1.174,1.1802,1.1802,1.2143,1.2312,1.2295,1.3116,1.3783,1.4296,1.4257,1.4219,1.4219,1.4764,1.5009,1.5039,1.5498,1.5701,1.573,1.5989,1.58,1.5379,0.0,0.0,0.0,0.0,0.0,0.0,0.0,1.3692,1.3821,0.0,0.0,0.0,1.435,1.4396,1.4396,1.4396,1.4407,1.4527,0.0,0.0,0.0,1.7084,1.7742,1.84,0.0,0.0,0.0,0.0,0.0,0.0,0.0,0.0,0.0,0.0,0.0,0.0,0.0,0.0,0.0,0.0,0.0,0.0,0.0,0.0,0.0,0.0,0.0,0.0,0.0,0.0,0.0,2.0781,2.1446,2.1797,2.1797,2.1797,2.1797,2.1807,2.1807,2.1807,2.1807,2.1807,2.1807,2.1807,2.1807,2.1807,2.1807,2.1807,2.1807,2.1807,2.1807,2.1807,2.1807,0.0,0.0,0.0,0.0,0.0,0.0,0.0,0.0,0.0,0.0,0.0,0.0,0.0,0.0,0.0,0.0,0.0,0.0,0.0,1.1373,1.1591,1.174,1.1988,1.2151,1.2151,1.2728,1.2983,1.2997,1.3559,1.4048,1.4442,1.4533,1.4695,1.4911,1.5167,1.542,1.5633,1.5523,1.5571,1.569,1.5427,1.5227,1.5063,0.0,0.0,0.0,0.0,0.0,0.0,0.0,0.0,0.0,0.0,0.0,0.0,1.435,1.4396,1.4396,1.4396,1.4624,0.0,0.0,0.0,0.0,0.0,1.873,0.0,0.0,0.0,0.0,0.0,0.0,0.0,0.0,0.0,0.0,0.0,0.0,0.0,0.0,0.0,0.0,0.0,0.0,0.0,0.0,0.0,0.0,0.0,0.0,0.0,0.0,0.0,0.0,2.0453,2.0986,2.1254,2.1254,2.1254,2.1445,2.1807,2.1807,2.1807,2.1807,2.1807,2.1807,2.1807,2.1807,2.1807,2.1807,2.1807,2.1807,2.1807,2.1807,2.1807,2.1807,0.0,0.0,0.0,0.0,0.0,0.0,0.0,0.0,0.0,0.0,0.0,0.0,0.0,0.0,0.0,0.0,0.0,0.0,0.0,0.0,1.1638,1.1791,1.2296,1.2705,1.2972,1.3511,1.3842,1.3971,1.4181,1.4449,1.4784,1.4922,1.5128,1.5391,1.5546,1.564,1.5677,1.5552,1.5485,1.539,1.5111,1.4883,1.4687,0.0,0.0,0.0,0.0,0.0,0.0,0.0,0.0,0.0,0.0,0.0,0.0,1.4373,1.4396,1.4396,1.4396,0.0,0.0,0.0,0.0,0.0,0.0,0.0,0.0,0.0,0.0,0.0,0.0,0.0,0.0,0.0,0.0,0.0,0.0,0.0,0.0,0.0,0.0,0.0,0.0,0.0,0.0,0.0,0.0,0.0,0.0,0.0,0.0,0.0,0.0,0.0,2.0283,2.0761,2.0995,2.0995,2.0995,2.1174,2.1502,2.1595,2.1745,2.1921,2.1987,2.192,2.1763,2.1952,2.2025,2.2025,2.2025,2.2025,2.2035,2.1959,2.1921,2.189,0.0,0.0,0.0,0.0,0.0,0.0,0.0,0.0,0.0,0.0,0.0,0.0,0.0,0.0,0.0,0.0,0.0,0.0,0.0,0.0,1.1626,1.1872,1.2663,1.3407,1.404,1.4389,1.4686,1.5029,1.4843,1.4902,1.5215,1.5362,1.5546,1.573,1.5806,1.5697,1.543,1.5533,1.5318,1.4925,1.4894,1.4624,1.4242,1.4242,0.0,0.0,0.0,0.0,0.0,0.0,0.0,0.0,1.4163,1.4303,1.4396,1.4396,1.4396,1.4396,1.4396,0.0,0.0,0.0,0.0,0.0,0.0,0.0,0.0,0.0,0.0,0.0,0.0,0.0,0.0,0.0,0.0,0.0,0.0,0.0,0.0,0.0,0.0,0.0,0.0,0.0,0.0,0.0,0.0,0.0,0.0,0.0,0.0,0.0,0.0,0.0,2.016,2.0597,2.0796,0.0,2.0828,2.0881,2.0977,2.1244,2.1613,2.2012,2.22,2.203,2.1668,2.2105,2.2275,2.2275,2.2275,2.2275,2.2237,2.206,2.2023,2.1922,0.0,0.0,0.0,0.0,0.0,0.0,0.0,0.0,0.0,0.0,0.0,0.0,0.0,0.0,0.0,0.0,0.0,0.0,0.0,0.0,1.1856,1.248,1.3441,1.4121,1.4538,1.4784,1.497,1.5156,1.5117,1.5167,1.5362,1.5546,1.5701,1.5846,1.5606,1.557,1.5601,1.4914,1.4542,1.4428,1.4066,1.3834,1.3741,1.3741,1.3679,0.0,0.0,0.0,0.0,0.0,0.0,0.0,1.428,1.4373,1.4396,1.4396,1.4396,1.4396,0.0,1.5017,0.0,0.0,0.0,0.0,0.0,0.0,0.0,0.0,0.0,0.0,0.0,0.0,0.0,0.0,0.0,0.0,0.0,0.0,0.0,0.0,0.0,0.0,0.0,0.0,0.0,0.0,0.0,0.0,0.0,0.0,0.0,0.0,0.0,1.9033,1.9033,1.913,1.938,0.0,1.9749,2.0084,2.0694,2.0956,2.115,2.1256,2.1282,2.1229,2.1144,2.125,2.1292,2.1292,2.1292,2.1292,2.1292,2.1246,2.1256,2.121,0.0,0.0,0.0,0.0,0.0,0.0,0.0,0.0,0.0,0.0,0.0,0.0,0.0,0.0,0.0,0.0,0.0,0.0,0.0,0.0,0.0,1.3341,1.4159,1.4695,1.4931,1.5108,1.5225,1.5313,1.5313,1.5332,1.541,1.5604,1.5769,1.5894,1.5561,1.5382,1.5308,1.4604,1.4179,1.3927,1.3714,1.3597,1.3597,1.3597,1.3597,1.3597,1.3597,0.0,0.0,0.0,0.0,0.0,0.0,0.0,1.4396,1.4396,1.4396,1.4396,0.0,0.0,0.0,0.0,0.0,0.0,0.0,0.0,0.0,0.0,0.0,0.0,0.0,0.0,0.0,0.0,0.0,0.0,0.0,0.0,0.0,0.0,0.0,0.0,0.0,0.0,0.0,0.0,0.0,0.0,0.0,0.0,0.0,0.0,1.8578,1.8687,1.8687,1.8687,1.8818,1.9069,1.9069,1.9389,2.0041,2.0812,2.1008,2.0839,2.1134,2.1148,2.0978,2.118,2.1277,2.1277,2.1277,2.1277,2.1277,2.1171,2.1125,2.1104,0.0,0.0,0.0,0.0,0.0,0.0,0.0,0.0,0.0,0.0,0.0,0.0,0.0,0.0,0.0,0.0,0.0,0.0,0.0,0.0,0.0,0.0,1.4639,1.5012,1.5129,1.5226,1.5264,1.5195,0.0,0.0,0.0,0.0,0.0,1.5912,1.5507,1.5205,1.4956,1.4417,1.3972,1.3597,1.3597,1.3597,1.3597,1.3597,1.3597,1.3597,1.3597,1.3597,1.3644,1.3926,0.0,0.0,0.0,0.0,1.4396,1.4396,1.4396,1.4396,0.0,0.0,0.0,0.0,0.0,0.0,0.0,0.0,0.0,0.0,0.0,0.0,0.0,0.0,0.0,0.0,0.0,0.0,0.0,0.0,0.0,0.0,0.0,0.0,0.0,0.0,0.0,0.0,0.0,0.0,0.0,0.0,1.7879,1.7879,1.825,1.8447,1.8447,1.8447,1.849,1.8578,1.8643,1.8895,1.9311,2.0497,2.0841,2.056,2.1098,2.1112,2.0796,2.1177,2.1341,2.1341,2.1376,2.141,2.1376,2.1272,2.1227,2.1172,0.0,0.0,0.0,0.0,0.0,0.0,0.0,0.0,0.0,0.0,0.0,0.0,0.0,0.0,0.0,0.0,0.0,0.0,1.1603,0.0,0.0,1.3804,1.4472,1.4845,1.4845,1.4873,1.4678,1.428,0.0,0.0,0.0,0.0,0.0,1.6044,0.0,1.5023,1.4945,1.4076,1.3648,1.3597,1.3597,1.3597,1.3597,1.3597,1.3597,1.3597,1.3597,1.3597,1.3644,1.3926,1.3997,0.0,0.0,0.0,0.0,1.4396,1.4396,1.4396,0.0,0.0,0.0,0.0,0.0,0.0,0.0,0.0,0.0,0.0,0.0,0.0,0.0,0.0,0.0,0.0,0.0,0.0,0.0,0.0,0.0,0.0,0.0,0.0,0.0,0.0,0.0,0.0,0.0,0.0,0.0,1.7361,1.7405,1.7405,1.7459,1.7492,1.7492,1.7492,1.7682,1.8097,1.8501,1.872,1.8807,1.9587,2.0007,2.0172,2.0249,2.0271,2.0216,2.0282,2.0303,2.0303,2.05,2.0577,2.0599,2.0848,2.0934,2.0967,0.0,0.0,0.0,0.0,0.0,0.0,0.0,0.0,0.0,0.0,0.0,0.0,0.0,0.0,0.0,1.1519,1.1653,1.1794,1.2026,1.2647,1.3171,1.3492,1.4082,1.4424,1.4424,1.4424,1.4326,0.0,0.0,0.0,0.0,1.5515,1.5794,0.0,0.0,0.0,0.0,1.4283,1.3834,1.3597,1.3597,1.3597,1.3621,1.3692,0.0,0.0,0.0,0.0,0.0,0.0,0.0,1.4291,1.457,0.0,0.0,0.0,0.0,0.0,1.443,0.0,0.0,0.0,0.0,0.0,0.0,0.0,0.0,0.0,0.0,0.0,0.0,0.0,0.0,0.0,0.0,0.0,0.0,0.0,0.0,0.0,0.0,0.0,0.0,0.0,0.0,0.0,0.0,0.0,1.7306,1.7306,1.7306,1.7306,1.7306,1.7306,1.7306,1.7306,1.7415,1.7606,1.8075,1.8495,1.889,1.9518,1.9843,1.9917,2.0342,2.055,2.0561,2.0679,2.0722,2.0722,2.0818,2.0903,2.0999,2.1115,2.123,2.1293,0.0,0.0,0.0,0.0,0.0,0.0,0.0,0.0,0.0,0.0,0.0,0.0,0.0,0.0,0.0,0.0,1.1927,1.2051,1.2249,1.2689,1.3033,1.324,1.3704,1.3948,1.4001,1.4027,0.0,0.0,0.0,0.0,1.5174,1.5314,1.5588,0.0,1.5828,1.5502,0.0,0.0,0.0,0.0,0.0,1.3668,1.3716,0.0,0.0,0.0,0.0,0.0,0.0,0.0,0.0,0.0,0.0,0.0,0.0,0.0,0.0,0.0,0.0,0.0,0.0,0.0,0.0,0.0,0.0,0.0,0.0,0.0,0.0,0.0,0.0,0.0,0.0,0.0,0.0,0.0,0.0,0.0,0.0,0.0,0.0,0.0,0.0,0.0,0.0,0.0,0.0,0.0,1.6918,1.6918,1.6918,1.6918,1.6918,1.6972,1.7109,1.724,1.7306,1.7306,1.7696,1.8133,1.8703,1.9392,1.9678,1.9682,2.0489,2.0937,2.1071,2.1103,2.1189,2.1305,2.1368,2.1463,2.1596,2.1671,2.1796,2.1939,0.0,0.0,0.0,0.0,0.0,0.0,0.0,0.0,0.0,0.0,0.0,0.0,1.1452,1.1703,1.1877,1.1902,1.2026,1.2101,1.2101,1.2376,1.2704,1.3093,1.3372,0.0,1.3724,1.3861,0.0,0.0,0.0,0.0,1.4547,1.5064,1.5404,1.5629,1.5796,1.5706,1.5345,0.0,0.0,0.0,0.0,0.0,0.0,0.0,0.0,0.0,0.0,0.0,0.0,0.0,0.0,0.0,0.0,0.0,0.0,0.0,0.0,0.0,0.0,0.0,0.0,0.0,0.0,0.0,0.0,0.0,0.0,0.0,0.0,0.0,0.0,0.0,0.0,0.0,0.0,0.0,0.0,0.0,0.0,0.0,0.0,0.0,0.0,0.0,0.0,0.0,0.0,0.0,1.5887,1.5887,1.5887,1.5887,1.5887,1.6094,1.6557,1.7038,1.7306,1.7306,1.7445,1.7618,1.7801,1.8724,1.9294,1.9538,2.0297,2.0966,2.1518,2.1038,2.112,2.1596,2.1784,2.1939,2.2113,2.2414,2.2653,2.2848,0.0,0.0,0.0,0.0,0.0,0.0,0.0,0.0,0.0,0.0,0.0,0.0,0.0,1.1852,1.1927,1.2026,1.215,1.2249,1.2348,1.2603,1.2842,1.3036,1.3298,1.3445,1.3518,1.3723,0.0,0.0,0.0,1.4596,1.4958,1.5233,1.5598,1.6044,1.5808,1.5459,1.506,1.485,0.0,0.0,0.0,0.0,0.0,0.0,0.0,0.0,0.0,0.0,0.0,0.0,0.0,0.0,0.0,0.0,0.0,0.0,0.0,0.0,0.0,0.0,0.0,0.0,0.0,0.0,0.0,0.0,0.0,0.0,0.0,0.0,0.0,0.0,0.0,0.0,0.0,0.0,0.0,0.0,0.0,0.0,0.0,0.0,0.0,0.0,0.0,0.0,0.0,0.0,1.6055,1.5979,1.5917,1.5917,1.5826,1.6029,1.6514,1.6829,1.7137,1.7423,1.7661,1.804,1.8621,1.9269,1.9921,2.0611,2.0688,2.1174,2.1849,2.1785,2.2077,2.2567,2.2628,2.254,2.2367,2.2497,2.2657,2.2807,0.0,0.0,0.0,0.0,0.0,0.0,0.0,0.0,0.0,0.0,0.0,0.0,0.0,0.0,1.2051,1.2224,1.2357,1.2495,1.2657,1.291,1.3104,1.32,1.3467,1.3624,1.3671,0.0,0.0,0.0,0.0,0.0,0.0,1.5366,1.5655,1.6058,1.5742,1.5432,0.0,0.0,0.0,1.4303,0.0,0.0,1.472,0.0,0.0,0.0,0.0,0.0,0.0,0.0,0.0,0.0,0.0,0.0,0.0,0.0,0.0,0.0,0.0,0.0,0.0,0.0,0.0,0.0,0.0,0.0,0.0,0.0,0.0,0.0,0.0,0.0,0.0,0.0,0.0,0.0,0.0,0.0,0.0,0.0,0.0,0.0,0.0,0.0,0.0,0.0,0.0,0.0,1.5777,1.5655,1.5606,1.5606,1.5648,1.5854,1.6188,1.6684,1.7113,1.7524,1.7965,1.8546,1.9136,1.9628,2.0269,2.0945,2.0845,2.1236,2.1951,2.193,2.2198,2.2728,2.2905,2.287,2.2697,2.2901,2.3093,2.316,0.0,0.0,0.0,0.0,0.0,0.0,0.0,0.0,0.0,0.0,0.0,0.0,0.0,0.0,0.0,1.2499,1.2671,1.2822,1.3016,1.329,1.3491,1.3634,1.3884,1.4095,1.4222,0.0,0.0,0.0,0.0,0.0,0.0,0.0,1.5546,1.5613,1.5613,1.5625,1.5616,0.0,1.5263,1.4903,0.0,1.5085,1.5335,0.0,0.0,0.0,1.577,1.5814,0.0,0.0,0.0,0.0,0.0,0.0,0.0,0.0,0.0,0.0,0.0,0.0,0.0,0.0,0.0,0.0,0.0,0.0,0.0,0.0,0.0,0.0,0.0,0.0,0.0,0.0,0.0,0.0,0.0,0.0,0.0,0.0,0.0,0.0,0.0,0.0,0.0,0.0,0.0,1.5085,1.4926,1.4857,1.4799,1.4799,1.5248,1.5532,1.5615,1.665,1.7306,1.7552,1.8381,1.896,1.9265,1.9773,2.0156,2.0422,2.0684,2.1212,2.1833,2.1335,2.1437,2.1973,2.258,2.2871,2.3078,2.3661,2.3969,2.4008,0.0,0.0,0.0,0.0,0.0,0.0,0.0,0.0,0.0,0.0,0.0,0.0,0.0,1.3174,1.3152,1.3208,1.3421,1.3619,1.3705,1.3954,1.4199,1.4387,1.4548,1.4674,1.4697,0.0,0.0,0.0,0.0,0.0,0.0,0.0,0.0,0.0,1.6035,1.5975,1.5872,1.5612,0.0,0.0,1.5289,1.5468,0.0,0.0,0.0,0.0,0.0,1.6166,0.0,0.0,1.6328,1.6349,0.0,0.0,0.0,0.0,0.0,0.0,1.6735,0.0,0.0,0.0,0.0,0.0,0.0,0.0,0.0,0.0,0.0,0.0,0.0,0.0,0.0,0.0,0.0,0.0,0.0,0.0,0.0,0.0,0.0,0.0,0.0,0.0,0.0,0.0,1.5802,1.568,1.5558,1.5312,1.5131,1.5028,1.5234,1.5568,1.6032,1.6514,1.7265,1.822,1.8669,1.9257,1.9939,2.0283,2.0535,2.0709,2.0871,2.107,2.1273,2.1549,2.201,2.2576,2.2734,2.2813,2.2894,2.3025,2.3411,2.365,0.0,0.0,0.0,0.0,0.0,0.0,0.0,0.0,0.0,0.0,0.0,0.0,0.0,0.0,1.4133,1.3917,1.4118,1.4234,1.4302,1.4478,1.4709,1.4937,1.5074,1.5164,1.5164,0.0,0.0,0.0,0.0,0.0,0.0,0.0,0.0,0.0,0.0,0.0,0.0,0.0,0.0,0.0,1.5736,0.0,0.0,1.6175,1.6262,0.0,0.0,0.0,1.634,1.6457,1.65,0.0,0.0,0.0,0.0,0.0,0.0,0.0,0.0,0.0,0.0,0.0,0.0,0.0,0.0,1.5147,0.0,0.0,0.0,0.0,0.0,0.0,0.0,0.0,0.0,0.0,0.0,0.0,0.0,0.0,0.0,0.0,0.0,0.0,0.0,0.0,1.6371,1.6185,1.5969,1.577,1.5637,1.5558,1.5669,1.5902,1.6327,1.675,1.741,1.8244,1.865,1.9299,2.0135,2.0381,2.0671,2.0957,2.1106,2.118,2.1182,2.1555,2.1828,2.2072,2.2325,2.2578,2.2831,2.307,2.3564,2.3951,0.0,0.0,0.0,0.0,0.0,0.0,0.0,0.0,0.0,0.0,0.0,0.0,0.0,0.0,0.0,0.0,1.4779,1.4833,1.4764,1.4915,0.0,0.0,0.0,0.0,0.0,0.0,0.0,0.0,0.0,0.0,0.0,0.0,0.0,0.0,0.0,0.0,0.0,0.0,0.0,1.6066,1.6188,1.6297,0.0,0.0,1.65,0.0,1.65,1.65,1.65,1.65,1.6577,0.0,0.0,0.0,0.0,0.0,1.7094,0.0,0.0,0.0,0.0,0.0,0.0,0.0,1.5914,1.5703,1.5651,0.0,0.0,0.0,0.0,0.0,0.0,0.0,0.0,0.0,0.0,0.0,0.0,0.0,0.0,0.0,0.0,0.0,1.7005,1.696,1.6842,1.6616,1.6318,1.6287,1.6287,1.6287,1.6324,1.6454,1.6586,1.7175,1.7654,1.7974,1.8526,1.9202,1.9969,2.0218,2.061,2.1135,2.1256,2.1331,2.1399,2.1399,2.1253,2.1086,2.1631,2.2257,2.2911,2.3458,2.4059,2.4568,0.0,0.0,0.0,0.0,0.0,0.0,0.0,0.0,0.0,0.0,0.0,0.0,0.0,0.0,0.0,0.0,1.5712,1.5635,1.5211,1.5413,0.0,0.0,0.0,0.0,0.0,0.0,0.0,0.0,0.0,0.0,0.0,0.0,0.0,0.0,0.0,0.0,0.0,0.0,0.0,1.6414,1.6371,0.0,1.6479,1.65,1.65,1.65,1.65,1.65,1.65,0.0,1.6522,1.6543,0.0,0.0,0.0,0.0,0.0,0.0,0.0,0.0,0.0,0.0,0.0,0.0,1.5627,1.5099,1.4868,0.0,0.0,0.0,0.0,0.0,0.0,0.0,0.0,0.0,0.0,0.0,0.0,0.0,0.0,0.0,0.0,0.0,1.7337,1.7372,1.722,1.7018,1.6858,1.6799,1.6748,1.6748,1.6829,1.6942,1.7052,1.7308,1.7779,1.8465,1.8585,1.9025,1.975,1.9795,2.0129,2.0634,2.0657,2.0952,2.1399,2.1399,2.1375,2.134,2.1448,2.2163,2.3149,2.3257,2.3973,2.4839,0.0,0.0,0.0,0.0,0.0,0.0,0.0,0.0,0.0,0.0,0.0,0.0,0.0,0.0,0.0,0.0,0.0,0.0,0.0,0.0,0.0,0.0,0.0,0.0,0.0,0.0,0.0,0.0,0.0,0.0,0.0,0.0,0.0,0.0,0.0,0.0,0.0,0.0,1.65,1.65,1.6457,0.0,1.65,1.65,1.65,1.65,1.65,1.65,1.65,1.65,1.65,0.0,0.0,1.6748,1.6897,0.0,1.7086,1.7199,0.0,0.0,0.0,1.7199,0.0,0.0,0.0,1.5665,1.5497,0.0,0.0,0.0,0.0,0.0,0.0,0.0,0.0,0.0,0.0,0.0,0.0,0.0,0.0,0.0,0.0,0.0,1.7638,1.7604,1.7502,1.7385,1.7256,1.7227,1.7199,1.7199,1.7303,1.7385,1.744,1.7577,1.7847,1.8247,1.8247,1.86,1.926,1.926,1.9714,2.0495,2.0495,2.0843,2.1399,2.1399,2.1399,2.1399,2.1399,2.2144,2.3215,2.3215,2.3771,2.4502,0.0,0.0,0.0,0.0,0.0,0.0,0.0,0.0,0.0,0.0,0.0,0.0,0.0,0.0,0.0,0.0,0.0,0.0,0.0,0.0,0.0,0.0,0.0,1.5792,0.0,0.0,0.0,0.0,0.0,0.0,0.0,0.0,0.0,0.0,0.0,0.0,0.0,0.0,0.0,1.65,0.0,1.65,1.65,1.65,1.65,1.65,1.65,1.65,1.65,1.65,0.0,1.65,1.65,1.6671,0.0,0.0,0.0,0.0,0.0,0.0,0.0,0.0,0.0,1.7055,0.0,0.0,0.0,1.6388,0.0,0.0,0.0,0.0,0.0,0.0,0.0,0.0,0.0,0.0,0.0,0.0,0.0,0.0,0.0,0.0,1.7862,1.774,1.774,1.7699,1.7591,1.7591,1.7591,1.7591,1.7686,1.774,1.774,1.7842,1.7902,1.7902,1.7902,1.816,1.8622,1.8622,1.9274,2.0355,2.0355,2.0748,2.1399,2.1399,2.1399,2.1399,2.1399,2.2144,2.3201,2.3079,2.3486,2.4069,1.3391,1.3585,0.0,0.0,0.0,0.0,0.0,0.0,0.0,0.0,0.0,0.0,0.0,0.0,0.0,0.0,0.0,0.0,1.6456,0.0,0.0,0.0,0.0,0.0,1.5792,0.0,0.0,0.0,0.0,0.0,0.0,0.0,0.0,0.0,1.65,0.0,0.0,0.0,1.65,0.0,1.65,1.65,0.0,1.65,1.65,1.65,1.65,1.65,1.65,0.0,1.65,1.65,0.0,1.6671,0.0,0.0,0.0,0.0,0.0,0.0,0.0,0.0,1.7199,0.0,0.0,0.0,1.6388,1.6388,0.0,0.0,0.0,0.0,0.0,0.0,0.0,0.0,0.0,0.0,0.0,0.0,0.0,0.0,0.0,0.0,0.0,1.7882,1.7882,1.7862,1.7862,1.7848,1.7848,1.7848,1.7862,1.7882,1.7882,1.7882,1.7902,1.7902,1.7902,1.7943,1.7997,1.7997,1.8663,1.9795,1.9795,2.0396,2.1399,2.1399,2.1399,2.1399,2.1399,2.2144,2.3147,2.2591,2.3106,2.4014,1.338,1.3717,0.0,0.0,0.0,0.0,0.0,0.0,0.0,0.0,0.0,0.0,0.0,0.0,0.0,0.0,0.0,1.8596,0.0,0.0,0.0,0.0,0.0,0.0,0.0,0.0,0.0,0.0,1.6069,0.0,0.0,0.0,0.0,0.0,1.65,0.0,1.65,0.0,0.0,0.0,0.0,0.0,0.0,1.65,1.65,1.65,1.65,1.65,1.65,0.0,1.65,0.0,0.0,0.0,0.0,0.0,0.0,0.0,0.0,0.0,0.0,0.0,0.0,0.0,0.0,0.0,1.6859,0.0,0.0,0.0,0.0,0.0,0.0,0.0,0.0,0.0,0.0,0.0,0.0,0.0,0.0,0.0,0.0,0.0,0.0,0.0,0.0,1.7902,1.7902,1.7902,1.7902,1.7902,1.7902,1.7902,1.7902,1.7902,1.7902,1.7902,1.7902,1.7902,1.7916,1.8255,1.8894,1.9714,2.0017,2.0626,2.1399,2.1399,2.1447,2.152,2.152,2.2294,2.329,2.2663,2.3053,2.3842,1.3601,0.0,0.0,0.0,0.0,0.0,0.0,0.0,0.0,0.0,0.0,0.0,1.9821,1.9953,0.0,0.0,0.0,1.9423,0.0,0.0,1.7388,0.0,0.0,0.0,0.0,0.0,0.0,0.0,0.0,0.0,0.0,0.0,0.0,0.0,0.0,1.65,1.65,0.0,0.0,1.65,1.65,1.65,1.65,1.65,1.65,1.65,1.65,1.65,1.65,1.65,1.65,0.0,1.6543,0.0,0.0,0.0,0.0,0.0,1.7282,0.0,0.0,0.0,0.0,0.0,0.0,0.0,0.0,0.0,0.0,0.0,0.0,0.0,0.0,0.0,0.0,0.0,0.0,0.0,0.0,0.0,0.0,0.0,0.0,0.0,0.0,0.0,1.7949,0.0,1.7929,1.7922,1.7902,1.7902,1.7902,1.7902,1.7902,1.7902,1.7902,1.7902,1.7909,1.8011,1.8222,1.872,1.9371,2.0101,2.0534,2.1055,2.1616,2.1616,2.1688,2.1769,2.1793,2.2505,2.3414,2.2691,2.3039,2.3797,1.4348,1.4476,0.0,0.0,0.0,0.0,0.0,0.0,0.0,0.0,0.0,0.0,0.0,0.0,0.0,0.0,0.0,1.9579,1.8999,0.0,1.7941,0.0,0.0,1.6571,0.0,0.0,0.0,0.0,0.0,0.0,0.0,0.0,0.0,0.0,0.0,1.65,1.65,1.65,1.65,1.65,1.65,1.65,1.65,0.0,1.65,1.65,1.65,0.0,0.0,1.65,1.65,0.0,0.0,0.0,0.0,0.0,0.0,0.0,0.0,0.0,0.0,1.7496,0.0,0.0,0.0,0.0,1.7496,0.0,0.0,0.0,0.0,0.0,0.0,0.0,0.0,0.0,0.0,0.0,0.0,0.0,0.0,0.0,0.0,0.0,0.0,1.8183,1.8075,1.8002,1.8002,1.7949,1.7902,1.7902,1.7902,1.7902,1.7902,1.7902,1.7902,1.7902,1.7975,1.8337,1.8968,1.9204,1.9921,2.1049,2.1212,2.1622,2.2184,2.2184,2.2184,2.2184,2.2324,2.2838,2.3407,2.2531,2.3044,2.4042,0.0,0.0,0.0,0.0,0.0,0.0,0.0,1.9002,0.0,0.0,0.0,0.0,0.0,0.0,2.2041,0.0,0.0,2.0851,1.9627,1.9011,0.0,0.0,0.0,1.6607,0.0,0.0,0.0,0.0,0.0,0.0,0.0,0.0,0.0,0.0,0.0,1.65,0.0,0.0,0.0,0.0,0.0,1.65,1.65,0.0,0.0,1.65,1.65,1.65,0.0,1.65,1.6543,1.6663,1.6791,1.6939,1.7136,1.7344,1.7502,0.0,0.0,0.0,1.7788,1.7821,0.0,0.0,0.0,0.0,0.0,0.0,0.0,0.0,0.0,0.0,0.0,0.0,0.0,0.0,0.0,0.0,0.0,0.0,0.0,0.0,0.0,0.0,0.0,1.84,1.826,1.8206,0.0,1.8042,1.7996,1.8103,1.8016,1.8022,1.8161,1.8161,1.8214,1.8301,1.8717,1.909,1.9431,2.0345,2.0995,2.1458,2.1891,2.2212,2.2411,2.2411,2.2457,2.2549,2.2678,2.325,2.3859,2.2976,2.3325,2.4098,1.5289,0.0,0.0,0.0,0.0,0.0,0.0,0.0,0.0,0.0,2.1247,0.0,2.2678,0.0,2.3083,0.0,2.2306,2.1668,2.0442,1.97,0.0,1.877,1.7748,0.0,0.0,0.0,0.0,0.0,0.0,1.6318,0.0,0.0,0.0,0.0,0.0,0.0,0.0,0.0,1.65,0.0,0.0,1.6522,0.0,0.0,1.6543,1.65,0.0,1.6565,1.6577,1.6629,1.6727,1.6846,1.7015,1.7233,1.7427,1.7693,1.7855,1.8016,1.8181,1.822,0.0,1.822,1.8181,0.0,1.8149,0.0,0.0,0.0,0.0,0.0,0.0,0.0,0.0,0.0,0.0,0.0,0.0,1.9082,0.0,0.0,0.0,0.0,0.0,0.0,1.8855,1.876,1.8649,1.8553,0.0,0.0,1.824,1.8288,1.8254,1.8285,1.8403,1.8442,1.8514,1.86,1.9268,1.9766,2.0145,2.1291,2.1968,2.2258,2.2701,2.2897,2.2897,2.2897,2.2942,2.3031,2.3157,2.3555,2.397,2.3386,2.3555,2.4082,0.0,0.0,0.0,0.0,1.7286,0.0,0.0,0.0,2.0422,0.0,2.2246,2.2666,2.3734,2.3866,2.3661,2.3095,2.2558,0.0,2.144,2.0434,0.0,0.0,1.8797,1.8231,1.8231,0.0,0.0,0.0,0.0,0.0,0.0,0.0,0.0,0.0,1.65,0.0,1.65,1.65,1.6522,1.6522,1.6522,1.6599,1.6718,1.6718,0.0,1.6565,1.6675,1.6718,1.674,1.6876,1.696,1.7086,1.735,1.7584,1.7801,1.8129,1.8372,1.8553,1.8611,1.8726,1.8784,1.8669,0.0,0.0,0.0,0.0,1.8669,0.0,0.0,0.0,0.0,0.0,0.0,0.0,0.0,0.0,0.0,0.0,0.0,0.0,0.0,0.0,0.0,1.9413,1.9362,1.9225,1.9161,0.0,0.0,0.0,1.8606,1.8537,1.8586,1.863,1.8649,1.8765,1.8841,1.8855,1.9603,2.0318,2.1058,2.1987,2.2784,2.3428,2.3551,2.3616,2.3616,2.3616,2.3616,2.3616,2.376,2.3824,2.3824,2.3674,2.3782,2.4003,1.6195,1.7027,1.7747,0.0,1.7949,1.8528,0.0,0.0,0.0,0.0,2.2871,2.3649,2.4254,2.4675,2.4554,2.3685,2.3481,0.0,0.0,0.0,0.0,1.9955,1.9109,1.8647,1.8647,1.7739,0.0,1.7395,0.0,0.0,1.6633,0.0,0.0,0.0,0.0,0.0,1.65,1.6599,1.6718,1.6791,1.6791,1.6854,0.0,0.0,1.7136,1.7227,1.6989,1.6981,1.7094,1.724,1.7372,1.7591,1.7889,1.8135,1.8344,1.863,1.876,1.8841,1.9064,1.9064,1.9045,1.9101,1.9045,1.8969,0.0,0.0,0.0,0.0,0.0,0.0,0.0,0.0,0.0,0.0,0.0,0.0,0.0,0.0,0.0,0.0,0.0,0.0,0.0,0.0,1.9654,1.9584,1.9457,0.0,0.0,0.0,0.0,1.8965,1.8969,1.9045,1.9176,1.9273,1.9365,1.949,2.0123,2.0832,2.162,2.2358,2.3122,2.3861,2.3882,2.3903,2.3903,2.3903,2.3903,2.3903,2.4094,2.4261,2.4364,2.413,2.413,2.4219,1.6836,0.0,0.0,1.8806,0.0,0.0,2.0021,0.0,0.0,2.2402,2.3288,0.0,2.4436,2.4748,2.4638,2.3878,2.3589,0.0,0.0,0.0,0.0,2.0533,1.9688,1.9296,1.9409,1.8514,0.0,1.8171,0.0,0.0,1.6918,0.0,0.0,0.0,0.0,1.6791,0.0,1.6791,1.6939,1.7115,1.7115,0.0,0.0,1.7944,1.8322,1.8748,1.8622,1.813,1.7578,1.7713,1.7882,1.8101,1.8313,1.8548,1.8803,1.9007,1.9139,1.9246,1.9395,1.9413,1.938,1.9413,1.9376,1.9321,1.9321,1.9376,1.9431,0.0,0.0,0.0,0.0,0.0,0.0,0.0,0.0,0.0,0.0,0.0,0.0,0.0,0.0,0.0,0.0,0.0,0.0,0.0,0.0,0.0,0.0,0.0,0.0,1.9347,1.9398,1.9453,1.9578,1.9672,1.9762,1.983,2.0474,2.1209,2.199,2.2717,2.3468,2.4213,2.4255,2.4261,2.4261,2.4261,2.4261,2.4261,2.4385,2.4508,2.4569,2.4441,2.44,2.4426,0.0,0.0,0.0,0.0,0.0,0.0,0.0,2.1151,0.0,2.2879,0.0,2.3881,2.4424,2.4458,2.4242,2.3875,0.0,2.2841,2.2378,2.1433,2.1006,2.1188,2.0404,2.0055,2.0243,1.9436,0.0,0.0,0.0,0.0,0.0,0.0,0.0,0.0,0.0,0.0,0.0,1.7094,1.73,0.0,1.7643,1.8199,1.9043,1.9169,1.9754,2.0514,2.062,1.9619,1.8252,1.8379,1.8501,1.8592,1.8688,1.8917,1.9176,1.9321,1.9468,1.9611,1.9611,1.965,1.969,1.9629,1.9611,1.9611,1.9611,1.9611,1.9629,1.9708,1.9708,1.9726,0.0,0.0,0.0,0.0,0.0,0.0,0.0,0.0,0.0,0.0,0.0,0.0,0.0,0.0,0.0,0.0,0.0,0.0,0.0,0.0,0.0,1.9744,1.9797,0.0,1.9884,0.0,2.0058,2.0076,2.0746,2.1488,2.229,2.2994,2.3772,2.4518,2.4569,2.4609,2.4609,2.4609,2.4609,2.463,2.463,2.463,2.465,2.465,2.465,2.465,0.0,0.0,0.0,0.0,0.0,2.1296,2.1837,2.162,2.1789,2.2879,2.3095,0.0,2.4388,2.4145,2.3923,2.3959,2.3462,0.0,0.0,0.0,0.0,2.1193,2.0938,2.0684,2.0445,1.9908,1.9402,0.0,0.0,0.0,0.0,0.0,0.0,0.0,0.0,0.0,1.7578,1.7639,0.0,1.881,1.8914,1.9502,2.0295,2.0428,2.0688,2.0988,2.1064,2.0408,1.9495,1.9575,1.9329,1.9026,1.9195,1.9376,1.9538,1.9599,1.9654,1.9672,1.9672,1.969,1.9708,1.969,1.9672,1.9672,1.9672,1.9672,1.9708,1.9762,1.978,1.9815,1.9919,0.0,0.0,0.0,0.0,0.0,0.0,0.0,0.0,0.0,0.0,0.0,0.0,0.0,0.0,0.0,0.0,0.0,0.0,0.0,0.0,0.0,0.0,0.0,0.0,0.0,2.0356,2.0424,2.1142,2.1859,2.2562,2.3246,2.3931,2.4569,2.4589,2.4609,2.4609,2.4609,2.4666,2.4762,2.4762,2.4826,2.4926,2.4926,2.4926,2.4906,0.0,0.0,0.0,0.0,0.0,0.0,0.0,2.2914,0.0,2.336,2.3616,2.3965,2.4436,2.4128,2.3947,2.4099,2.3513,2.2934,2.2392,2.2135,2.1885,2.159,2.1339,0.0,2.1285,2.0467,1.9946,1.974,0.0,0.0,0.0,0.0,0.0,0.0,0.0,1.8008,0.0,0.0,0.0,1.9492,1.9946,2.0646,2.1447,2.1574,2.1926,2.2346,2.2416,2.196,2.119,2.0416,1.9792,1.9376,1.9483,1.956,1.9669,1.969,1.9708,1.9708,1.9708,1.9708,1.9708,1.9708,1.9708,1.9708,1.9708,1.9726,1.9762,1.978,1.9866,1.9937,2.0028,2.0113,0.0,0.0,0.0,0.0,0.0,0.0,0.0,0.0,0.0,0.0,0.0,0.0,0.0,0.0,0.0,0.0,0.0,0.0,0.0,0.0,0.0,0.0,0.0,0.0,0.0,2.1073,2.1778,2.248,2.3132,2.3518,2.4085,2.4706,2.4786,2.4806,2.4806,2.4806,2.4846,2.4886,2.4886,2.4926,2.5005,2.5005,2.5005,2.4985,0.0,2.1909,0.0,0.0,2.283,0.0,0.0,2.4283,2.4213,2.395,2.4244,2.45,2.4677,2.4286,2.4108,2.4414,2.3622,2.2976,2.2758,2.2465,2.2207,2.1941,2.1716,2.1714,2.1941,2.1091,2.0613,0.0,0.0,0.0,0.0,0.0,0.0,0.0,0.0,0.0,0.0,0.0,2.0047,2.0402,2.1003,2.1745,2.2517,2.2609,2.3005,2.3538,2.3588,2.3116,2.2308,2.1085,2.0298,1.9804,1.9674,1.965,1.9708,1.9708,1.9708,1.9708,1.9708,1.9708,1.9708,1.9726,1.9726,1.9726,1.9762,1.9797,1.9848,1.9851,1.9973,2.0113,2.0168,2.0289,0.0,0.0,0.0,0.0,0.0,0.0,0.0,0.0,0.0,0.0,0.0,0.0,0.0,0.0,0.0,0.0,0.0,0.0,0.0,0.0,0.0,2.051,2.0544,0.0,2.1643,0.0,2.2488,2.3142,2.3674,2.3943,2.4343,2.4842,2.4946,2.5065,2.5207,2.5247,2.5326,2.5468,2.5528,2.5433,2.5286,2.5306,2.5306,2.5286,0.0,0.0,0.0,0.0,0.0,0.0,0.0,2.5148,2.5029,2.4362,2.4304,2.4579,2.5261,2.4541,2.4324,2.5129,2.3918,2.3,2.2803,2.2545,2.2264,2.1999,2.2189,2.2147,2.1829,2.1707,2.1399,0.0,0.0,0.0,0.0,0.0,0.0,0.0,0.0,0.0,0.0,2.0983,2.1471,2.2161,2.2304,2.2789,2.3477,2.3483,2.3528,2.3588,2.3595,2.2817,2.1769,2.163,2.1152,2.0494,1.9884,1.969,1.9708,1.9708,1.9708,1.9708,1.9708,1.9708,1.9708,1.978,1.978,1.9815,1.9937,1.9988,1.999,2.0063,2.0235,2.0373,2.0443,2.0577,2.0694,0.0,0.0,0.0,0.0,0.0,0.0,0.0,0.0,0.0,0.0,0.0,0.0,0.0,0.0,0.0,0.0,0.0,0.0,2.0494,0.0,2.0561,2.0676,2.1351,0.0,2.1883,2.3159,2.3822,2.3901,2.4586,2.4922,2.4966,2.4985,2.5349,2.5934,2.6041,2.6463,2.7036,2.7261,2.6864,2.6186,2.6302,2.6282,2.617,0.0,0.0,0.0,0.0,0.0,0.0,0.0,2.6526,2.6637,2.653,2.5663,2.522,2.5607,2.4881,2.4574,2.5127,2.4355,2.369,2.3295,2.3078,2.2724,2.2259,2.2417,2.2478,2.2384,2.2017,2.1708,0.0,0.0,0.0,0.0,0.0,0.0,0.0,0.0,2.1237,2.1307,2.1777,2.2165,2.2494,2.2965,2.3327,2.3595,2.3595,2.3595,2.3595,2.3595,2.3026,2.2239,2.1829,2.0976,2.0049,1.9765,1.9708,1.9708,1.9708,1.9708,1.9708,1.9744,1.9762,1.978,1.9884,1.9919,1.9919,1.9988,2.0025,2.0063,2.0083,2.0373,2.061,2.0712,2.0925,2.1087,0.0,0.0,0.0,0.0,0.0,0.0,0.0,0.0,0.0,0.0,0.0,0.0,0.0,0.0,0.0,0.0,0.0,0.0,2.0925,0.0,2.1645,2.166,2.2761,2.3283,2.324,2.4249,2.4694,2.4636,2.5038,2.5282,2.5391,2.5824,2.6162,2.6467,2.6961,2.7344,2.7632,2.7749,2.7611,2.7339,2.6938,2.6994,2.7207,2.5401,0.0,2.5682,0.0,2.6236,2.6432,2.7232,2.7584,2.7848,2.8137,2.687,2.6013,2.6252,2.5527,2.5137,2.5418,2.4736,2.4138,2.38,2.3396,2.2961,2.2552,2.2638,0.0,2.2841,2.2379,2.2156,2.2265,2.1822,0.0,0.0,0.0,0.0,0.0,2.1981,2.2023,2.2079,2.2596,2.2831,2.2861,2.3394,2.349,2.3347,2.3347,2.3206,2.3041,2.3041,2.2637,2.2044,2.156,2.0666,1.9726,1.9708,1.9708,1.9726,1.9726,1.9762,1.9797,1.9848,1.9866,1.9884,2.0008,2.0025,2.0043,2.0078,2.0115,2.0168,2.0185,2.0494,2.081,2.0958,2.1214,2.1418,2.1525,0.0,0.0,0.0,0.0,0.0,0.0,0.0,2.1945,2.1784,0.0,0.0,0.0,0.0,0.0,0.0,0.0,0.0,0.0,0.0,0.0,0.0,2.3785,2.4422,2.4292,2.5034,2.5452,2.5605,2.6025,2.6257,2.6349,2.6889,2.7212,2.746,2.8001,2.8408,2.8673,2.8737,2.8682,2.8546,2.8039,2.8078,2.8339,2.6151,2.6277,2.6449,2.6645,2.7129,2.755,2.7743,2.8072,2.8365,2.8554,2.7542,2.6952,2.7346,2.6535,2.605,2.6264,2.5013,2.4201,2.4187,2.3321,2.2809,0.0,0.0,2.2888,2.2888,2.2888,2.2888,2.2888,0.0,0.0,2.309,0.0,2.3334,2.3458,2.3458,2.3508,2.3565,2.358,2.3595,2.3595,2.3595,2.3236,2.2703,2.2703,2.2298,2.1724,2.1724,2.1291,2.0718,2.0703,2.031,1.978,1.9726,1.9744,1.9797,1.9797,1.9884,2.0005,2.0005,2.0005,2.0008,2.008,2.01,2.0133,2.027,2.0304,2.0321,2.0388,2.0662,2.0958,2.1151,2.1419,2.1664,2.1869,0.0,0.0,0.0,0.0,0.0,0.0,2.2254,2.2265,2.2192,0.0,0.0,0.0,0.0,0.0,0.0,0.0,0.0,2.1508,2.2276,0.0,2.2701,2.4027,2.4692,2.4709,2.5318,2.6016,2.6811,2.7666,2.807,2.807,2.807,2.8464,2.9067,2.9218,2.9766,3.0493,3.0686,3.0372,2.9791,2.9837,2.9741,2.9596,2.693,2.7188,2.741,2.7543,2.8026,2.8468,2.8771,2.9107,2.9373,2.9602,2.8537,2.779,2.7942,2.6649,2.5883,0.0,2.5128,2.4476,0.0,2.3457,2.2857,2.2857,2.2902,2.2947,2.3037,2.3037,2.3082,2.3164,0.0,0.0,0.0,2.3378,2.3466,2.3509,2.356,2.3588,2.3595,2.3595,2.3595,2.3565,2.3152,2.2868,2.2643,2.2194,2.1874,2.1695,2.1695,2.13,2.0768,2.0768,2.0406,1.9919,1.9902,1.9919,1.9937,1.9937,1.997,2.0023,2.0061,2.0063,2.0098,2.027,2.0304,2.0321,2.0424,2.0509,2.061,2.0728,2.0958,2.1246,2.1496,2.1723,2.1913,2.208,2.2152,0.0,0.0,0.0,0.0,0.0,0.0,2.2405,0.0,2.2446,0.0,0.0,0.0,0.0,0.0,0.0,0.0,0.0,2.3534,0.0,2.4611,2.5446,2.6071,2.6475,2.6671,2.7224,2.8106,2.8417,2.8628,2.8736,2.9257,2.9573,2.9825,3.0381,3.0777,3.1061,3.112,3.108,3.0883,3.0413,3.0457,3.0678,2.7556,2.7875,2.8235,2.8398,2.8835,2.9233,2.9467,2.973,2.996,3.008,2.8997,2.8226,2.8254,2.6903,0.0,2.6245,2.5282,2.4687,2.4702,2.3574,2.2925,2.297,2.2992,2.3037,2.3157,0.0,0.0,2.3297,2.3341,2.3385,2.3414,2.3516,2.3538,2.3538,2.3588,2.3595,2.3595,2.3595,2.3595,2.355,2.2942,2.2553,2.2254,2.1575,2.119,2.0985,2.0985,2.079,2.0503,2.0524,2.0342,2.0129,2.0146,2.0181,2.0183,2.0146,2.0146,2.0166,2.0237,2.0239,2.0289,2.0458,2.0508,2.0526,2.0628,2.0761,2.0909,2.1023,2.1262,2.151,2.1738,2.1945,2.212,2.2211,2.2296,2.2352,2.2391,0.0,0.0,0.0,0.0,0.0,0.0,2.2565,0.0,0.0,0.0,0.0,0.0,0.0,0.0,2.3464,2.4481,0.0,2.6047,2.6691,2.7328,2.7977,2.8261,2.8688,2.9272,2.9651,2.9861,2.9952,3.0427,3.063,3.0664,3.1121,3.1349,3.1411,3.1411,3.1485,3.1562,3.1101,3.1129,3.1359,2.8039,2.8514,0.0,0.0,2.9543,0.0,2.9839,3.0005,3.0127,3.0085,2.8998,2.8269,2.8354,2.7259,2.651,2.6537,0.0,0.0,0.0,2.3673,2.2955,2.3105,2.3105,2.3194,2.3319,2.3319,2.3319,2.3319,2.3466,2.3538,2.3595,2.3595,2.3595,2.3595,2.3595,2.3595,2.3595,2.3595,2.3595,2.3535,2.2897,2.2254,2.164,2.0936,2.0299,1.9815,1.9833,1.9919,2.0025,2.0115,2.022,2.0339,2.0407,2.0475,2.051,2.0373,2.0356,2.044,2.051,2.0527,2.0561,2.071,2.0743,2.0777,2.0909,2.1087,2.1246,2.1309,2.1541,2.1753,2.1899,2.208,2.2242,2.2296,2.2366,2.2391,2.2405,0.0,0.0,0.0,0.0,0.0,0.0,2.2659,2.2716,0.0,0.0,0.0,0.0,0.0,2.3762,2.3762,2.5227,2.6354,2.709,2.776,2.8475,2.9189,2.9957,3.0331,3.0416,3.1225,3.1619,3.1671,3.1671,3.1637,3.1585,3.1585,3.1591,3.1617,3.1617,3.1724,3.1869,3.1869,3.1848,3.1771,0.0,0.0,2.9591,2.9637,2.9946,3.019,3.019,3.0357,3.0288,2.9782,2.9045,2.8408,2.7916,2.719,2.6779,2.6884,2.5643,2.4888,2.4971,2.3774,2.3112,2.3246,2.3253,2.3334,2.3466,2.3466,2.3473,2.353,2.3566,2.3573,2.3595,2.3595,2.3595,2.3595,2.3595,2.3595,2.3595,2.3595,2.3595,2.3505,2.2435,2.1919,2.1648,2.0622,2.0147,2.0045,2.0133,2.0235,2.032,2.0375,2.0477,2.0627,2.0729,2.0795,2.0778,2.0644,2.0626,2.0644,2.0762,2.0811,2.0844,2.1038,2.1167,2.1261,2.1339,2.1463,2.1603,2.1678,2.1811,2.1972,2.2109,2.2211,2.2296,2.2366,2.2377,2.2432,2.2542,2.2569,0.0,0.0,2.2659,2.2672,2.2672,2.2685,2.294,0.0,0.0,0.0,0.0,2.522,2.5515,2.5515,2.6459,2.732,2.806,2.8733,2.9401,3.0098,3.0907,3.1576,3.2194,3.2445,3.2896,3.3483,3.3483,3.3156,3.2569,3.2569,3.2261,3.1746,3.1746,3.2126,3.2645,3.2645,3.3005,3.3503,2.8563,2.9122,2.961,2.961,3.0064,3.0447,3.0447,3.0261,3.0016,2.9639,2.8868,2.821,2.7833,2.7316,2.7015,2.7093,2.5779,2.4985,2.5101,2.3898,2.3246,2.34,2.3385,2.3429,2.3538,2.356,2.3566,2.3595,2.3595,2.3595,2.3595,2.3595,2.3595,2.3595,2.3595,2.3616,2.3696,2.3696,2.3739,2.3725,2.2455,2.2002,2.1946,2.0709,2.0308,2.0427,2.0494,2.0595,2.0679,2.0794,2.0892,2.099,2.1103,2.115,2.1166,2.1167,2.1071,2.1006,2.1103,2.115,2.1214,2.1388,2.1541,2.1646,2.1675,2.1749,2.1855,2.1961,2.2034,2.2135,2.2268,2.2324,2.238,2.2432,2.2474,2.2515,2.2579,2.2636,0.0,2.3164,2.3198,2.3353,2.3715,2.375,2.3922,2.4319,0.0,0.0,2.6023,2.7075,2.7351,2.6678,2.7402,2.8334,2.9437,3.0144,3.0847,3.1548,3.1981,3.2638,3.3395,3.3436,3.368,3.4113,3.4113,3.3835,3.3438,3.3438,3.3214,3.2835,3.2835,3.3093,3.3438,3.3438,3.3736,3.4155,2.7995,2.8684,2.9319,2.9319,2.9929,3.0366,3.0366,2.9886,2.9508,2.9377,2.8542,2.7908,2.7805,2.7453,2.7207,2.7233,2.5977,2.5218,2.523,2.4043,2.3385,2.3509,2.3531,2.3538,2.3595,2.3595,2.3595,2.3595,2.3595,2.3595,2.3595,2.3595,2.3595,2.3616,2.3616,2.3717,2.3861,2.3882,2.3927,2.3881,2.2685,2.225,2.2167,2.0995,2.0679,2.0876,2.0909,2.0974,2.1103,2.123,2.1309,2.1371,2.1448,2.1508,2.1584,2.1708,2.1602,2.1433,2.1463,2.1524,2.1615,2.1738,2.1857,2.1943,2.1957,2.2001,2.2089,2.2197,2.2211,2.2254,2.2394,2.2405,2.2432,2.2501,2.2552,2.2592,2.2605,0.0,2.3095,2.3733,2.3905,2.4284,2.5092,2.5178,2.5264,2.5505,2.673,2.7506,0.0,2.8816,2.8989,2.7851,2.842,2.942,3.0852,3.1593,3.2283,3.2904,3.3024,3.349,3.4268,3.4268,3.4337,3.4441,3.4441,3.4372,3.4306,3.4306,3.4236,3.4153,3.4153,3.4204,3.4291,3.4187,3.4263,3.4391,2.8326,2.8668,2.8982,2.8982,2.9181,2.9323,2.9323,2.9235,2.897,2.84,2.8177,2.788,2.7362,2.724,2.7258,2.7376,2.6628,2.5947,2.5393,2.4178,2.3494,2.3588,2.3573,2.3588,2.3595,2.3595,2.3595,2.3595,2.3595,2.3595,2.3595,2.3595,2.3674,2.376,2.376,2.3867,2.4057,2.4177,2.3958,2.3474,2.2923,2.2378,2.1848,2.1342,2.1183,2.123,2.1339,2.14,2.1447,2.1572,2.1634,2.1648,2.1781,2.1823,2.1853,2.1926,2.2003,2.2022,2.1869,2.1868,2.194,2.208,2.214,2.2168,2.224,2.2237,2.2251,2.2282,2.2338,2.238,2.2408,2.2446,2.2515,2.2565,2.2592,2.2619,2.2672,0.0,2.3681,2.3802,2.4405,2.5109,2.5853,2.5921,2.6471,2.7764,2.8092,2.8506,2.9127,2.9386,2.9713,3.0162,3.0265,3.0748,3.161,3.2369,3.28,3.2904,3.3576,3.43,3.5025,3.5025,3.537,3.5956,3.5956,3.5673,3.5183,3.5183,3.4861,3.4349,3.4349,3.4731,3.5218,3.4575,3.4749,3.5307,2.7744,2.813,2.846,2.846,2.8822,2.9098,2.9098,2.8803,2.8451,2.8142,2.7897,2.7624,2.7354,2.7386,2.7423,2.7499,2.6877,2.6221,2.555,2.4611,2.3955,2.361,2.3595,2.3595,2.3595,2.3595,2.3595,2.3595,2.3674,2.3717,2.3717,2.3809,2.3894,2.3973,2.4114,2.424,2.4369,2.4553,2.4327,2.3844,2.3335,2.2789,2.2215,2.171,2.1556,2.1631,2.169,2.1749,2.1794,2.184,2.1901,2.1978,2.2034,2.2092,2.212,2.2163,2.218,2.2183,2.212,2.2149,2.2178,2.224,2.2558,2.2859,2.2888,2.3219,2.3536,2.3536,2.3272,2.307,2.3081,2.314,2.3165,2.3234,2.3622,0.0,0.0,2.4232,2.4749,2.5592,2.6006,2.6678,2.7833,2.7937,2.823,2.8937,2.9386,2.9955,3.0696,3.0748,3.1093,3.1852,3.1489,3.1645,3.2386,3.2731,3.3317,3.4145,3.4527,3.5076,3.5783,3.5783,3.6032,3.6402,3.6402,3.6274,3.6102,3.6102,3.5913,3.564,3.564,3.5588,3.5466,3.5118,3.5244,3.5614,2.7207,2.7605,2.7945,2.7945,2.8385,2.8764,2.8764,2.8308,2.7983,2.7983,2.7672,2.7437,2.7437,2.7524,2.76,2.76,2.716,2.6531,2.573,2.5228,2.4545,2.364,2.3595,2.3595,2.3653,2.3653,2.3674,2.3696,2.3797,2.3861,2.3867,2.4057,2.4183,2.4271,2.4487,2.467,2.4835,2.5017,2.4833,2.4382,2.3809,2.3243,2.2698,2.2065,2.1888,2.1974,2.2003,2.203,2.2073,2.2073,2.2135,2.2211,2.2211,2.2254,2.2296,2.2296,2.2254,2.2225,2.2282,2.2431,2.2564,2.2564,2.312,2.3676,2.3676,2.4192,2.466,2.466,2.4245,2.3924,2.3982,2.3979,2.4007,2.4063,0.0,0.0,0.0,2.5419,2.604,2.7385,2.7713,2.8334,2.9644,2.9782,2.992,3.0265,3.0851,3.1524,3.2283,3.2317,3.2593,3.3162,3.2455,3.2334,3.2904,3.3266,3.4024,3.5197,3.537,3.577,3.636,3.636,3.6423,3.6544,3.6544,3.6623,3.6725,3.6551,3.6484,3.6484,3.6484,3.61,3.556,3.556,3.5636,3.5731,2.7207,2.7328,2.7435,2.7435,2.7593,2.7709,2.7709,2.7679,2.7649,2.7649,2.7604,2.76,2.76,2.76,2.76,2.76,2.767,2.7182,2.5954,2.5956,2.5265,2.3676,2.3595,2.3674,2.3782,2.3797,2.3861,2.3982,2.3982,2.4009,2.4078,2.4219,2.4451,2.4755,2.4839,2.5114,2.553,2.5607,2.5334,2.4824,2.4282,2.3616,2.2931,2.2365,2.2168,2.22,2.2254,2.2265,2.2282,2.2282,2.2282,2.2296,2.2296,2.2296,2.2296,2.2296,2.2296,2.2296,2.2296,2.2801,2.3325,2.3325,2.3909,2.4513,2.4513,2.4641,2.4784,2.4784,2.481,2.4802,2.4802,2.4861,2.4905,2.4919,0.0,0.0,2.5919,2.6661,2.742,2.8213,2.892,2.9679,3.0541,3.061,3.1179,3.2559,3.2697,3.3093,3.3889,3.3941,3.3975,3.401,3.3231,3.2852,3.2904,3.4318,3.5076,3.5197,3.5887,3.6312,3.6502,3.6502,3.6544,3.6681,3.6681,3.6725,3.6756,3.6057,3.5819,3.5861,3.5861,3.5826,3.5773,3.5773,3.5773,3.581,2.7448,2.7473,2.7524,2.7524,2.7575,2.76,2.76,2.76,2.76,2.76,2.7675,2.7715,2.7715,2.7875,2.7974,2.7974,2.8131,2.7685,2.6358,2.6401,2.574,2.4097,2.4036,2.4094,2.4234,2.4234,2.4276,2.4364,2.4467,2.4533,2.4603,2.4855,2.5091,2.5304,2.5513,2.5682,2.5864,2.6012,2.5706,2.513,2.5012,2.454,2.3897,2.3705,2.3332,2.2943,2.2972,2.2699,2.2296,2.2296,2.2296,2.2296,2.2296,2.2296,2.2381,2.2852,2.2999,2.3144,2.3602,2.3602,2.3568,2.4026,2.4781,2.5405,2.5405,2.5826,2.623,2.623,2.5916,2.5805,2.6303,2.6404,2.6575,2.704,0.0,2.7902,2.8178,2.8472,2.8954,2.973,3.0058,3.0713,3.1955,3.2059,3.249,3.3559,3.3669,3.4053,3.4869,3.5022,3.4894,3.4501,3.4622,3.4613,3.4454,3.5065,3.5642,3.6128,3.6405,3.6564,3.6623,3.6623,3.6684,3.6748,3.6748,3.6829,3.6858,3.6087,3.5791,3.5792,3.5792,3.5549,3.5255,3.5729,3.5999,3.611,2.76,2.76,2.76,2.76,2.76,2.76,2.76,2.76,2.7625,2.765,2.779,2.789,2.7965,2.8171,2.8341,2.8414,2.8574,2.8147,2.6892,2.6583,2.5842,2.4534,2.4467,2.4528,2.4686,2.4686,2.471,2.4795,2.4895,2.4997,2.5134,2.5381,2.5605,2.5791,2.601,2.6134,2.6206,2.6347,2.6133,2.5731,2.5579,2.5256,2.4829,2.4592,2.4186,2.3763,2.3763,2.3274,2.2649,2.2649,2.2496,2.2296,2.2296,2.2462,2.2779,2.327,2.3665,2.4064,2.4813,2.4641,2.44,2.4897,2.5846,2.6644,2.6644,2.7291,2.7856,2.7856,2.7492,2.7351,2.7885,2.7989,2.8161,2.8661,2.9179,2.9592,2.9834,2.9886,3.0265,3.1337,3.144,3.196,3.3241,3.3362,3.369,3.4469,3.4619,3.5046,3.5889,3.6083,3.5972,3.5558,3.6071,3.6278,3.6122,3.6025,3.6245,3.6786,3.703,3.7053,3.6904,3.7111,3.7116,3.6989,3.6968,3.7007,3.7052,3.6278,3.5961,3.5944,3.5981,3.5701,3.5403,3.6218,3.6629,3.6756,2.76,2.76,2.76,2.76,2.76,2.76,2.7585,2.7585,2.765,2.779,2.793,2.8103,2.8387,2.847,2.8606,2.8881,2.9028,2.8647,2.7575,2.6493,2.5567,2.4835,2.4815,2.4895,2.5091,2.5127,2.515,2.5211,2.5211,2.5326,2.5605,2.5682,2.5885,2.6206,2.6278,2.6417,2.6589,2.6589,2.664,2.664,2.5913,2.5609,2.5541,2.4795,2.4508,2.4508,2.4508,2.4034,2.341,2.341,2.2919,2.2296,2.2296,2.2861,2.351,2.3527,2.413,2.4955,2.5723,2.5958,2.5989,2.5944,2.7122,2.8303,2.832,2.8938,2.9506,2.9506,2.9506,2.9506,2.9506,2.9506,2.9523,2.9523,2.9523,2.9799,3.0593,3.0731,3.1319,3.2899,3.3108,3.3458,3.4318,3.4424,3.472,3.5449,3.5634,3.6122,3.7073,3.7169,3.7264,3.7394,3.7469,3.7578,3.7703,3.7241,3.7007,3.7007,3.7742,3.7844,3.7332,3.8015,3.7966,3.7411,3.7334,3.7297,3.7243,3.6593,3.6292,3.631,3.6364,3.6399,3.6506,3.7381,3.7703,3.7739,2.76,2.76,2.7625,2.7715,2.774,2.78,2.7999,2.8024,2.8097,2.8262,2.8494,2.8732,2.9006,2.925,2.9483,2.9661,2.9837,2.9412,2.8152,2.733,2.6572,2.5883,2.5663,2.5624,2.5735,2.5735,2.5791,2.5885,2.5885,2.5974,2.61,2.6155,2.6279,2.6486,2.6555,2.6607,2.6674,2.6674,2.6691,2.6674,2.6454,2.637,2.6353,2.6116,2.571,2.527,2.527,2.4812,2.4169,2.4169,2.3678,2.3086,2.3129,2.3726,2.4501,2.5028,2.5398,2.5802,2.6539,2.7203,2.7664,2.76,2.7976,2.8507,2.9024,2.9334,2.9506,2.9506,2.9506,2.9679,3.0231,3.0334,3.0506,3.1024,3.1147,3.127,3.1512,3.2068,3.268,3.3242,3.3784,3.447,3.5426,3.5515,3.5851,3.6629,3.6871,3.7201,3.7774,3.7809,3.7913,3.8101,3.8118,3.8152,3.8203,3.7774,3.7559,3.7559,3.8363,3.8346,3.7685,3.8436,3.8346,3.7613,3.7577,3.7595,3.7523,3.6756,3.6504,3.6574,3.6608,3.6641,3.6782,3.766,3.8068,3.8219,2.7675,2.7675,2.7725,2.794,2.7989,2.8088,2.8293,2.8414,2.8542,2.8701,2.8982,2.9273,2.9544,2.9832,3.0075,3.0262,3.0191,2.9802,2.8979,2.8319,2.7656,2.6921,2.6728,2.6522,2.6205,2.6188,2.624,2.6329,2.6329,2.6347,2.6417,2.6452,2.6538,2.664,2.6691,2.6691,2.6691,2.6691,2.6691,2.6691,2.6691,2.6691,2.6691,2.6691,2.642,2.6048,2.6048,2.5574,2.4962,2.4962,2.4518,2.3969,2.3996,2.4599,2.536,2.5805,2.621,2.6685,2.7408,2.8008,2.8541,2.911,2.9265,2.942,2.9868,3.0231,3.0456,3.0456,3.0716,3.1114,3.1599,3.1945,3.2309,3.2759,3.2887,3.2943,3.2943,3.3454,3.4001,3.4408,3.4922,3.5631,3.6575,3.6737,3.6988,3.756,3.7756,3.8108,3.8705,3.8791,3.8873,3.9033,3.9033,3.8902,3.8606,3.8348,3.8168,3.8052,3.9189,3.9135,3.8103,3.9208,3.9082,3.7984,3.7967,3.7933,3.7914,3.7442,3.7311,3.7412,3.7444,3.7475,3.7578,3.815,3.8446,3.8575,2.7815,2.7865,2.7965,2.8235,2.8381,2.8501,2.8606,2.8818,2.9044,2.9189,2.9483,2.9772,3.0049,3.0246,3.0472,3.0712,3.0294,2.9991,2.9924,2.9411,2.8704,2.7841,2.7807,2.7399,2.6536,2.652,2.652,2.652,2.652,2.6554,2.6606,2.6606,2.664,2.6691,2.6691,2.6691,2.6691,2.6691,2.6691,2.6691,2.6691,2.6691,2.6691,2.6708,2.6725,2.6725,2.6708,2.6334,2.5806,2.5738,2.5391,2.4987,2.4936,2.5461,2.6122,2.6122,2.6718,2.754,2.8213,2.8506,2.8937,3.0352,3.08,3.0886,3.0817,3.1425,3.2016,3.2016,3.2732,3.3345,3.3346,3.3939,3.4463,3.4463,3.4505,3.4562,3.4563,3.4798,3.5261,3.6077,3.6399,3.688,3.7775,3.8058,3.8264,3.8451,3.8583,3.9008,3.982,3.9974,4.0071,4.0127,4.0127,3.9807,3.9146,3.9128,3.8942,3.8574,4.0035,3.9995,3.8687,4.0105,3.9908,3.843,3.837,3.8338,3.8356,3.8417,3.8478,3.8541,3.86,3.8615,3.8631,3.8773,3.8822,3.8837,2.8113,2.8229,2.8431,2.8708,2.8959,2.9198,2.9483,2.9661,2.9837,3.0016,3.0182,3.0405,3.0671,3.0777,3.0898,3.1092,3.0979,3.0661,3.0087,2.9937,2.9245,2.7858,2.7807,2.7435,2.6674,2.6657,2.6657,2.6657,2.6657,2.6657,2.6674,2.6674,2.6691,2.6691,2.6691,2.6691,2.6691,2.6691,2.6691,2.6691,2.6691,2.6691,2.6708,2.6809,2.6859,2.6859,2.6925,2.6856,2.6617,2.6052,2.62,2.6503,2.592,2.6342,2.7025,2.7025,2.7559,2.8196,2.8368,2.9282,3.03,3.0681,3.1686,3.2413,3.1771,3.2275,3.2885,3.3051,3.3772,3.4389,3.4445,3.4675,3.4871,3.4871,3.4942,3.4995,3.5047,3.5668,3.6254,3.6605,3.7232,3.8072,3.9088,3.9928,4.0443,4.0538,4.0588,4.0743,4.1086,4.1139,4.1166,4.1238,4.1238,4.1178,4.1026,4.1007,4.0585,3.9728,4.0078,4.0075,3.9758,4.0111,3.9679,3.8713,3.8701,3.8701,3.8701,3.8716,3.8743,3.8818,3.8833,3.8833,3.8848,3.8921,3.8968,3.8964,2.859,2.8779,2.8974,2.9296,2.9544,2.9804,3.0011,3.022,3.0368,3.0472,3.0634,3.0794,3.0915,3.1052,3.1131,3.119,3.119,3.1038,3.0649,3.0632,2.9956,2.8433,2.8383,2.7858,2.6708,2.6691,2.6691,2.6691,2.6691,2.6691,2.6691,2.6691,2.6691,2.6691,2.6691,2.6691,2.6691,2.6758,2.6792,2.6792,2.6842,2.6842,2.6859,2.6925,2.6959,2.6959,2.6992,2.7024,2.7004,2.6691,2.6842,2.7132,2.6736,2.6923,2.7384,2.776,2.8156,2.8623,2.9382,3.0179,3.1011,3.1846,3.2648,3.3117,3.2699,3.3296,3.3965,3.4164,3.4942,3.5581,3.5687,3.6042,3.6345,3.6345,3.6415,3.6502,3.6534,3.7014,3.7403,3.7551,3.836,3.9343,4.0407,4.098,4.1317,4.1391,4.1388,4.1437,4.1549,4.1549,4.1379,4.1033,4.1386,4.1423,4.1033,4.1404,4.1527,4.1378,4.1007,4.0619,4.0248,4.0248,3.976,3.891,3.891,3.891,3.891,3.891,3.8935,3.9007,3.9007,3.9007,3.9007,3.9017,3.905,3.9045,2.9143,2.9364,2.9582,2.9875,3.0151,3.0342,3.0414,3.0634,3.0794,3.0794,3.0935,3.1035,3.1035,3.1131,3.119,3.119,3.119,3.119,3.119,3.119,3.055,2.9061,2.8993,2.8282,2.6725,2.6691,2.6691,2.6691,2.6691,2.6691,2.6691,2.6725,2.6742,2.6725,2.6758,2.6758,2.6758,2.6876,2.6926,2.6926,2.6992,2.6991,2.6991,2.7007,2.7024,2.7024,2.704,2.7087,2.7166,2.7282,2.7313,2.7329,2.7329,2.7433,2.7656,2.8357,2.8737,2.9239,3.0592,3.1167,3.1725,3.3125,3.3687,3.3916,3.3969,3.4517,3.5119,3.5331,3.6111,3.6803,3.6959,3.7481,3.795,3.8094,3.8199,3.8339,3.8518,3.8672,3.8804,3.8899,3.9774,4.0738,4.1622,4.1838,4.1942,4.2017,4.1999,4.1999,4.1999,4.1869,4.1497,4.0843,4.146,4.1479,4.081,4.1609,4.2333,4.3002,4.2184,4.1367,4.0587,4.0471,3.9983,3.9244,3.9244,3.9244,3.9244,3.9095,3.9064,3.9101,3.9101,3.9101,3.9101,3.9101,3.9101,3.9101,2.9683,2.9946,3.0225,3.0384,3.063,3.0831,3.0895,3.1035,3.1131,3.1131,3.1151,3.1171,3.1171,3.119,3.119,3.119,3.119,3.119,3.119,3.119,3.055,2.9061,2.8993,2.8282,2.6725,2.6691,2.6691,2.6691,2.6691,2.6691,2.6691,2.6809,2.6859,2.6893,2.6925,2.6958,2.6958,2.6975,2.6992,2.6992,2.7008,2.6991,2.7007,2.7054,2.7086,2.7103,2.7218,2.7297,2.736,2.7376,2.7438,2.7465,2.7465,2.7952,2.854,2.8722,2.9698,3.0816,3.1156,3.2262,3.3406,3.3737,3.4923,3.6042,3.6199,3.6167,3.6168,3.6429,3.7228,3.7922,3.8059,3.8214,3.8554,3.9246,3.9355,3.9694,4.0571,4.0696,4.0795,4.0972,4.1782,4.2381,4.2523,4.3216,4.3674,4.367,4.367,4.367,4.367,4.302,4.2593,4.2482,4.2575,4.2593,4.2482,4.3262,4.3726,4.3838,4.302,4.2222,4.1404,4.0717,4.0327,4.0201,4.0201,4.0201,4.0145,3.9403,3.9087,3.9101,3.9101,3.9101,3.9101,3.9101,3.9101,3.9101,3.0262,3.0472,3.0675,3.0773,3.0935,3.1072,3.1112,3.1151,3.119,3.119,3.119,3.136,3.1769,3.1819,3.1819,3.1819,3.1427,3.119,3.119,3.119,3.0717,2.9651,2.9639,2.915,2.8065,2.7675,2.7487,2.7487,2.7029,2.6825,2.6875,2.6925,2.6959,2.6959,2.6992,2.6991,2.6991,2.7039,2.7055,2.7055,2.7154,2.717,2.717,2.7201,2.7217,2.7217,2.7313,2.736,2.7407,2.7483,2.7823,2.8233,2.8262,2.8866,2.9632,3.0149,3.0843,3.1664,3.2663,3.3476,3.4273,3.5266,3.6069,3.68,3.7455,3.7528,3.7493,3.7627,3.8014,3.8366,3.8501,3.8912,3.9381,3.9758,4.0198,4.0671,4.1183,4.1272,4.1486,4.2054,4.2502,4.2919,4.3383,4.3766,4.4005,4.4005,4.4005,4.3801,4.3355,4.2575,4.1924,4.146,4.1887,4.2129,4.2129,4.3373,4.4005,4.3986,4.3188,4.2612,4.224,4.1441,4.107,4.1051,4.0587,4.0416,4.0327,3.9454,3.9101,3.9101,3.9101,3.9101,3.9101,3.9101,3.9101,3.9101]}]]